[[{"header":{"parameterUnit":"m.s-1","parameterCategory":1,"la1":30.6,"la2":28.766,"lo1":-90.7593,"lo2":-88.6598,"dx":0.0162,"dy":0.0183,"nx":116,"ny":114,"refTime":"2022-11-08T18:00:00:Z","depth":0,"parameterNumber":2,"parameterNumberName":"U-component_of_WINDS"},"data":[0.0,0.0,0.0,0.0,0.0,0.0,0.0,0.0,0.0,0.0,0.0,0.0,0.0,0.0,0.0,0.0,0.0,0.0,0.0,0.0,0.0,0.0,0.0,0.0,0.0,0.0,0.0,0.0,0.0,0.0,0.0,0.0,0.0,0.0,0.0,0.0,0.0,0.0,0.0,0.0,0.0,0.0,0.0,0.0,0.0,0.0,0.0,0.0,0.0,0.0,0.0,0.0,0.0,0.0,0.0,0.0,0.0,0.0,0.0,0.0,0.0,0.0,0.0,0.0,0.0,0.0,0.0,0.0,0.0,0.0,0.0,0.0,0.0,0.0,0.0,0.0,0.0,0.0,0.0,0.0,0.0,0.0,0.0,0.0,0.0,0.0,0.0,0.0,0.0,0.0,0.0,0.0,0.0,0.0,0.0,0.0,0.0,0.0,0.0,0.0,0.0,0.0,0.0,0.0,0.0,0.0,0.0,0.0,0.0,0.0,0.0,0.0,0.0,0.0,0.0,0.0,0.0,0.0,0.0,0.0,0.0,0.0,0.0,0.0,0.0,0.0,0.0,0.0,0.0,0.0,0.0,0.0,0.0,0.0,0.0,0.0,0.0,0.0,0.0,0.0,0.0,0.0,0.0,0.0,0.0,0.0,0.0,0.0,0.0,0.0,0.0,0.0,0.0,0.0,0.0,0.0,0.0,0.0,0.0,0.0,0.0,0.0,0.0,0.0,0.0,0.0,0.0,0.0,0.0,0.0,0.0,0.0,0.0,0.0,0.0,0.0,0.0,0.0,0.0,0.0,0.0,0.0,0.0,0.0,0.0,0.0,0.0,0.0,0.0,0.0,0.0,0.0,0.0,0.0,0.0,0.0,0.0,0.0,0.0,0.0,0.0,0.0,0.0,0.0,0.0,0.0,0.0,0.0,0.0,0.0,0.0,0.0,0.0,0.0,0.0,0.0,0.0,0.0,0.0,0.0,0.0,0.0,0.0,0.0,0.0,0.0,0.0,0.0,0.0,0.0,0.0,0.0,0.0,0.0,0.0,0.0,0.0,0.0,0.0,0.0,0.0,0.0,0.0,0.0,0.0,0.0,0.0,0.0,0.0,0.0,0.0,0.0,0.0,0.0,0.0,0.0,0.0,0.0,0.0,0.0,0.0,0.0,0.0,0.0,0.0,0.0,0.0,0.0,0.0,0.0,0.0,0.0,0.0,0.0,0.0,0.0,0.0,0.0,0.0,0.0,0.0,0.0,0.0,0.0,0.0,0.0,0.0,0.0,0.0,0.0,0.0,0.0,0.0,0.0,0.0,0.0,0.0,0.0,0.0,0.0,0.0,0.0,0.0,0.0,0.0,0.0,0.0,0.0,0.0,0.0,0.0,0.0,0.0,0.0,0.0,0.0,0.0,0.0,0.0,0.0,0.0,0.0,0.0,0.0,0.0,0.0,0.0,0.0,0.0,0.0,0.0,0.0,0.0,0.0,0.0,0.0,0.0,0.0,0.0,0.0,0.0,0.0,0.0,0.0,0.0,0.0,0.0,0.0,0.0,0.0,0.0,0.0,0.0,0.0,0.0,0.0,0.0,0.0,0.0,0.0,0.0,0.0,0.0,0.0,0.0,0.0,0.0,0.0,0.0,0.0,0.0,0.0,0.0,0.0,0.0,0.0,0.0,0.0,0.0,0.0,0.0,0.0,0.0,0.0,0.0,0.0,0.0,0.0,0.0,0.0,0.0,0.0,0.0,0.0,0.0,0.0,0.0,0.0,0.0,0.0,0.0,0.0,0.0,0.0,0.0,0.0,0.0,0.0,0.0,0.0,0.0,0.0,0.0,0.0,0.0,0.0,0.0,0.0,0.0,0.0,0.0,0.0,0.0,0.0,0.0,0.0,0.0,0.0,0.0,0.0,0.0,0.0,0.0,0.0,0.0,0.0,0.0,0.0,0.0,0.0,0.0,0.0,0.0,0.0,0.0,0.0,0.0,0.0,0.0,0.0,0.0,0.0,0.0,0.0,0.0,0.0,0.0,0.0,0.0,0.0,0.0,0.0,0.0,0.0,0.0,0.0,0.0,0.0,0.0,0.0,0.0,0.0,0.0,0.0,0.0,0.0,0.0,0.0,0.0,0.0,0.0,0.0,0.0,0.0,0.0,0.0,0.0,0.0,0.0,0.0,0.0,0.0,0.0,0.0,0.0,0.0,0.0,0.0,0.0,0.0,0.0,0.0,0.0,0.0,0.0,0.0,0.0,0.0,0.0,0.0,0.0,0.0,0.0,0.0,0.0,0.0,0.0,0.0,0.0,0.0,0.0,0.0,0.0,0.0,0.0,0.0,0.0,0.0,0.0,0.0,0.0,0.0,0.0,0.0,0.0,0.0,0.0,0.0,0.0,0.0,0.0,0.0,0.0,0.0,0.0,0.0,0.0,0.0,0.0,0.0,0.0,0.0,0.0,0.0,0.0,0.0,0.0,0.0,0.0,0.0,0.0,0.0,0.0,0.0,0.0,0.0,0.0,0.0,0.0,0.0,0.0,0.0,0.0,0.0,0.0,0.0,0.0,0.0,0.0,0.0,0.0,0.0,0.0,0.0,0.0,0.0,0.0,0.0,0.0,0.0,0.0,0.0,0.0,0.0,0.0,0.0,0.0,0.0,0.0,0.0,0.0,0.0,0.0,0.0,0.0,0.0,0.0,0.0,0.0,0.0,0.0,0.0,0.0,0.0,0.0,0.0,0.0,0.0,0.0,0.0,0.0,0.0,0.0,0.0,0.0,0.0,0.0,0.0,0.0,0.0,0.0,0.0,0.0,0.0,0.0,0.0,0.0,0.0,0.0,0.0,0.0,0.0,0.0,0.0,0.0,0.0,0.0,0.0,0.0,0.0,0.0,0.0,0.0,0.0,0.0,0.0,0.0,0.0,0.0,0.0,0.0,0.0,0.0,0.0,0.0,0.0,0.0,0.0,0.0,0.0,0.0,0.0,0.0,0.0,0.0,0.0,0.0,0.0,0.0,0.0,0.0,0.0,0.0,0.0,0.0,0.0,0.0,0.0,0.0,0.0,0.0,0.0,0.0,0.0,0.0,0.0,0.0,0.0,0.0,0.0,0.0,0.0,0.0,0.0,0.0,0.0,0.0,0.0,0.0,0.0,0.0,0.0,0.0,0.0,0.0,0.0,0.0,0.0,0.0,0.0,0.0,0.0,0.0,0.0,0.0,0.0,0.0,0.0,0.0,0.0,0.0,0.0,0.0,0.0,0.0,0.0,0.0,0.0,0.0,0.0,0.0,0.0,0.0,0.0,0.0,0.0,0.0,0.0,0.0,0.0,0.0,0.0,0.0,0.0,0.0,0.0,0.0,0.0,0.0,0.0,0.0,0.0,0.0,0.0,0.0,0.0,0.0,0.0,0.0,0.0,0.0,0.0,0.0,0.0,0.0,0.0,0.0,0.0,0.0,0.0,0.0,0.0,0.0,0.0,0.0,0.0,0.0,0.0,0.0,0.0,0.0,0.0,0.0,0.0,0.0,0.0,0.0,0.0,0.0,0.0,0.0,0.0,0.0,0.0,0.0,0.0,0.0,0.0,0.0,0.0,0.0,0.0,0.0,0.0,0.0,0.0,0.0,0.0,0.0,0.0,0.0,0.0,0.0,0.0,0.0,0.0,0.0,0.0,0.0,0.0,0.0,0.0,0.0,0.0,0.0,0.0,0.0,0.0,0.0,0.0,0.0,0.0,0.0,0.0,0.0,0.0,0.0,0.0,0.0,0.0,0.0,0.0,0.0,0.0,0.0,0.0,0.0,0.0,0.0,0.0,0.0,0.0,0.0,0.0,0.0,0.0,0.0,0.0,0.0,0.0,0.0,0.0,0.0,0.0,0.0,0.0,0.0,0.0,0.0,0.0,0.0,0.0,0.0,0.0,0.0,0.0,0.0,0.0,0.0,0.0,0.0,0.0,0.0,0.0,0.0,0.0,0.0,0.0,0.0,0.0,0.0,0.0,0.0,0.0,0.0,0.0,0.0,0.0,0.0,0.0,0.0,0.0,0.0,0.0,0.0,0.0,0.0,0.0,0.0,0.0,0.0,0.0,0.0,0.0,0.0,0.0,0.0,0.0,0.0,0.0,0.0,0.0,0.0,0.0,0.0,0.0,0.0,0.0,0.0,0.0,0.0,0.0,0.0,0.0,0.0,0.0,0.0,0.0,0.0,0.0,0.0,0.0,0.0,0.0,0.0,0.0,0.0,0.0,0.0,0.0,0.0,0.0,0.0,0.0,0.0,0.0,0.0,0.0,0.0,0.0,0.0,0.0,0.0,0.0,0.0,0.0,0.0,0.0,0.0,0.0,0.0,0.0,0.0,0.0,0.0,0.0,0.0,0.0,0.0,0.0,0.0,0.0,0.0,0.0,0.0,0.0,0.0,0.0,0.0,0.0,0.0,0.0,0.0,0.0,0.0,0.0,0.0,0.0,0.0,0.0,0.0,0.0,0.0,0.0,0.0,0.0,0.0,0.0,0.0,0.0,0.0,0.0,0.0,0.0,0.0,0.0,0.0,0.0,0.0,0.0,0.0,0.0,0.0,0.0,0.0,0.0,0.0,0.0,0.0,0.0,0.0,0.0,0.0,0.0,0.0,0.0,0.0,0.0,0.0,0.0,0.0,0.0,0.0,0.0,0.0,0.0,0.0,0.0,0.0,0.0,0.0,0.0,0.0,0.0,0.0,0.0,0.0,0.0,0.0,0.0,0.0,0.0,0.0,0.0,0.0,0.0,0.0,0.0,0.0,0.0,0.0,0.0,0.0,0.0,0.0,0.0,0.0,0.0,0.0,0.0,0.0,0.0,0.0,0.0,0.0,0.0,0.0,0.0,0.0,0.0,0.0,0.0,0.0,0.0,0.0,0.0,0.0,0.0,0.0,0.0,0.0,0.0,0.0,0.0,0.0,0.0,0.0,0.0,0.0,0.0,0.0,0.0,0.0,0.0,0.0,0.0,0.0,0.0,0.0,0.0,0.0,0.0,0.0,0.0,0.0,0.0,0.0,0.0,0.0,0.0,0.0,0.0,0.0,0.0,0.0,0.0,0.0,0.0,0.0,0.0,0.0,0.0,0.0,0.0,0.0,0.0,0.0,0.0,0.0,0.0,0.0,0.0,0.0,0.0,0.0,0.0,0.0,0.0,0.0,0.0,0.0,0.0,0.0,0.0,0.0,0.0,0.0,0.0,0.0,0.0,0.0,0.0,0.0,0.0,0.0,0.0,0.0,0.0,0.0,0.0,0.0,0.0,0.0,0.0,0.0,0.0,0.0,0.0,0.0,0.0,0.0,0.0,0.0,0.0,0.0,0.0,0.0,0.0,0.0,0.0,0.0,0.0,0.0,0.0,0.0,0.0,0.0,0.0,0.0,0.0,0.0,0.0,0.0,0.0,0.0,0.0,0.0,0.0,0.0,0.0,0.0,0.0,0.0,0.0,0.0,0.0,0.0,0.0,0.0,0.0,0.0,0.0,0.0,0.0,0.0,0.0,0.0,0.0,0.0,0.0,0.0,0.0,0.0,0.0,0.0,0.0,0.0,0.0,0.0,0.0,0.0,0.0,0.0,0.0,0.0,0.0,0.0,0.0,0.0,0.0,0.0,0.0,0.0,0.0,0.0,0.0,0.0,0.0,0.0,0.0,0.0,0.0,0.0,0.0,0.0,0.0,0.0,0.0,0.0,0.0,0.0,0.0,0.0,0.0,0.0,0.0,0.0,0.0,0.0,0.0,0.0,0.0,0.0,0.0,0.0,0.0,0.0,0.0,0.0,0.0,0.0,0.0,0.0,0.0,0.0,0.0,0.0,0.0,0.0,0.0,0.0,0.0,0.0,0.0,0.0,0.0,0.0,0.0,0.0,0.0,0.0,0.0,0.0,0.0,0.0,0.0,0.0,0.0,0.0,0.0,0.0,0.0,0.0,0.0,0.0,0.0,0.0,0.0,0.0,0.0,0.0,0.0,0.0,0.0,0.0,0.0,0.0,0.0,0.0,0.0,0.0,0.0,0.0,0.0,0.0,0.0,0.0,0.0,0.0,0.0,0.0,0.0,0.0,0.0,0.0,0.0,0.0,0.0,0.0,0.0,5.7539,0.0,0.0,0.0,0.0,0.0,0.0,0.0,0.0,0.0,0.0,0.0,0.0,0.0,0.0,0.0,0.0,0.0,0.0,0.0,0.0,0.0,0.0,0.0,0.0,3.957,4.0156,4.0976,4.1055,0.0,0.0,0.0,0.0,0.0,0.0,0.0,4.043,4.2148,4.3047,4.3047,4.5976,4.8652,5.1005,4.9711,4.778,4.5391,0.0,0.0,0.0,0.0,0.0,0.0,0.0,0.0,0.0,0.0,0.0,0.0,0.0,0.0,0.0,0.0,0.0,0.0,0.0,0.0,0.0,0.0,0.0,0.0,0.0,0.0,0.0,0.0,0.0,0.0,0.0,0.0,0.0,0.0,0.0,0.0,0.0,0.0,0.0,0.0,0.0,0.0,0.0,0.0,0.0,0.0,0.0,0.0,0.0,0.0,0.0,0.0,0.0,0.0,0.0,0.0,0.0,0.0,0.0,0.0,0.0,0.0,0.0,0.0,0.0,0.0,0.0,0.0,0.0,0.0,0.0,5.8804,0.0,0.0,0.0,0.0,0.0,0.0,0.0,0.0,0.0,0.0,0.0,0.0,0.0,0.0,0.0,0.0,0.0,0.0,0.0,0.0,0.0,3.8789,4.0976,4.1601,4.2422,4.3828,4.3945,4.3633,4.2891,4.2695,0.0,0.0,0.0,0.0,4.2851,4.457,4.5664,4.6094,5.0029,5.3446,5.6329,5.7892,5.6032,5.1226,4.8981,0.0,0.0,0.0,0.0,0.0,0.0,0.0,0.0,0.0,0.0,0.0,0.0,0.0,0.0,0.0,0.0,0.0,0.0,0.0,0.0,0.0,0.0,0.0,0.0,0.0,0.0,0.0,0.0,0.0,0.0,0.0,0.0,0.0,0.0,0.0,0.0,0.0,0.0,0.0,0.0,0.0,0.0,0.0,0.0,0.0,0.0,0.0,0.0,0.0,0.0,0.0,0.0,0.0,0.0,0.0,0.0,0.0,0.0,0.0,0.0,0.0,0.0,0.0,6.6523,6.7383,6.7969,6.8073,6.8757,6.965,6.578,6.4462,6.4831,6.1134,0.0,0.0,0.0,0.0,0.0,0.0,0.0,0.0,0.0,0.0,0.0,0.0,0.0,0.0,0.0,0.0,0.0,0.0,0.0,4.082,4.1172,4.3164,4.4609,4.4805,4.4844,4.4766,4.4648,4.3945,0.0,0.0,0.0,4.4648,4.4648,4.6367,4.832,5.0469,5.6697,6.0321,6.1543,6.2452,6.2511,6.1613,5.7021,5.4531,5.3633,0.0,0.0,0.0,0.0,0.0,0.0,0.0,0.0,0.0,0.0,0.0,0.0,0.0,0.0,0.0,0.0,0.0,0.0,0.0,0.0,0.0,0.0,0.0,0.0,0.0,0.0,0.0,0.0,0.0,0.0,0.0,0.0,0.0,0.0,0.0,0.0,0.0,0.0,0.0,0.0,0.0,5.3516,5.4492,0.0,0.0,0.0,0.0,0.0,0.0,0.0,0.0,0.0,0.0,0.0,0.0,0.0,6.3945,6.4883,6.7969,6.9492,6.9531,7.1875,7.3008,7.3047,7.3819,7.3867,7.3343,7.3459,0.0,6.8232,6.7538,0.0,0.0,0.0,0.0,0.0,0.0,0.0,0.0,0.0,0.0,0.0,0.0,0.0,0.0,0.0,0.0,0.0,0.0,0.0,0.0,0.0,4.6367,4.8086,4.8555,4.9492,4.9453,4.8008,4.7578,0.0,0.0,4.6016,4.6445,4.6445,4.9531,5.3253,5.7581,6.2017,6.4811,6.6046,6.7441,6.806,6.7887,6.5188,6.1729,5.7692,5.5219,0.0,0.0,0.0,0.0,0.0,0.0,0.0,0.0,0.0,0.0,0.0,0.0,0.0,0.0,0.0,0.0,0.0,0.0,0.0,0.0,0.0,0.0,0.0,0.0,0.0,0.0,0.0,0.0,0.0,0.0,0.0,0.0,0.0,0.0,0.0,0.0,0.0,0.0,0.0,5.3047,5.4687,5.6523,5.6406,5.6133,0.0,0.0,0.0,0.0,0.0,0.0,0.0,0.0,0.0,6.7109,6.7539,6.8789,7.1015,7.2938,7.4133,7.4522,7.6163,7.6855,7.6777,7.7094,7.7015,7.6609,7.6938,7.6016,7.4039,7.0765,6.8084,6.5943,0.0,0.0,0.0,0.0,6.2667,6.2914,0.0,0.0,0.0,0.0,0.0,0.0,0.0,0.0,0.0,0.0,0.0,0.0,4.707,4.9805,5.1758,5.2344,5.3594,5.3359,5.0976,5.0625,4.9453,4.707,4.8008,4.8555,4.8555,5.3572,5.8636,6.3552,6.6629,6.8704,6.9872,7.1396,7.2065,7.1949,7.1308,6.7789,6.2201,6.0249,5.8083,5.5668,0.0,0.0,0.0,0.0,0.0,0.0,0.0,0.0,0.0,0.0,0.0,0.0,0.0,0.0,0.0,0.0,0.0,0.0,0.0,0.0,0.0,0.0,0.0,0.0,0.0,0.0,0.0,0.0,0.0,0.0,0.0,0.0,0.0,0.0,0.0,0.0,0.0,5.5625,5.7109,5.9297,5.9922,5.9961,0.0,0.0,0.0,0.0,0.0,0.0,6.6133,6.6992,6.8945,7.2305,7.2557,7.3927,7.6607,7.7429,7.8117,7.8683,7.9345,7.9576,7.946,7.9614,7.9546,7.9223,7.9392,7.9345,7.8806,7.411,7.1756,7.0911,6.895,6.7768,6.7243,6.7691,6.7821,6.8109,0.0,0.0,0.0,0.0,0.0,0.0,0.0,0.0,0.0,0.0,0.0,4.8945,4.9883,5.3008,5.5078,5.5117,5.5195,5.4492,5.2695,5.1797,5.0586,4.8828,5.0351,5.1211,5.1211,5.8584,6.3747,6.6488,7.0518,7.2507,7.2614,7.3401,7.376,7.376,7.3721,7.1711,6.8193,6.568,6.3632,6.1619,5.6637,0.0,0.0,0.0,0.0,0.0,0.0,0.0,0.0,0.0,0.0,0.0,0.0,0.0,0.0,0.0,0.0,0.0,0.0,0.0,0.0,0.0,0.0,0.0,0.0,0.0,0.0,0.0,0.0,0.0,0.0,0.0,0.0,0.0,0.0,0.0,0.0,0.0,0.0,6.3867,6.543,0.0,0.0,0.0,0.0,6.6523,6.7265,6.8828,7.1289,7.207,7.3984,7.7422,7.827,7.9091,7.9941,8.0799,8.1162,8.1047,8.1054,8.1054,8.1016,8.1778,8.1701,8.1016,8.1778,8.1701,8.0823,7.8883,7.6659,7.4418,7.4332,7.2775,7.0834,7.2506,7.3149,7.3351,0.0,0.0,0.0,3.8516,3.8555,3.8936,4.0096,4.0789,4.207,4.457,4.7734,5.0469,5.2422,5.6211,5.8828,5.9375,6.043,6.0351,5.8594,5.7187,5.5664,5.3945,5.3906,5.5703,5.9492,6.3828,6.7571,7.0614,7.3158,7.4343,7.4281,7.5214,7.5585,7.5484,7.5484,7.4518,7.27,7.0148,6.7441,6.4616,6.1718,5.8196,0.0,0.0,0.0,0.0,0.0,0.0,0.0,0.0,0.0,0.0,0.0,0.0,0.0,0.0,0.0,0.0,0.0,0.0,0.0,0.0,0.0,0.0,0.0,0.0,0.0,0.0,0.0,0.0,0.0,0.0,0.0,0.0,0.0,0.0,0.0,0.0,0.0,6.6719,6.832,0.0,6.8555,6.9961,7.0898,7.0898,7.3125,7.5091,7.6504,7.7315,7.8509,8.0145,8.0448,8.0906,8.16,8.1875,8.2529,8.3561,8.3561,8.383,8.4324,8.4593,8.4593,8.4324,8.4632,8.4593,8.4247,8.3093,8.1131,7.8823,7.8823,7.8254,7.7531,7.8177,7.8369,7.8485,0.0,0.0,0.0,3.9335,3.9375,3.9912,4.1349,4.2077,4.3672,4.7148,5.0391,5.332,5.5898,5.9765,6.2383,6.2969,6.4336,6.418,6.1836,6.0664,5.9023,5.6719,5.7148,6.0078,6.5742,6.8008,7.0653,7.3704,7.507,7.5859,7.6049,7.6668,7.7079,7.7272,7.7272,7.6808,7.5856,7.4154,7.1501,6.8188,6.62,6.3013,5.9121,0.0,0.0,0.0,0.0,0.0,0.0,0.0,0.0,0.0,0.0,0.0,0.0,0.0,0.0,0.0,0.0,0.0,0.0,0.0,0.0,0.0,0.0,0.0,0.0,0.0,0.0,0.0,0.0,0.0,0.0,0.0,0.0,0.0,0.0,6.5625,6.8515,6.9375,7.1446,7.2596,7.2002,7.3933,7.5305,7.5581,7.7609,7.9297,8.0343,8.0872,8.162,8.2631,8.2862,8.333,8.4066,8.4335,8.506,8.617,8.6176,8.6483,8.6983,8.6983,8.6983,8.6983,8.6983,8.6983,8.6945,8.6406,8.5176,8.3548,8.2401,8.1946,8.1946,8.1946,8.1946,8.1946,0.0,0.0,4.0917,4.1008,4.1015,4.1328,4.2226,4.3828,4.6211,4.9766,5.3945,5.7578,6.0156,6.3555,6.5664,6.5664,6.6484,6.5508,6.2109,6.1836,6.0351,5.7031,6.0156,6.4297,6.9297,7.1054,7.3111,7.5585,7.6281,7.7079,7.793,7.7775,7.8185,7.8998,7.8998,7.8534,7.7736,7.7736,7.5817,7.2538,6.9971,6.7905,6.576,0.0,0.0,0.0,0.0,0.0,0.0,0.0,0.0,0.0,0.0,0.0,0.0,0.0,0.0,0.0,0.0,0.0,0.0,0.0,0.0,0.0,0.0,0.0,0.0,0.0,0.0,0.0,0.0,0.0,0.0,0.0,0.0,0.0,6.6055,6.875,7.1211,7.2109,7.5113,7.7112,7.7112,7.853,7.9714,8.0492,8.0511,8.1128,8.2728,8.2631,8.3341,8.506,8.5824,8.6594,8.7435,8.8276,8.87,8.8738,8.8752,8.8794,8.8833,8.8833,8.8871,8.8871,8.8871,8.8833,8.8833,8.8794,8.8752,8.843,8.506,8.3759,8.3759,8.3759,8.3759,8.3759,4.081,4.0848,4.0897,4.0907,4.147,4.222,4.3123,4.4766,4.7148,5.0625,5.4297,5.7812,6.1015,6.4453,6.6797,6.7422,6.8242,6.7773,6.5625,6.4883,6.4101,6.3164,6.6328,6.9336,7.1992,7.3531,7.5275,7.7233,7.7349,7.7814,7.8689,7.868,7.8771,7.9003,7.9003,7.8887,7.8655,7.8626,7.7736,7.6088,7.3512,7.107,6.8651,0.0,0.0,0.0,0.0,0.0,0.0,0.0,0.0,0.0,0.0,0.0,0.0,0.0,0.0,0.0,0.0,0.0,0.0,0.0,0.0,0.0,0.0,0.0,0.0,0.0,0.0,0.0,0.0,0.0,0.0,0.0,6.8515,7.1523,7.039,7.3242,7.5712,7.6488,7.8441,7.9686,7.9527,8.0963,8.1981,8.2073,8.3156,8.4214,8.517,8.5791,8.656,8.7627,8.7868,8.8102,8.8367,8.8598,8.8983,8.9594,9.0213,9.0864,9.1479,9.2091,9.2322,9.2322,9.2322,9.2014,9.1402,9.0787,9.0136,8.944,8.7897,8.7319,8.7319,8.7319,8.7319,8.7319,4.081,4.081,4.0848,4.0848,4.1609,4.251,4.3434,4.5391,4.8164,5.1992,5.5508,5.8984,6.2422,6.5898,6.8164,6.8711,6.918,6.8867,6.7539,6.664,6.6758,6.8125,7.039,7.2369,7.4012,7.5566,7.6885,7.7814,7.8099,7.868,7.9516,7.9506,7.9674,8.0048,8.0048,7.9829,7.9481,7.9492,7.9028,7.8138,7.663,7.4479,7.1897,6.9849,6.7961,6.6187,6.4677,6.3347,6.211,6.0813,0.0,0.0,0.0,0.0,0.0,0.0,0.0,0.0,0.0,0.0,0.0,0.0,0.0,0.0,0.0,0.0,0.0,0.0,0.0,0.0,0.0,0.0,0.0,0.0,7.2216,7.5051,7.556,7.7416,7.8974,7.9678,8.0923,8.1744,8.1937,8.3085,8.3924,8.4164,8.5389,8.644,8.7214,8.7714,8.8363,8.9167,8.9556,8.9944,9.029,9.0598,9.1056,9.1479,9.2014,9.2479,9.3018,9.348,9.371,9.371,9.371,9.3441,9.2979,9.2441,9.1976,0.0,0.0,0.0,0.0,0.0,8.8671,8.8671,4.081,4.081,4.081,4.081,4.1609,4.2529,4.3381,4.5858,4.918,5.3437,5.6953,6.039,6.3906,6.7187,6.9219,6.9453,6.9414,6.9062,6.8398,6.789,6.8945,7.1953,7.3003,7.4177,7.5546,7.7079,7.7891,7.7968,7.8771,7.9559,8.0357,8.0357,8.0744,8.1504,8.1504,8.1053,8.0357,8.0357,7.9868,7.9133,7.9129,7.7698,7.5291,7.2925,7.1472,7.0444,6.8188,6.6775,6.5857,6.5074,0.0,0.0,0.0,0.0,0.0,0.0,0.0,0.0,0.0,0.0,0.0,0.0,0.0,0.0,0.0,0.0,0.0,0.0,0.0,0.0,0.0,0.0,0.0,0.0,7.5727,7.8332,8.0498,8.1176,8.1581,8.1892,8.2738,8.3568,8.4173,8.5013,8.5784,8.6422,8.7269,8.8122,8.894,0.0,0.0,0.0,0.0,9.1825,9.263,9.3323,9.3705,9.3705,9.382,9.3826,9.3868,9.3945,9.3983,9.3983,9.3983,9.3945,9.383,9.3862,9.382,9.34,9.0444,8.9255,8.9255,8.9255,8.9255,8.9255,4.081,4.081,4.081,4.081,4.215,4.3272,4.3474,4.6431,4.9922,5.3516,5.6406,5.9726,6.3867,6.6133,6.793,6.9297,6.8828,6.8672,6.9219,7.1015,7.2617,7.3828,7.53,7.6516,7.7388,7.762,7.8394,7.9699,7.9893,8.0396,8.1271,8.1271,8.1349,8.1504,8.1504,8.1426,8.1271,8.1271,8.0744,7.997,7.997,7.926,7.8147,7.6924,7.5933,7.502,7.386,7.2523,7.1092,6.9653,6.866,6.7539,6.4687,6.3476,0.0,0.0,0.0,0.0,0.0,0.0,0.0,0.0,0.0,0.0,0.0,0.0,0.0,0.0,0.0,0.0,0.0,0.0,0.0,7.4022,7.7988,8.1131,8.1308,8.3719,8.4743,8.2775,8.4503,8.5869,8.5799,8.7186,8.8149,8.8205,8.8974,8.9787,9.0671,9.1364,9.2133,9.2938,9.3095,9.3326,9.3445,9.3599,9.3713,9.3713,0.0,0.0,9.4789,9.5481,9.5789,9.5789,9.5789,9.5405,9.4751,9.4751,9.4328,9.3636,9.3015,9.2707,9.2707,9.2707,9.2707,9.2707,4.081,4.081,4.081,4.081,4.2279,4.3451,4.349,4.6557,4.9766,5.2344,5.4961,5.7734,6.0781,6.3008,6.4805,6.6094,6.7812,6.9023,6.9414,7.2265,7.4453,7.5547,7.6801,7.7543,7.7775,7.8564,7.9376,8.0202,8.0628,8.1053,8.1504,8.1504,8.1504,8.1504,8.1504,8.1504,8.1504,8.1504,8.1271,8.086,8.086,8.0614,8.0097,7.8834,7.8075,7.7573,7.6707,7.5933,7.502,7.3412,7.2653,7.2031,7.0,6.8515,6.6914,0.0,0.0,0.0,0.0,0.0,0.0,0.0,0.0,0.0,0.0,0.0,0.0,0.0,0.0,6.9835,7.1029,0.0,7.6727,7.7805,8.0453,8.2708,8.3779,8.5382,8.5915,8.4605,8.6377,8.7616,8.7468,8.8623,8.9513,8.9902,9.0748,9.1556,9.2402,9.2864,9.3287,9.3672,9.4095,9.4364,9.4366,9.4789,9.502,9.502,9.5443,9.5635,9.5674,9.6095,9.6288,9.6288,9.6288,9.6057,9.5635,9.5635,9.5366,9.4982,9.498,9.4477,9.371,9.371,9.371,9.371,4.081,4.081,4.081,4.081,4.2279,4.3435,4.3514,4.6537,4.9453,5.1172,5.3516,5.5781,5.7695,5.9726,6.1367,6.2422,6.6797,6.9453,6.9414,7.2812,7.543,7.6758,7.7633,7.8046,7.7968,7.9429,8.028,8.0434,8.113,8.1504,8.1504,8.1504,8.1504,8.1504,8.1504,8.1504,8.1504,8.1504,8.1504,8.1504,8.1504,8.1504,8.1349,7.9816,7.9133,7.8887,7.7983,7.7582,7.7233,7.5972,7.5634,7.5603,7.4881,7.3281,7.1094,6.8242,6.6289,0.0,0.0,0.0,0.0,0.0,0.0,0.0,0.0,6.6945,6.7838,6.9713,7.1982,7.399,7.5246,7.7442,7.9718,8.1796,8.2844,8.4157,8.6291,8.6781,8.6923,8.6923,8.8155,8.9046,8.9171,8.994,9.0748,9.1633,9.2326,9.3095,9.3903,9.3941,9.4018,9.421,9.4903,9.5249,9.5249,9.5942,9.6288,9.6288,9.6288,9.6288,9.6288,9.6288,9.6288,9.6288,9.6288,9.6288,9.6288,9.6288,9.6288,9.6288,9.6288,9.5443,9.4214,9.4214,9.4214,9.4214,4.081,4.0848,4.09,4.09,4.2318,4.3504,4.3567,4.6621,4.9492,5.1172,5.3008,5.5117,5.7617,5.8164,5.8945,6.0547,6.6094,6.9453,6.9414,7.3398,7.6055,7.6758,7.7633,7.8355,7.8824,7.9738,8.0589,8.1349,8.1465,8.1504,8.1504,8.1504,8.1504,8.1504,8.1504,8.1504,8.1504,8.1504,8.1504,8.1504,8.1504,8.1504,8.1387,8.042,7.9632,7.8882,7.8022,7.721,7.6514,7.6475,7.6466,7.6379,7.5755,7.5351,7.4375,7.039,6.8515,6.6992,6.3398,6.3203,6.457,6.6875,6.7568,6.8825,0.0,7.3924,7.4028,7.6494,7.8309,7.9515,7.9698,8.1156,8.2648,8.3503,8.4939,8.6291,8.7171,8.8556,8.9479,8.9479,8.9671,9.0094,9.0864,9.171,9.2556,9.3364,9.3518,9.3941,9.4788,9.4826,9.5211,9.598,9.6095,9.6134,9.6134,9.6249,9.6288,9.6288,9.6288,9.6288,9.6288,9.6288,9.6288,9.6288,9.6288,9.6288,9.6288,9.6288,9.6288,9.6288,9.6288,9.6172,9.6019,9.6019,9.6019,9.6019,4.0848,4.0887,4.1054,4.1609,4.2744,4.3737,4.4279,4.6928,4.9141,4.9844,5.1445,5.2891,5.3984,5.5469,5.6875,5.8086,6.4219,6.8203,6.8672,7.3142,7.6079,7.678,7.7545,7.8293,7.8979,7.979,8.0628,8.1504,8.1504,8.1504,8.1504,8.1504,8.1504,8.1504,8.1504,8.1504,8.1504,8.1504,8.1504,8.1504,8.1504,8.1194,8.0691,8.0343,7.94,7.8069,7.6668,7.5972,0.0,7.516,7.5082,7.5244,7.5992,7.5631,7.4297,7.1055,6.9883,6.9452,6.8502,6.8144,6.8655,7.1283,7.2203,7.3313,7.6469,7.6715,7.7079,7.9632,8.1043,8.1824,8.1697,8.347,8.5004,8.5132,8.6599,8.8017,8.8748,8.9902,9.0864,9.1364,9.1825,9.2056,9.1979,9.271,9.3557,9.4403,9.4441,9.4826,9.5711,9.5749,9.5903,9.6288,9.6288,9.6288,9.6288,9.6288,9.6288,9.6288,9.6288,9.6288,9.6288,9.6288,9.6288,9.6288,9.6288,9.6288,9.6288,9.6288,9.6288,9.6288,9.6288,9.6288,9.6288,9.6288,9.6288,9.6288,4.0848,4.1079,4.1513,4.2488,4.3385,4.4172,4.4832,4.6999,4.8633,4.8867,5.0156,5.1133,5.1367,5.3281,5.5039,5.6133,6.1484,6.5664,6.7695,7.187,7.4904,7.6359,7.7388,7.8138,7.8631,7.9467,8.0164,8.0807,8.1039,8.1155,8.1155,8.1387,8.1504,8.1504,8.1504,8.1504,8.1504,8.1504,8.1504,8.1504,8.1233,8.0769,8.0174,7.9685,7.8471,7.6808,7.5546,7.4966,7.4618,7.3535,7.3242,7.3551,7.4827,7.4499,7.3197,7.0896,6.9911,6.9894,7.121,7.1624,7.2327,7.485,7.6459,7.7803,7.9097,7.931,7.977,8.1813,8.2901,8.3498,8.3516,8.5282,8.677,8.7089,8.8209,8.9402,9.0479,9.1171,9.1864,9.271,9.3557,9.3826,9.3249,9.371,9.4403,9.5288,9.5365,9.5634,9.6288,9.6288,9.6288,9.6288,9.6288,9.6288,9.6288,9.6288,9.6288,9.6288,9.6288,9.6288,9.6288,9.6288,9.6288,9.6288,9.6288,9.6288,9.6288,9.6288,9.6288,9.6288,9.6288,9.6288,9.6288,9.6288,9.6288,9.6288,4.081,4.1479,4.2361,4.3286,4.4229,4.49,4.4993,4.6484,4.793,4.8789,4.9687,5.0547,5.1328,5.2226,5.3476,5.5195,5.7851,6.1562,6.6601,6.9289,7.209,7.5407,7.7079,7.7852,7.7751,7.8602,7.9067,7.9081,7.9854,8.0241,8.0266,8.1117,8.1504,8.1504,8.1504,8.1504,8.1504,8.1504,8.1504,8.1426,8.0575,8.0227,8.0034,7.837,7.6707,7.516,7.5121,7.4618,7.369,7.1949,7.1369,7.1446,7.1765,7.1804,7.1514,6.9972,6.8222,6.7343,6.9798,7.2346,7.4827,7.711,7.9909,8.2221,8.2665,8.2743,8.294,8.3695,8.4348,8.5055,8.5863,8.6748,8.7902,8.9517,8.9825,9.0479,9.2172,9.2441,9.2749,9.3557,9.4441,9.4941,9.4903,9.4941,9.5326,9.6211,9.6249,9.6288,9.6288,9.6288,9.6288,9.6288,9.6288,9.6288,9.6288,9.6288,9.6288,9.6288,9.6288,9.6288,9.6288,9.6288,9.6288,9.6288,9.6288,9.6288,9.6288,9.6288,9.6288,9.6288,9.6288,9.6288,9.6288,9.6288,9.6288,9.6288,4.3389,4.362,4.3939,4.4378,4.4674,4.5132,4.5742,4.6836,4.7695,4.8008,4.9297,0.0,0.0,0.0,0.0,0.0,5.7031,6.0156,6.2422,6.6966,7.0559,7.2832,7.4904,7.6552,7.7674,7.7983,7.8409,7.8989,7.926,7.9415,7.9439,7.9685,7.984,7.984,7.984,7.984,7.984,7.984,7.984,7.984,7.9531,7.9067,7.8332,7.663,7.5276,7.3999,0.0,7.0789,7.0496,6.9938,6.9765,7.0036,7.1253,7.0915,6.9778,6.8117,6.8864,7.0641,7.253,7.5417,7.8472,8.0805,8.2061,8.3009,8.4156,8.4325,8.4445,8.5205,8.4619,8.4286,8.517,8.5978,8.6901,8.8055,9.0133,9.1825,9.2402,9.3441,9.4249,9.4518,9.5326,9.5865,9.5865,9.5865,9.598,9.6288,9.6288,9.6288,9.6288,9.6288,9.6288,9.6288,9.6288,9.6288,9.6288,9.6288,9.6288,9.6288,9.6288,9.6288,9.6326,9.6865,9.7134,9.7135,9.7711,9.7979,9.7941,9.7941,9.7941,9.7941,9.7941,9.7941,9.7941,9.7941,9.7941,9.7787,4.5092,4.5324,4.5595,4.5775,4.6045,0.0,0.0,0.0,0.0,0.0,0.0,0.0,0.0,0.0,0.0,0.0,0.0,5.789,6.0234,6.3839,6.7047,6.9662,7.1501,7.3264,7.4889,7.5005,7.543,7.6243,7.7171,7.7597,7.7635,7.8564,7.8989,7.8989,7.8989,7.8989,7.8989,7.8989,7.9183,7.9337,7.8099,7.7442,7.6939,7.4309,7.2568,0.0,6.8777,6.7733,6.7557,6.7828,6.7985,6.8238,6.9401,6.9091,6.8336,6.8394,6.9989,7.2429,7.5543,7.8342,8.0896,8.3232,8.4049,8.4531,8.533,8.5497,8.5529,8.6011,8.4786,8.3862,8.4747,8.5555,8.6209,8.6478,8.9363,9.1672,9.1979,9.321,9.4441,9.5365,9.5942,9.6288,9.6288,9.6288,9.6288,9.6288,9.6288,9.6288,9.6288,9.6288,9.6288,9.6288,9.6288,9.6288,9.6288,9.6288,9.6442,9.6749,9.7057,9.7173,9.7211,9.775,9.7943,9.7981,9.8557,9.8788,9.8788,9.8788,9.8788,9.8788,9.8788,9.8788,9.8788,9.8788,9.8788,9.8634,4.5993,4.6651,4.7284,0.0,0.0,0.0,0.0,0.0,0.0,0.0,0.0,0.0,0.0,0.0,0.0,0.0,0.0,0.0,5.9687,6.0026,6.1861,6.5973,6.7054,6.8292,6.9821,7.001,7.0435,7.1175,7.3612,7.4811,7.4889,7.7365,7.8564,7.8602,7.8602,7.8602,7.8602,7.8602,7.9067,7.9453,7.6165,7.5314,7.5624,7.1407,6.8816,6.7307,6.6417,6.5644,6.5198,6.5915,6.6224,6.638,6.6648,6.6814,6.7514,7.0727,7.176,7.302,7.8608,8.0972,8.2341,8.4566,8.5991,8.6738,8.6293,8.6307,8.6307,8.6043,8.4632,8.3708,8.4478,8.5363,8.5747,8.5016,8.7825,9.0402,9.121,9.2133,9.3595,9.6019,9.6288,9.6288,9.6288,9.6288,9.6288,9.6288,9.6288,9.6288,9.6288,9.6288,9.6288,9.6288,9.6288,9.6326,9.6365,9.6403,9.6826,9.7596,9.8404,9.8788,9.8788,9.8865,9.8865,9.8865,9.8904,9.8942,9.8942,9.8942,9.8942,9.8942,9.8942,9.8942,9.8942,9.8942,9.8942,9.8904,0.0,0.0,0.0,0.0,0.0,0.0,0.0,0.0,0.0,0.0,0.0,0.0,0.0,0.0,0.0,0.0,0.0,0.0,5.457,5.7484,5.9888,6.1655,6.4271,6.6456,6.8081,6.8176,6.8601,6.9435,7.0092,7.0711,7.1291,7.1988,7.2645,7.3264,7.3264,7.3264,7.3264,7.3264,7.338,7.3458,7.191,7.1407,7.1291,6.8313,6.6882,6.634,6.487,6.4638,6.5064,6.5275,6.6681,6.8598,7.0506,7.1533,7.2384,7.3779,7.6455,7.9429,8.1453,8.4103,8.6583,8.7677,8.7731,8.7383,8.7115,8.6621,8.5806,8.451,8.2901,8.1593,8.117,8.2824,8.4362,8.4824,8.9325,9.2826,9.3018,9.4364,9.5557,9.6211,9.6288,9.6288,9.6288,9.6288,9.6288,9.6288,9.6288,9.6288,9.6288,9.6288,9.6288,9.6288,9.6288,9.6596,9.7211,9.7827,9.825,9.8481,9.8673,9.8788,9.8827,9.9481,9.975,9.9788,10.0404,10.0712,10.0673,10.0673,10.0673,10.0673,10.0673,10.0673,10.0673,10.0673,10.0673,10.0673,0.0,0.0,0.0,0.0,0.0,0.0,0.0,0.0,0.0,0.0,0.0,0.0,0.0,0.0,0.0,0.0,0.0,0.0,0.0,5.5375,5.7018,5.7821,5.9976,6.193,6.3555,6.398,6.4793,6.5992,6.6766,6.7539,6.8352,6.9125,6.9744,7.0208,7.0208,7.0208,7.0208,7.0208,7.0402,0.0,0.0,6.8313,6.8003,6.5064,6.3942,6.3787,6.2511,6.3497,6.5719,6.7222,6.8992,7.0758,7.2161,7.3408,7.4742,7.664,7.9422,8.2312,8.4232,8.6478,8.8389,8.8759,8.8228,8.7357,8.6473,8.5324,8.3978,8.2285,8.0285,7.8823,7.8707,8.0785,8.267,8.317,8.8171,9.2172,9.2556,9.4095,9.5441,9.6211,9.6288,9.6288,9.6288,9.6288,9.6288,9.6288,9.6288,9.6288,9.6288,9.6288,9.6288,9.6288,9.6634,9.725,9.8057,9.8942,9.9365,9.9365,9.9712,9.9904,9.9904,10.0404,10.0596,10.0712,0.0,10.1289,10.1289,10.1289,10.1289,10.1289,10.1289,10.1289,10.1289,10.1289,10.1289,10.1289,0.0,0.0,0.0,0.0,0.0,0.0,0.0,0.0,0.0,4.9453,4.9805,5.0234,5.0351,5.0273,0.0,0.0,0.0,0.0,0.0,0.0,5.4177,5.4823,5.5543,5.6631,5.8062,5.8874,6.0112,6.1737,6.3245,6.4445,6.5412,6.692,6.7694,6.7771,6.7771,6.7771,6.7771,6.7771,6.8197,6.8622,6.6301,6.5373,6.5025,0.0,6.077,6.0731,6.0344,6.2781,6.6621,6.9987,7.1863,7.2853,7.3241,7.4499,7.6447,7.9759,8.1778,8.367,8.6863,8.8286,8.8863,8.8863,8.8209,8.7055,8.517,8.3478,8.1747,7.9708,7.7553,7.6169,7.6707,7.8977,8.0862,8.1208,8.6017,9.0171,9.1364,9.2864,9.448,9.6095,9.6288,9.6288,9.6288,9.6288,9.6288,9.6288,9.6288,9.6288,9.6288,9.6288,9.6365,9.648,9.7365,9.8211,9.8981,9.9827,10.0289,10.0289,10.1019,10.1289,10.1289,10.1289,10.1289,10.1289,10.1289,10.1289,10.1289,10.1289,10.1289,10.1289,10.1289,10.1289,10.1289,10.1289,10.1289,10.1289,0.0,0.0,0.0,0.0,0.0,0.0,0.0,0.0,0.0,0.0,5.0508,5.0469,0.0,0.0,0.0,0.0,0.0,0.0,0.0,0.0,0.0,5.3983,5.4037,5.452,5.5432,5.5625,5.6515,5.8178,5.8488,5.9455,6.1002,6.1311,6.1814,6.2433,6.2433,6.2433,6.2433,6.2433,6.2511,6.2549,6.1427,6.1002,6.0847,5.9532,5.9029,0.0,6.1273,6.3747,6.6621,6.9948,7.2559,7.4857,7.7651,7.9661,8.1547,8.4209,8.5709,8.694,8.894,8.9594,8.971,8.971,8.9094,8.7671,8.4516,8.3016,8.1246,7.7438,7.6322,7.563,7.4399,7.6784,7.9631,8.1747,8.594,8.994,9.2864,9.4134,9.5134,9.6172,9.6288,9.6288,9.6288,9.6288,9.6288,9.6288,9.6288,9.6288,9.6288,9.6288,9.6596,9.7288,9.8827,9.9712,9.9865,10.0712,10.1096,10.1096,10.1212,10.1289,10.1289,10.1289,10.1289,10.1289,10.1289,0.0,10.1289,10.1289,10.1289,10.1289,10.1289,10.1289,10.1289,10.1289,10.1289,10.1289,0.0,0.0,0.0,0.0,0.0,0.0,0.0,5.2422,5.2695,5.2734,5.2422,5.2148,5.207,5.2148,5.2344,0.0,0.0,0.0,0.0,0.0,0.0,5.2465,5.2822,5.3166,5.342,5.3884,5.4735,5.6012,0.0,5.6631,5.7869,5.8333,5.8758,5.9145,5.9609,5.9803,5.9803,5.9803,5.9803,5.9764,5.9377,5.8952,5.8488,5.8062,5.8217,0.0,6.0963,6.3593,6.6389,6.8444,7.1673,7.5408,7.8738,8.1246,8.3401,8.5478,8.7055,8.8325,8.9594,9.0248,9.0479,9.0017,8.9286,8.7555,8.3285,8.1285,7.9015,7.4322,7.3014,7.2591,7.2206,7.4207,7.6861,7.9823,8.4286,8.8363,9.1325,9.3595,9.5326,9.6211,9.6288,9.6288,9.6288,9.6288,9.6288,9.6288,9.6673,9.6903,9.6903,9.7365,9.798,9.8827,9.9635,10.0289,10.0712,10.1096,10.1289,10.1289,10.1289,10.1289,10.1289,10.1289,10.1289,10.1289,10.1289,0.0,10.1289,10.1289,10.1289,10.1289,10.1289,10.1289,10.1289,10.1289,10.1289,10.1289,0.0,0.0,0.0,0.0,0.0,0.0,5.2498,5.2969,5.3516,5.418,5.4297,5.4023,5.332,5.3516,5.3711,0.0,0.0,0.0,0.0,0.0,0.0,0.0,0.0,0.0,5.1912,0.0,0.0,5.4233,5.4233,0.0,0.0,0.0,0.0,0.0,5.7211,5.7521,5.7521,5.7521,5.7521,0.0,0.0,5.7211,5.6786,0.0,0.0,0.0,0.0,6.2877,6.571,6.69,7.0144,7.4263,7.763,8.0592,8.3131,8.5016,8.6671,8.8171,8.9517,9.0287,9.0517,8.9825,8.8902,8.6786,8.1708,7.9208,7.6553,7.1668,6.9975,6.9667,7.0475,7.1898,7.413,7.7669,8.19,8.5978,8.9402,9.2364,9.4711,9.6134,9.6288,9.6288,9.6288,9.6288,9.6288,9.6288,9.7211,9.7788,9.7788,9.8596,9.9365,10.0096,10.0289,10.0712,10.1289,10.1289,10.1289,10.1289,10.1289,10.1289,10.1289,10.1289,10.1289,10.1289,10.1289,0.0,0.0,10.1289,10.1289,10.1289,10.1289,10.1289,10.1289,10.1289,10.1289,10.1289,0.0,0.0,0.0,0.0,0.0,0.0,5.2574,5.3984,5.5078,5.5156,5.5195,5.5156,5.5078,5.3711,5.2812,0.0,0.0,0.0,0.0,0.0,0.0,0.0,0.0,0.0,0.0,0.0,0.0,5.2453,5.2453,0.0,0.0,0.0,0.0,0.0,0.0,5.3962,5.3962,5.3962,0.0,0.0,0.0,0.0,0.0,0.0,0.0,0.0,0.0,6.164,6.4084,6.6514,6.8578,7.0744,7.413,7.7476,8.0631,8.3093,8.4516,8.594,8.9056,8.944,8.8902,8.8825,8.7555,8.5016,7.99,7.7438,7.5014,7.0706,6.9129,6.8783,6.9667,7.0552,7.2514,7.6707,7.9092,8.2631,8.9017,9.0864,9.2749,9.5942,9.6288,9.6288,9.6288,9.6288,9.6288,9.6288,9.7788,9.8673,9.8673,9.9519,9.9981,10.0096,10.0789,10.1212,10.1289,10.1289,10.1289,10.1289,10.1289,10.1289,10.1289,10.1289,10.1289,10.1289,10.1289,0.0,0.0,10.1289,10.1289,10.1289,10.1289,10.1289,10.1289,10.1289,10.1289,10.1289,0.0,0.0,0.0,0.0,0.0,0.0,5.3253,5.4445,5.5508,5.6015,5.6094,5.5898,5.5351,5.4219,5.3476,5.3476,0.0,0.0,0.0,0.0,0.0,0.0,0.0,0.0,0.0,0.0,5.1061,5.1409,5.1409,0.0,0.0,0.0,0.0,0.0,0.0,5.3498,5.3498,5.3498,0.0,0.0,0.0,0.0,0.0,0.0,0.0,0.0,0.0,0.0,6.2313,6.4315,6.6444,6.8411,6.9706,7.2476,7.6322,8.1939,8.3862,8.4863,8.8248,8.894,8.844,8.7401,8.5863,8.3247,7.8169,7.5707,7.3283,6.9013,6.7859,6.7705,6.8052,6.8821,7.0475,7.3707,7.6899,8.0477,8.4747,8.8709,9.1902,9.3787,9.5365,9.6288,9.6288,9.6288,9.6711,9.7711,9.8904,9.9788,10.0289,10.0596,10.0789,10.0789,10.1096,10.1289,10.1289,10.1289,10.1289,10.1289,10.1289,10.1289,10.1289,10.1289,10.1289,10.1289,10.1289,0.0,0.0,10.1289,10.1289,10.1289,10.1289,10.1289,10.1289,10.1289,10.1289,10.1289,0.0,0.0,0.0,0.0,0.0,5.3092,5.3719,5.4861,5.5898,5.6523,5.6367,5.5898,5.5,5.4141,5.3516,5.3242,5.2891,0.0,0.0,0.0,0.0,0.0,0.0,0.0,0.0,0.0,5.1022,5.1293,5.1293,5.1409,0.0,0.0,5.2453,5.2221,0.0,0.0,0.0,0.0,0.0,0.0,0.0,0.0,0.0,0.0,0.0,0.0,0.0,0.0,0.0,0.0,0.0,6.6486,6.6962,6.8744,7.2014,7.8669,8.1323,8.2785,8.594,8.6978,8.694,8.5978,8.3901,8.1016,7.6938,7.413,7.136,6.7821,6.6898,6.6821,6.7051,6.7821,6.9244,7.1783,7.5091,7.8515,8.1823,8.6363,8.994,9.1556,9.3557,9.498,9.548,9.6211,9.725,9.8673,9.9596,10.0481,10.1289,10.1289,10.1289,10.1289,10.1289,10.1289,10.1289,10.1289,10.1289,10.1289,10.1289,10.1289,10.1289,10.1289,10.1289,10.1289,10.1289,10.1289,0.0,10.1289,10.1289,10.1289,10.1289,10.1289,10.1289,10.1289,10.1289,10.1289,0.0,0.0,0.0,0.0,0.0,0.0,5.3797,5.5407,5.6601,5.6601,5.5859,5.4961,5.4101,5.3242,5.2383,5.1484,5.2226,0.0,0.0,0.0,0.0,0.0,0.0,0.0,0.0,0.0,5.1331,5.2182,5.2182,5.2608,5.3459,5.3459,5.3033,5.2182,0.0,0.0,0.0,0.0,0.0,0.0,0.0,0.0,5.3415,0.0,0.0,0.0,0.0,0.0,0.0,0.0,0.0,0.0,0.0,6.7128,6.8013,7.236,7.5938,7.9092,8.167,8.2978,8.3862,8.4709,8.1708,7.8092,7.6399,7.2745,6.9244,6.7475,6.6474,6.6167,6.6936,6.7821,6.9244,7.1783,7.363,7.6515,8.1593,8.3824,8.6209,8.9556,9.071,9.1902,9.3557,9.6019,9.7865,9.8711,9.9596,0.0,10.1289,10.1289,10.1289,10.1289,10.1289,10.1289,10.1289,10.1289,10.1289,10.1289,10.1289,10.1289,10.1289,10.1289,10.1289,10.1289,10.1289,10.1289,0.0,10.1289,10.1289,10.1289,10.1289,10.1289,10.1289,10.1289,10.1289,10.1289,0.0,0.0,0.0,0.0,0.0,0.0,5.3797,5.5368,5.6562,5.6601,5.6367,5.5625,5.4141,5.375,5.3242,5.2344,5.2539,0.0,0.0,0.0,0.0,0.0,0.0,0.0,0.0,5.1486,5.1912,5.2182,5.273,5.3194,5.3498,5.3464,5.331,5.3072,5.242,5.1979,0.0,0.0,0.0,0.0,0.0,5.1626,5.2454,0.0,0.0,0.0,0.0,0.0,0.0,0.0,0.0,0.0,0.0,0.0,0.0,6.8744,7.1937,7.563,7.8169,7.9477,7.99,7.9015,7.6938,7.4476,7.2206,6.9744,6.759,6.6513,6.609,6.5974,6.6244,6.7436,6.9052,7.0975,7.3206,7.5861,7.9208,8.367,8.7209,8.8863,9.2402,9.4903,9.5441,9.725,9.8481,9.8788,10.0096,10.1019,10.1289,10.1289,10.1289,10.1289,10.1289,10.1289,10.1289,10.1289,10.1289,10.1289,10.1289,10.1289,10.1289,10.1289,10.1289,10.1289,10.1289,10.1289,0.0,10.1289,10.1289,10.1289,10.1289,10.1289,10.1289,10.1289,10.1289,10.1289,0.0,0.0,0.0,0.0,0.0,0.0,5.3763,5.5348,5.6523,5.6601,5.6601,5.6055,5.4648,5.4492,5.4141,5.3281,5.3476,0.0,0.0,0.0,0.0,0.0,0.0,0.0,5.0945,5.2066,5.2685,5.2685,5.3834,5.4413,5.4431,5.4396,5.4185,5.3872,5.2949,5.2352,0.0,0.0,0.0,0.0,5.0721,5.1203,5.203,0.0,0.0,0.0,0.0,0.0,0.0,0.0,0.0,0.0,0.0,0.0,0.0,0.0,6.8744,7.1629,7.4207,7.5745,7.6361,7.5322,7.3553,7.1668,7.0052,6.8129,6.6513,6.6013,6.5897,6.5897,6.5897,6.7282,6.8936,7.0629,7.3053,7.5822,7.9015,8.3516,8.7248,8.9402,9.2979,9.5326,9.5326,9.7442,9.8788,9.8788,10.0404,10.1289,10.1289,10.1289,10.1289,10.1289,10.1289,10.1289,10.1289,10.1289,10.1289,10.1289,10.1289,10.1289,10.1289,10.1289,10.1289,10.1289,10.1289,10.1289,0.0,10.1289,10.1289,10.1289,10.1289,10.1289,10.1289,10.1289,10.1289,10.1289,0.0,0.0,0.0,0.0,0.0,0.0,0.0,5.5365,5.6484,5.6562,5.6601,5.6289,5.539,5.5312,5.4961,5.4141,5.4844,0.0,0.0,0.0,0.0,0.0,0.0,0.0,5.1083,5.2647,5.3575,5.3768,5.5341,5.6116,5.6154,5.6117,5.5615,5.4747,5.3783,5.282,5.1857,0.0,0.0,0.0,5.0702,5.1203,0.0,0.0,0.0,0.0,0.0,0.0,0.0,0.0,0.0,0.0,0.0,0.0,0.0,0.0,0.0,0.0,0.0,7.1822,7.3129,7.3053,7.1283,6.9513,6.9436,6.759,0.0,6.5897,6.5897,6.5897,6.5974,6.7321,6.8975,7.0706,7.3091,7.6207,8.0554,8.3632,8.694,9.0902,9.2864,9.3826,9.371,9.6788,9.8788,9.8788,10.0404,10.1289,10.1289,10.1289,10.1289,10.1289,10.1289,10.1289,10.1289,10.1289,10.1289,10.1289,10.1289,10.1289,10.1289,10.1289,10.1289,0.0,10.1289,0.0,0.0,10.1289,10.1289,10.1289,10.1289,10.1289,10.1289,10.1289,10.1289,10.1289,0.0,0.0,0.0,0.0,0.0,0.0,0.0,0.0,0.0,0.0,5.6522,5.6288,5.5386,5.5299,5.5224,0.0,0.0,0.0,0.0,0.0,0.0,0.0,0.0,0.0,5.2829,5.3215,5.4357,5.6233,5.6656,5.7196,5.7834,5.7755,5.733,5.6522,5.494,5.3013,5.0991,5.0798,0.0,0.0,5.0702,5.0837,0.0,0.0,0.0,0.0,5.5416,5.6456,0.0,0.0,0.0,0.0,0.0,0.0,0.0,0.0,6.5051,6.5474,6.6744,0.0,6.9436,6.8783,6.8129,6.7552,0.0,6.632,6.5897,6.5897,6.5897,6.609,6.6705,6.7667,6.9167,7.1514,7.3476,7.6399,8.1323,8.7055,9.1325,9.2903,9.4634,9.5172,9.3826,9.6788,9.8788,9.8788,10.0404,10.1289,10.1289,10.1289,10.1289,10.1289,10.1289,10.1289,10.1289,10.1289,10.1289,10.1289,10.1289,10.1289,10.1289,10.1289,10.1289,0.0,0.0,0.0,10.1289,10.1289,10.1289,10.1289,10.1289,10.1289,10.1289,10.1289,10.1289,10.1289,0.0,0.0,0.0,0.0,0.0,0.0,0.0,0.0,0.0,0.0,5.6515,5.6437,5.5968,5.5915,5.5911,0.0,0.0,0.0,0.0,0.0,0.0,0.0,0.0,5.403,5.2815,5.4707,5.5962,5.656,5.7695,5.8252,5.8371,5.8308,5.7884,5.702,5.488,5.2915,5.1241,5.0856,5.0702,5.0702,5.0702,0.0,0.0,0.0,0.0,0.0,5.4664,5.5703,0.0,5.6857,5.8165,5.9781,0.0,0.0,0.0,0.0,6.4282,6.4705,6.5166,6.6244,6.7128,6.6667,6.6551,6.6436,6.6013,6.5897,6.5897,6.5897,6.6205,6.659,6.7013,6.909,7.1206,7.2552,7.5822,7.9823,8.4555,8.8748,9.1902,9.3518,9.4518,9.5057,9.4903,9.725,9.8788,9.8788,10.0404,10.1289,10.1289,10.1289,10.1289,10.1289,10.1289,10.1289,10.1289,10.1289,10.1289,10.1289,10.1289,10.1289,10.1289,10.1289,10.1289,0.0,0.0,0.0,10.1289,10.1289,10.1289,10.1289,10.1289,10.1289,10.1289,10.1289,10.1289,10.1289,0.0,0.0,0.0,0.0,0.0,0.0,0.0,0.0,0.0,0.0,0.0,0.0,0.0,0.0,0.0,0.0,0.0,0.0,0.0,0.0,0.0,0.0,5.5056,5.4805,5.2915,5.6387,5.7775,5.6829,5.883,5.9463,5.8886,5.888,5.8204,5.6896,5.4357,5.2741,5.1856,5.1048,5.0702,5.0702,5.0702,0.0,0.0,0.0,0.0,0.0,0.0,0.0,0.0,5.6511,5.7396,5.8357,5.9935,0.0,0.0,0.0,0.0,0.0,6.4551,6.5436,6.6205,6.5974,6.5897,6.5897,6.5897,6.6013,6.609,6.609,6.6744,6.7475,6.7975,7.0821,7.336,7.413,7.9208,8.4516,8.8709,9.021,9.1595,9.348,9.3941,9.4557,9.5788,9.7557,9.8673,9.8788,10.0212,10.1212,10.1289,10.1289,10.1289,10.1289,10.1289,10.1289,10.1289,10.1289,10.1289,10.1289,10.1289,10.1289,10.1289,10.1289,10.1289,10.1289,0.0,0.0,10.1289,10.1289,10.1289,10.1289,10.1289,10.1289,10.1289,10.1289,10.1289,10.1289,0.0,0.0,0.0,0.0,0.0,0.0,0.0,0.0,0.0,0.0,0.0,0.0,0.0,0.0,0.0,0.0,0.0,0.0,0.0,0.0,0.0,5.4572,5.4709,5.5307,5.6287,5.6981,5.8539,6.1151,6.0804,6.092,6.1535,6.1512,5.9896,5.6896,5.4357,5.2741,5.1856,5.1048,5.0702,5.0702,5.0702,0.0,0.0,0.0,0.0,0.0,0.0,0.0,0.0,5.5626,5.6472,5.7357,5.8357,0.0,0.0,0.0,0.0,0.0,6.4397,6.6282,6.7667,6.6244,6.5897,6.5897,6.5897,6.6436,6.6898,6.6898,6.759,6.909,7.1975,7.186,7.2706,7.7015,8.2708,8.7863,9.1402,9.3864,9.4903,9.3826,9.5018,9.5441,9.421,9.6288,9.8019,9.875,9.9712,10.0596,10.1289,10.1289,10.1289,10.1289,10.1289,10.1289,10.1289,10.1289,10.1289,10.1289,10.1289,10.1289,10.1289,10.1289,10.1289,10.1289,0.0,10.1289,10.1289,10.1289,10.1289,10.1289,10.1289,10.1289,10.1289,10.1289,10.1289,10.1289,0.0,0.0,0.0,0.0,0.0,0.0,0.0,0.0,0.0,0.0,0.0,0.0,0.0,0.0,0.0,0.0,0.0,0.0,0.0,0.0,5.5451,5.5364,5.5711,5.6036,5.6361,5.8633,6.0304,6.1396,6.1897,6.2358,6.2704,6.132,5.9627,5.7588,5.4549,5.2972,5.251,5.1241,5.0702,5.0702,0.0,0.0,0.0,0.0,0.0,0.0,0.0,0.0,0.0,0.0,5.5895,5.7049,5.7473,0.0,0.0,0.0,0.0,0.0,6.3782,6.5436,6.7205,6.7782,6.8282,6.8744,6.9206,6.959,6.986,6.986,7.0552,7.1898,7.4399,7.5707,7.8361,8.4401,8.6901,8.9133,9.2095,9.3095,9.3595,9.3672,9.4403,9.4941,9.5095,9.6557,9.7865,9.8711,9.9596,10.0481,10.1289,10.1289,10.1289,10.1289,10.1289,10.1289,10.1289,10.1289,10.1289,10.1289,10.1289,10.1289,10.1289,10.1289,10.1289,10.1289,0.0,10.1289,10.1289,10.1289,10.1289,10.1289,10.1289,10.1289,10.1289,10.1289,10.1289,10.1289,0.0,0.0,0.0,0.0,0.0,0.0,0.0,0.0,0.0,0.0,0.0,0.0,0.0,0.0,0.0,0.0,0.0,0.0,0.0,5.5551,5.5365,5.5825,5.6788,5.6973,5.6319,6.0089,6.1858,6.1396,6.2897,6.3512,6.3243,6.0704,5.9088,5.8165,5.4741,5.3203,5.3087,5.1395,5.0702,5.0702,0.0,0.0,0.0,0.0,0.0,0.0,0.0,0.0,0.0,0.0,0.0,0.0,0.0,0.0,0.0,5.9435,6.132,6.332,6.332,6.4859,6.7013,6.9167,6.986,7.0437,7.2129,7.2514,7.2629,7.3014,7.4091,7.5438,7.6938,7.9977,8.4055,8.944,8.9902,9.0479,9.3018,9.2826,9.2864,9.4172,9.4326,9.4826,9.6172,9.6865,9.7557,9.8442,9.9288,10.0212,10.1019,10.1212,10.1289,10.1289,10.1289,10.1289,10.1289,10.1289,10.1289,10.1289,10.1289,10.1289,10.1289,10.1289,10.1289,10.1289,10.1289,10.1289,10.1289,10.1289,10.1289,10.1289,10.1289,10.1289,10.1289,10.1289,10.1289,10.1289,0.0,0.0,0.0,0.0,0.0,0.0,0.0,0.0,0.0,0.0,0.0,0.0,0.0,0.0,0.0,0.0,0.0,0.0,0.0,5.5932,5.5787,5.5707,5.7319,5.8165,5.8127,6.0742,6.2435,6.3128,6.4051,6.4089,6.3243,6.0704,5.9088,5.8165,5.4741,5.3203,5.3087,5.1395,5.0702,5.0702,5.0702,0.0,0.0,0.0,0.0,0.0,0.0,0.0,0.0,0.0,0.0,0.0,0.0,0.0,5.855,5.9281,6.132,6.332,6.332,6.5705,6.8475,6.9436,6.8513,6.8436,7.2476,7.3399,7.386,7.5399,7.7669,7.9631,8.0554,8.3478,8.617,8.7478,9.021,9.3133,9.5672,9.598,9.598,9.6095,9.6095,9.6172,9.6288,9.6365,9.6711,9.7519,9.8404,9.925,10.0096,10.0904,10.1289,10.1289,10.1289,10.1289,10.1289,10.1289,10.1289,10.1289,10.1289,10.1289,10.1289,10.1289,10.1289,10.1289,10.1289,10.1289,10.1289,10.1289,10.1289,10.1289,10.1289,10.1289,10.1289,10.1289,10.1289,10.1289,0.0,0.0,0.0,0.0,0.0,0.0,0.0,0.0,0.0,0.0,0.0,0.0,0.0,0.0,0.0,0.0,0.0,0.0,0.0,5.593,5.5845,5.5724,5.7357,5.8319,5.8319,6.0781,6.2474,6.332,6.4705,6.4705,6.3281,6.1243,5.9588,5.8165,5.528,5.3703,5.3126,5.1972,5.1164,5.0702,5.0702,5.0702,0.0,0.0,0.0,0.0,0.0,0.0,0.0,0.0,5.3587,5.4626,5.5241,5.6742,5.8473,5.9281,6.132,6.3435,6.3974,6.659,6.9552,7.0898,7.1168,7.2052,7.5745,7.7438,7.84,7.9054,8.1208,8.3247,8.4055,8.7825,9.0787,9.0594,9.2518,9.4557,9.6095,9.6288,9.6288,9.6288,9.6288,9.6288,9.6288,9.6288,9.6634,9.7442,9.7827,9.8596,9.9981,10.0404,10.0789,10.1289,10.1289,10.1289,10.1289,10.1289,10.1289,10.1289,10.1289,10.1289,10.1289,10.1289,10.1289,10.1289,10.1289,10.1289,10.1289,10.1289,10.1289,10.1289,10.1289,10.1289,10.1289,10.1289,10.1289,10.1289,0.0,0.0,0.0,0.0,0.0,0.0,0.0,0.0,0.0,0.0,0.0,0.0,0.0,0.0,0.0,0.0,0.0,0.0,5.5913,5.5882,5.5789,5.5703,5.7357,5.8165,5.7896,6.0396,6.2089,6.2935,6.4359,6.4359,6.2897,6.1166,5.9627,5.8204,5.5626,5.401,5.3126,5.2279,5.1433,5.0702,5.0702,5.0702,0.0,0.0,0.0,0.0,0.0,0.0,0.0,0.0,5.3087,5.4164,5.4703,5.6434,5.8473,5.9281,6.1704,6.432,6.5166,6.7513,7.0244,7.2437,7.363,7.5322,7.9208,8.0631,8.1477,8.2824,8.4709,8.644,8.7517,9.0787,9.3133,9.2595,9.4134,9.5634,9.6211,9.6288,9.6288,9.6288,9.6288,9.6288,9.6288,9.6288,9.6519,9.7096,9.7365,9.8134,9.9596,9.9942,10.0481,10.1289,10.1289,10.1289,10.1289,10.1289,10.1289,10.1289,10.1289,10.1289,10.1289,10.1289,10.1289,10.1289,10.1289,10.1289,10.1289,10.1289,10.1289,10.1289,10.1289,10.1289,10.1289,10.1289,10.1289,10.1289,0.0,0.0,0.0,0.0,0.0,0.0,0.0,0.0,0.0,0.0,0.0,0.0,0.0,0.0,0.0,0.0,0.0,0.0,5.5896,5.5788,5.5703,5.5703,5.7357,5.7896,5.7011,5.9473,6.1204,6.2089,6.2897,6.2897,6.205,6.0319,5.9088,5.8204,5.5626,5.401,5.3126,5.2279,5.1433,5.0702,5.0702,5.0702,5.0702,0.0,0.0,0.0,0.0,0.0,0.0,0.0,5.3203,5.351,5.5164,5.6896,5.8473,5.9281,6.2512,6.6051,6.6859,6.8398,7.0552,7.386,7.5399,7.74,8.2477,8.2362,8.2362,8.6594,8.8132,8.9248,9.0902,9.1941,9.2518,9.2518,9.4634,9.6288,9.6288,9.6288,9.6288,9.6288,9.6288,9.6288,9.6288,9.6288,9.6288,9.6288,9.7057,9.7865,9.875,9.9596,10.0481,10.1289,10.1289,10.1289,10.1289,10.1289,10.1289,10.1289,10.1289,10.1289,10.1289,10.1289,10.1289,10.1289,10.1289,10.1289,10.1289,10.1289,10.1289,10.1289,10.1289,10.1289,10.1289,10.1289,10.1289,10.1289,0.0,0.0,0.0,0.0,0.0,0.0,0.0,0.0,0.0,0.0,0.0,0.0,0.0,0.0,0.0,0.0,0.0,0.0,5.492,5.5399,5.5703,5.5703,5.678,5.755,5.7896,5.9204,6.0589,6.2089,6.2897,6.2897,6.205,6.0319,5.9088,5.8204,5.6242,5.4549,5.3164,5.2933,5.201,5.0702,5.0702,5.0702,5.0702,0.0,0.0,0.0,0.0,0.0,0.0,0.0,0.0,0.0,5.4511,5.6434,5.8588,6.0012,6.2166,6.4512,6.6551,6.9667,7.2745,7.4322,7.7592,8.1285,8.4593,8.544,8.6555,9.021,9.1171,9.1518,9.2018,9.3787,9.4788,9.3557,9.5018,9.6288,9.6288,9.6288,9.6288,9.6288,9.6288,9.6288,9.6288,9.6288,9.6288,9.6288,9.6519,9.7019,9.7827,9.8711,9.9558,10.0404,10.1019,10.1289,10.1289,10.1289,10.1289,10.1289,10.1289,10.1289,10.1289,10.1289,10.1289,10.1289,10.1289,10.1289,10.1289,10.1289,10.1289,10.1289,10.1289,10.1289,10.1289,10.1289,10.1289,10.1289,0.0,0.0,0.0,0.0,0.0,0.0,0.0,0.0,0.0,0.0,5.3398,5.3429,0.0,0.0,0.0,0.0,0.0,0.0,5.4531,5.5241,5.5703,5.5703,5.6511,5.7396,5.828,5.8088,5.8858,6.0589,6.1089,6.1089,6.055,5.9165,5.8242,5.7703,5.6319,5.4972,5.3703,5.3356,5.2433,5.1164,5.0818,5.0702,5.0702,0.0,0.0,0.0,0.0,0.0,0.0,0.0,0.0,0.0,5.4587,5.6511,5.8781,6.1127,6.3012,6.5166,6.9052,7.2014,7.4591,7.7092,8.0554,8.4286,8.7825,8.9056,9.021,9.2941,9.348,9.3595,9.3941,9.5249,9.598,9.4903,9.5595,9.6288,9.6288,9.6288,9.6288,9.6288,9.6288,9.6288,9.6288,9.6288,9.6288,9.6288,9.6288,9.6634,9.7442,9.8327,9.9211,10.0096,10.0904,10.1289,10.1289,10.1289,10.1289,10.1289,10.1289,10.1289,10.1289,10.1289,10.1289,10.1289,10.1289,10.1289,10.1289,10.1289,10.1289,10.1289,10.1289,10.1289,10.1289,10.1289,10.1289,10.1289,0.0,0.0,0.0,0.0,0.0,0.0,0.0,0.0,0.0,5.3155,5.3133,5.3133,0.0,0.0,0.0,5.2992,5.378,5.428,5.4395,5.5126,5.5626,5.5703,5.6472,5.7165,5.7819,5.6357,5.6319,5.7857,5.8088,5.8204,5.828,5.7396,5.6973,5.6934,5.6088,5.5241,5.4434,5.3587,5.2702,5.1856,5.101,5.0702,5.0702,5.0702,0.0,0.0,0.0,0.0,0.0,0.0,0.0,0.0,5.5164,5.6896,5.8934,6.2127,6.4397,6.7128,7.2822,7.463,7.613,8.1054,8.3901,8.6748,9.1518,9.2672,9.3172,9.4672,9.5057,9.5365,9.6134,9.6288,9.6288,9.6288,9.6288,9.6288,9.6288,9.6288,9.6288,9.6288,9.6288,9.6288,9.6288,9.6288,9.6288,9.6288,9.6288,9.6634,9.7365,9.8211,9.9058,9.9942,10.0789,10.1212,10.1289,10.1289,10.1289,10.1289,10.1289,10.1289,10.1289,10.1289,10.1289,10.1289,10.1289,10.1289,10.1289,10.1289,10.1289,10.1289,10.1289,10.1289,10.1289,10.1289,10.1289,10.1289,0.0,0.0,0.0,0.0,0.0,0.0,0.0,0.0,5.126,5.1279,5.1279,5.1279,5.1279,5.1279,0.0,5.1241,5.201,5.2741,5.3433,5.428,5.5049,5.5665,5.5857,5.5434,5.4318,5.4587,5.4626,5.4318,5.628,5.7627,5.828,5.7396,5.6973,5.6934,5.6088,5.5241,5.4434,5.3587,5.2702,5.1856,5.101,5.0702,5.0702,5.0702,5.0702,0.0,0.0,0.0,0.0,0.0,0.0,0.0,5.5164,5.6896,5.8704,6.0742,6.3512,6.6744,7.0667,7.4168,7.763,8.1362,8.6094,9.0479,9.2903,9.398,9.4557,9.4903,9.5518,9.6095,9.6288,9.6288,9.6288,9.6288,9.6288,9.6288,9.6288,9.6288,9.6288,9.6288,9.6288,9.6288,9.6288,9.6288,9.6288,9.6288,9.6288,9.6365,9.6557,9.7326,9.8173,9.9058,9.9904,10.0712,10.1289,10.1289,10.1289,0.0,10.1289,10.1289,10.1289,10.1289,10.1289,10.1289,10.1289,10.1289,10.1289,10.1289,10.1289,10.1289,10.1289,10.1289,10.1289,10.1289,10.1289,10.1289,0.0,0.0,0.0,0.0,0.0,0.0,0.0,0.0,5.1125,5.0741,5.0702,5.0702,5.0702,5.0702,0.0,0.0,5.1433,5.2087,5.2549,5.378,5.4703,5.5126,5.5126,5.4511,5.3241,5.3241,5.3241,5.3203,5.4126,5.5203,5.6472,5.6395,5.6357,5.6357,5.5895,5.5472,5.4972,5.3741,5.2933,5.2472,5.1625,5.1279,5.1318,5.1741,5.1895,5.1895,5.1895,0.0,0.0,0.0,0.0,0.0,0.0,0.0,5.8165,6.0666,6.2974,6.5743,7.0783,7.4361,7.7977,8.3401,8.8325,9.2133,9.3403,9.4711,9.5634,9.5634,9.598,9.6288,9.6288,9.6288,9.6288,9.6288,9.6288,9.6288,9.6288,9.6288,9.6288,9.6288,9.6288,9.6288,9.6288,9.6288,9.6288,9.6288,9.6288,9.6288,9.6288,9.7057,9.7904,9.875,9.9635,10.0481,10.1289,10.1289,10.1289,10.1289,10.1289,10.1289,10.1289,10.1289,10.1289,10.1289,10.1289,10.1289,10.1289,10.1289,10.1289,10.1289,10.1289,10.1289,10.1289,10.1289,10.1289,10.1289,0.0,0.0,0.0,0.0,0.0,0.0,0.0,0.0,0.0,5.0779,5.0702,5.0702,5.0702,5.0702,5.0702,0.0,0.0,0.0,5.1895,5.3549,5.4357,5.4049,5.4203,5.3818,5.2779,5.2049,5.2049,5.2779,5.2202,5.2664,5.4087,5.5049,5.5472,5.5511,5.5626,5.5703,5.5588,5.4087,5.3433,5.3356,5.2472,5.2125,5.2202,5.2933,5.3203,5.3203,5.3203,5.3203,5.3318,5.4203,0.0,0.0,0.0,0.0,5.7588,6.0742,6.2435,6.4666,7.0937,7.4822,7.8746,8.567,8.9979,9.271,9.3518,9.4941,9.6134,9.6288,9.6288,9.6288,9.6288,9.6288,9.6288,9.6288,9.6288,9.6365,9.648,9.6403,9.6365,9.648,9.6365,9.6288,9.6288,9.6288,9.6288,9.6288,9.6288,9.6288,9.6288,9.6942,9.7673,9.8557,9.9404,10.0289,10.1096,10.1212,10.1289,10.1289,10.1289,10.1289,10.1289,10.1289,10.1289,10.1289,10.1289,10.1289,10.1289,10.1289,10.1289,10.1289,10.1289,10.1289,10.1289,10.1289,10.1289,10.1289,0.0,0.0,0.0,0.0,0.0,0.0,0.0,0.0,0.0,0.0,5.0702,5.0702,5.0702,5.0702,5.0702,5.0702,5.0779,5.1164,5.1856,0.0,0.0,5.2318,5.2972,5.2626,5.1048,5.0933,5.0933,5.101,5.1625,5.201,5.2279,5.3895,5.4664,5.4703,5.5395,5.5703,5.5626,5.4703,5.4318,5.4241,5.3395,5.3049,5.3049,5.3164,5.3203,5.3203,5.3203,5.3203,5.3318,5.4203,5.4511,0.0,0.0,0.0,5.7357,5.9281,6.1512,6.4166,6.8052,7.513,8.2401,8.6401,8.9979,9.271,9.3518,9.4441,9.5403,9.6134,9.6288,9.6288,9.6288,9.6288,9.6288,9.6288,9.6288,9.6557,9.725,9.6749,9.6557,9.725,9.6711,9.6288,9.6288,9.6288,9.6288,9.6288,9.6288,9.6288,9.6288,9.6403,9.6826,9.7634,9.8519,9.9404,10.0289,10.0981,10.1289,10.1289,10.1289,10.1289,10.1289,10.1289,10.1289,10.1289,10.1289,10.1289,10.1289,10.1289,10.1289,10.1289,10.1289,10.1289,10.1289,10.1289,10.1289,10.1289,0.0,0.0,0.0,0.0,0.0,0.0,0.0,0.0,0.0,0.0,0.0,5.0702,5.0702,5.0702,5.0702,5.0702,5.0702,5.1048,5.1856,5.2626,5.2702,5.1933,5.2279,5.1933,5.0741,5.0702,5.0702,5.0702,5.1048,5.1241,5.1241,5.2472,5.3549,5.4549,5.5318,5.5703,5.5665,5.4857,5.4511,5.4472,5.4087,5.4511,5.528,5.478,5.5203,5.5934,5.4934,5.4587,5.4664,5.5049,5.5164,5.5241,5.5588,0.0,0.0,0.0,5.9896,6.3281,6.9552,7.563,8.1208,8.5593,8.8902,9.1402,9.271,9.4057,9.5095,9.548,9.5942,9.6288,9.6288,9.6288,9.6288,9.6288,9.6673,9.7096,9.7442,9.7634,9.7827,9.8173,9.748,9.698,9.698,9.6557,9.6288,0.0,9.6288,9.6288,9.6288,9.6288,9.6673,9.748,9.7865,9.8711,10.0096,10.0481,10.0904,10.1289,10.1289,10.1289,10.1289,10.1289,10.1289,10.1289,10.1289,10.1289,10.1289,10.1289,10.1289,10.1289,10.1289,10.1289,10.1289,10.1289,10.1289,10.1289,0.0,0.0,0.0,0.0,0.0,0.0,0.0,0.0,0.0,0.0,0.0,5.0702,5.0702,0.0,0.0,0.0,5.0702,5.0933,5.1548,5.1779,5.1818,5.1587,5.1779,5.151,5.0702,5.0702,5.0702,5.0702,5.0702,5.0702,5.0702,5.151,5.2587,5.3895,5.4934,5.5395,5.5357,5.4972,5.478,5.4857,5.528,5.6357,5.7627,5.7396,5.8396,5.9665,5.7703,5.7126,5.7203,5.6319,5.6011,5.5972,5.578,5.5703,0.0,0.0,0.0,6.2435,6.986,7.4322,7.8169,8.3516,8.6901,8.9517,9.1672,9.3287,9.448,9.4903,9.5518,9.6057,9.6249,9.6288,9.6288,9.6288,9.698,9.7596,9.7788,9.8404,9.8865,9.9096,9.8365,9.7827,9.7827,9.7096,9.6596,0.0,9.6442,9.6288,9.6288,9.6288,9.6596,9.7173,9.7403,9.8134,9.9442,9.9865,10.0481,10.1289,10.1289,10.1289,10.1289,10.1289,10.1289,10.1289,10.1289,10.1289,10.1289,10.1289,10.1289,10.1289,10.1289,10.1289,10.1289,10.1289,10.1289,10.1289,0.0,0.0,0.0,0.0,0.0,0.0,0.0,0.0,0.0,0.0,0.0,5.0702,5.0702,5.0702,5.0702,5.0702,5.0702,5.0702,5.0741,5.1471,5.1548,5.0779,5.151,0.0,5.0702,5.0702,5.0702,5.0702,5.0702,5.0702,5.0702,5.151,5.1972,5.2125,5.3818,5.4549,5.4626,5.5318,5.5626,5.578,5.7434,5.8627,5.955,6.1166,6.282,6.3935,6.1435,6.105,6.1281,5.8011,5.6934,5.678,5.5972,5.5703,5.5857,0.0,0.0,0.0,6.6205,6.9937,7.3937,7.9862,8.3862,8.7171,9.0517,9.1979,9.3095,9.4672,9.5018,9.5326,9.6134,9.6288,9.6288,9.6288,9.698,9.7788,9.8634,9.875,9.9096,9.9904,9.925,9.8711,9.8711,9.7942,0.0,0.0,9.6749,9.6288,9.6288,9.6288,9.6326,9.6365,9.7096,9.7557,9.7634,9.925,10.0481,10.1289,10.1289,10.1289,10.1289,10.1289,10.1289,10.1289,10.1289,10.1289,10.1289,10.1289,10.1289,10.1289,10.1289,10.1289,10.1289,10.1289,10.1289,10.1289,0.0,0.0,0.0,0.0,0.0,0.0,0.0,0.0,0.0,0.0,0.0,0.0,0.0,5.2318,5.2087,5.151,5.101,5.0702,5.0702,5.0971,5.101,5.0702,5.0971,5.0971,5.0702,5.0702,5.0702,5.0702,5.0702,5.0702,5.0702,5.0971,5.1125,5.1202,5.2895,5.3972,5.4511,5.4818,5.5549,5.6665,5.8396,6.055,6.2704,6.2281,6.4512,6.7398,6.3705,6.2627,6.2589,6.0858,5.8819,5.6934,5.6626,5.6126,5.5857,5.6742,5.8396,6.0896,6.5166,6.8013,7.1206,7.7169,8.0785,8.3785,8.7171,8.9863,9.2133,9.3826,9.4595,9.5249,9.6134,9.6288,9.648,9.698,9.7788,9.8634,9.9519,10.0096,10.0519,10.0789,10.0096,9.9635,9.9635,9.8513,0.0,0.0,0.0,9.6591,9.6019,9.6375,9.6274,9.5741,9.6366,9.698,9.748,9.8673,9.9673,10.0481,10.0481,10.0789,10.1289,10.1289,10.1289,10.1289,10.1289,10.1289,10.1289,10.1289,10.1289,10.1289,10.1289,10.1289,10.1289,10.1289,10.1289,10.1289,0.0,0.0,0.0,0.0,0.0,0.0,0.0,0.0,5.3549,5.3241,0.0,0.0,0.0,0.0,5.2972,5.2395,5.1587,5.1087,5.1087,5.0856,5.0702,5.0702,5.0702,5.0702,5.0702,5.0971,5.0971,5.0702,5.0971,5.0971,5.0702,5.0702,5.0702,5.0741,5.1856,5.2972,5.4087,5.4664,5.5703,5.7242,6.0089,6.2397,6.4205,6.4512,6.6936,6.9667,6.6244,6.5551,6.609,6.4666,6.2704,6.0627,5.9473,5.7742,5.6319,5.7165,5.8204,5.9858,6.3243,6.5628,6.8436,7.3822,7.7053,8.0054,8.4286,8.744,9.0133,9.2402,9.3557,9.4518,9.5634,9.5865,9.6134,9.698,9.8057,9.8981,9.9558,10.0596,10.1289,10.1289,10.0789,10.0481,10.0481,0.0,0.0,0.0,0.0,0.0,9.6257,9.6615,9.6562,9.5866,9.6403,9.698,9.748,9.8057,9.8788,9.9673,9.9942,10.0404,10.0904,10.1212,10.1289,10.1289,10.1289,10.1289,10.1289,10.1289,10.1289,10.1289,10.1289,10.1289,10.1289,10.1289,10.1289,10.1289,0.0,0.0,0.0,0.0,0.0,0.0,5.4664,5.4549,5.4241,5.3395,0.0,0.0,0.0,0.0,0.0,5.3241,5.2433,5.1933,5.1895,5.1164,5.0702,5.0702,5.0702,5.0702,5.0702,5.1471,5.1471,5.0702,5.1471,5.1471,5.0702,5.0702,5.0702,5.0702,5.0702,5.1625,5.3318,5.4972,5.6203,5.7511,6.2627,6.4205,6.3974,6.8205,7.0398,7.0975,6.9244,7.0206,7.1937,6.9398,6.8436,6.7667,6.4282,6.0358,5.7242,5.805,5.8319,5.8704,0.0,0.0,0.0,6.9706,7.2706,7.6169,8.2016,8.4747,8.6978,9.0402,9.1825,9.2979,9.4634,9.4941,9.5249,9.6095,9.7634,9.875,9.8788,10.0212,10.1212,10.1289,10.1289,10.1289,0.0,0.0,0.0,0.0,9.7896,9.709,9.6999,9.7052,9.6971,9.6738,9.7247,9.7519,9.7519,9.7519,9.7904,9.875,9.9596,9.9981,10.0096,10.0904,10.1289,10.1289,10.1289,10.1289,10.1289,10.1289,10.1289,10.1289,10.1289,10.1289,10.1289,10.1289,10.1289,10.1289,0.0,0.0,0.0,0.0,0.0,5.5626,5.5395,5.5357,5.528,0.0,0.0,0.0,5.5011,5.4472,5.4126,5.4126,5.3356,5.2587,5.1933,5.1702,5.1318,5.0741,5.0702,5.0702,5.0702,5.0933,5.0933,5.0702,5.0933,5.0933,5.0702,5.0702,5.0702,5.0702,5.0702,5.1625,5.328,5.4357,5.6357,5.9242,6.4359,6.7013,6.8321,7.1937,7.5399,7.79,7.4938,7.4361,7.4668,7.2745,6.8821,6.4243,6.1435,5.9742,5.8742,5.8396,5.8704,5.9396,6.0512,0.0,0.0,0.0,0.0,0.0,7.6515,8.0862,8.5093,8.7863,9.0094,9.2056,9.3749,9.4057,9.4134,9.4364,9.6365,9.8096,9.8711,9.9211,9.9712,10.0404,10.0404,0.0,0.0,0.0,0.0,0.0,9.7894,9.6674,9.5096,9.5375,9.6226,9.754,9.7719,9.7702,9.7519,9.7519,9.7634,9.7865,9.8096,9.8557,9.9173,9.9981,10.0404,10.0481,10.1019,10.1289,10.1289,10.1289,10.1289,10.1289,10.1289,10.1289,10.1289,10.1289,10.1289,10.1289,0.0,0.0,5.5703,5.5703,5.5703,5.5703,5.5703,5.5703,5.5703,0.0,0.0,0.0,5.5703,5.528,5.5011,5.5011,5.4241,5.3549,5.301,5.2664,5.2087,5.1241,5.1202,5.1048,5.0702,5.101,5.1048,5.0702,5.1048,5.101,5.0702,5.0702,5.0702,5.0702,5.1048,5.1933,5.3318,5.4895,5.7088,5.9973,6.5436,6.8244,6.9552,7.3283,7.6707,7.9285,7.763,7.7746,7.8477,7.7515,7.2668,6.6705,6.4859,6.232,5.9935,5.9473,5.9435,5.9627,6.0127,6.1512,6.3205,6.4936,0.0,0.0,7.4399,7.8207,8.2093,8.6055,8.8325,9.0248,9.2287,9.2672,9.2903,9.3595,9.4941,9.6365,9.7596,9.8365,9.8981,9.9481,9.9558,0.0,0.0,9.9726,9.9002,9.7916,9.7308,9.6269,9.4801,9.5233,9.5913,9.6679,9.7125,9.7145,9.6631,9.6866,9.7019,9.7019,9.7326,9.7788,9.8288,9.9173,9.9558,9.9558,10.0096,10.0481,10.0789,10.0789,10.1019,10.1289,10.1289,10.1289,10.1289,10.1289,10.1289,10.1289,0.0,0.0,5.5703,5.5703,5.5703,5.5742,5.5818,5.5818,5.5857,0.0,5.5972,5.5934,5.5857,5.5818,5.5818,5.5818,5.5088,5.4626,5.4626,5.3818,5.2972,5.2087,5.1972,5.1587,5.0856,5.1471,5.1433,5.0702,5.1433,5.1471,5.0818,5.0818,5.0856,5.101,5.1741,5.2549,5.351,5.5972,5.8204,6.055,6.6051,6.8552,6.9436,7.3668,7.6515,7.8361,7.9092,8.0785,8.2631,8.2054,7.7823,7.2514,7.1206,6.6705,6.1781,6.1127,6.0512,6.0012,5.9704,6.0858,6.2474,6.4051,6.5166,0.0,7.363,7.5976,7.84,8.3747,8.5747,8.7286,8.9633,9.0171,9.071,9.2172,9.2749,9.371,9.5749,9.7288,9.8288,9.8481,0.0,0.0,9.8788,9.8312,9.7753,9.711,9.6328,9.5745,9.5321,9.5769,9.5765,9.5187,9.6161,9.6265,9.5471,9.6015,9.6213,9.6098,9.6905,9.7251,9.7289,9.825,9.8673,9.8673,9.875,9.925,9.9942,9.9942,10.0481,10.1289,10.1289,10.1289,10.1289,10.1212,10.1212,10.1212,5.5703,5.5703,5.5703,5.5703,5.5703,5.5934,5.6626,5.6742,5.7011,5.7703,5.778,5.7511,5.6819,5.6742,5.6742,5.6742,5.5972,5.5472,5.5472,5.4703,5.3857,5.2972,5.2279,5.1856,5.1664,5.1202,5.0856,5.0702,5.0856,5.1202,5.1664,5.1664,5.2049,5.2702,5.2895,5.3433,5.4357,5.6203,5.955,6.382,6.632,6.9436,7.2976,7.7207,8.1131,8.4401,8.4555,8.4939,8.4747,8.0631,7.7938,7.5553,7.1283,6.9475,6.8013,6.3243,6.2666,6.3166,6.1089,6.132,6.232,6.332,6.4743,0.0,6.8398,7.1629,7.4745,7.6553,7.9246,8.167,8.2862,8.3593,8.4132,8.4478,8.6824,8.994,9.3672,9.448,9.5211,9.6634,0.0,0.0,9.8673,9.8673,9.8086,9.6883,9.521,9.4322,9.4466,9.4533,9.5044,9.6013,9.625,9.6193,9.5781,9.5931,9.5627,9.4942,9.5516,9.5806,9.5844,9.7173,9.775,9.7788,9.8481,9.8904,9.9058,9.9058,9.9942,10.1289,10.1289,10.1289,10.1212,10.0596,10.0289,10.0212,5.5703,5.5703,5.5703,5.5703,5.6049,5.6511,5.6934,5.7357,5.7819,5.8242,5.8319,5.8127,5.7703,5.7665,5.7665,5.7665,5.6857,5.6357,5.6357,5.5549,5.4703,5.3895,5.3433,5.301,5.2549,5.2164,5.1741,5.1318,5.1318,5.151,5.1895,5.1895,5.2818,5.4434,5.4049,5.4818,5.6472,5.7703,6.0204,6.3589,6.6551,7.0821,7.5745,7.9169,8.2785,8.6209,8.7094,8.7401,8.6863,8.3439,8.0323,7.7438,7.4899,7.2629,7.0167,6.6359,6.5513,6.5282,6.2743,6.205,6.2397,6.3628,6.4282,0.0,0.0,7.0052,7.2206,7.4284,7.6399,7.8284,7.9554,8.0477,8.1208,8.1631,8.3824,8.594,8.7248,9.071,9.3557,9.4864,0.0,0.0,9.6134,9.5903,9.5598,9.549,9.4432,9.3867,9.3987,9.3742,9.3928,9.4622,9.4894,9.4988,9.4819,9.5143,9.5021,9.4604,9.5142,9.5407,9.5407,9.6442,9.6903,9.6942,9.7365,9.7788,9.8134,9.8134,9.8904,10.0096,10.0096,10.0096,10.0019,9.9596,9.9442,9.9365,5.5703,5.5703,5.5703,5.5703,5.6395,5.7049,5.7203,5.7973,5.8665,5.8973,5.9473,5.9781,5.9781,6.0204,6.0435,6.0281,5.9435,5.8742,5.8242,5.7242,5.6319,5.5511,5.4857,5.4318,5.3933,5.3472,5.2856,5.2164,5.2164,5.2241,5.2395,5.2395,5.3587,5.5703,5.5357,5.628,5.8127,5.9435,6.1396,6.3897,6.7628,7.2206,7.7092,7.9823,8.3131,8.6594,8.8479,8.9056,8.8632,8.6748,8.3247,7.9515,7.8361,7.563,7.2283,6.9283,6.8359,6.7628,6.4436,6.3089,6.2935,6.4474,6.4205,6.4551,0.0,0.0,0.0,7.2668,7.3937,7.4938,7.6322,7.7284,7.7977,7.8323,0.0,0.0,0.0,8.5632,0.0,9.1523,0.0,0.0,0.0,9.2482,9.2757,9.407,9.3591,9.3388,9.376,9.3301,9.2988,9.2988,9.3389,9.3657,9.3657,9.4048,9.4287,9.4287,9.4855,9.5096,9.5096,9.57,9.5981,9.5981,9.6098,9.652,9.7097,9.7212,9.7673,9.8365,9.8673,9.8788,9.8788,9.8596,9.8557,9.8519,5.5703,5.5703,5.5703,5.5703,5.6395,5.7242,5.805,5.8858,5.9935,6.1473,6.3628,6.5051,6.5051,6.7051,6.809,6.7321,6.6474,6.4974,6.2743,6.1089,5.9819,5.8973,5.6088,5.5164,5.6549,5.4357,5.3164,5.3049,5.3049,5.3433,5.4203,5.4203,5.4741,5.5742,5.7203,5.7588,5.7357,6.0473,6.4512,6.9013,7.0975,7.3053,7.5361,7.8669,8.2978,8.7555,9.0017,9.0441,8.9402,8.694,8.5247,8.3247,7.7938,7.7977,7.8438,7.0667,7.0475,7.1552,6.5974,6.4397,6.4551,6.5513,6.5089,6.4974,6.6936,0.0,6.7513,6.7859,0.0,6.9321,6.9513,0.0,0.0,0.0,0.0,0.0,7.4514,7.8323,8.1958,8.3906,0.0,0.0,0.0,9.0722,9.2142,9.4032,9.2299,9.1929,9.3685,9.3301,9.2988,9.2988,9.3054,9.3082,9.3082,9.3146,9.3211,9.3211,9.3717,9.3991,9.3991,9.4552,9.4806,9.4806,9.5318,9.5571,9.5648,9.6213,9.648,9.6749,9.8211,9.8788,9.8711,9.7942,9.7634,9.7557,5.5703,5.5703,5.5857,5.6357,5.7165,5.805,5.8858,6.055,6.2166,6.3397,6.4474,6.532,6.582,6.5936,6.655,6.7889,6.6787,6.5753,0.0,6.3044,6.1364,6.0319,5.7473,5.628,5.6973,5.5472,5.4434,5.3933,5.3933,5.4126,5.4511,5.4511,5.5472,5.7242,5.8473,6.0008,6.1923,6.4629,6.6988,6.9289,7.3484,7.5232,7.6002,8.1392,8.5843,8.9228,9.002,9.0007,8.9473,0.0,8.578,8.3445,8.211,8.042,7.8216,7.4817,7.3991,7.3245,6.8783,6.7725,6.765,6.6807,6.6496,6.6423,6.6384,6.6397,6.6397,6.6397,0.0,0.0,0.0,0.0,0.0,0.0,7.0475,0.0,0.0,0.0,7.807,0.0,0.0,0.0,0.0,0.0,0.0,0.0,0.0,9.2682,9.3477,9.3476,9.3301,9.2988,9.2988,9.2988,9.2988,9.2988,9.2988,9.2988,9.3536,9.3798,9.3798,9.4341,9.4604,9.4604,9.5134,9.5363,9.5451,9.5981,9.6251,9.6365,9.7057,9.7365,9.7326,9.6942,9.6788,9.6749,5.5742,5.5703,5.5972,5.6857,5.7703,5.8819,6.0319,6.232,6.4051,6.5128,6.5781,6.655,6.7513,6.7505,6.8258,7.0276,6.9645,6.9005,0.0,6.595,6.4092,6.357,5.9763,5.8043,5.887,5.7043,5.5665,5.4818,5.4818,5.4818,5.4818,5.4818,5.589,5.7881,5.8989,6.144,6.4889,6.7592,6.9413,7.0914,7.6254,7.8788,7.9903,8.4824,8.8305,9.053,9.0352,9.0283,9.0093,8.8794,8.6564,0.0,8.4901,8.2596,7.9466,7.8752,7.7833,7.6202,7.2302,7.1197,7.0686,6.8513,6.7859,6.7553,6.6901,6.6381,6.6101,6.6179,6.6513,0.0,0.0,0.0,6.7475,6.6782,0.0,6.8859,6.6936,7.0036,7.3898,0.0,0.0,0.0,0.0,0.0,0.0,0.0,0.0,0.0,9.3514,9.3481,9.3372,9.3237,9.3119,9.2988,9.2988,9.2988,9.2988,9.2922,9.3389,9.3597,9.368,9.4122,9.4432,9.4538,9.5029,9.5265,9.5356,9.5821,9.6136,9.6251,9.6251,9.6251,9.6288,9.6288,9.6288,9.6288,5.5857,5.5703,5.5972,5.6857,5.7703,5.9396,6.2704,6.3974,6.5166,6.6782,6.8838,7.0616,7.1871,7.5547,7.783,7.7529,7.8476,7.777,7.4547,0.0,6.931,7.0419,6.337,6.0764,6.3642,5.9268,5.6511,5.5665,5.5665,5.5665,5.5665,5.5665,5.5992,5.6625,5.8626,6.0961,6.3754,6.7918,7.1937,7.5872,7.978,8.4001,8.8047,0.0,8.9335,9.0965,9.1761,0.0,0.0,8.9124,8.8215,0.0,0.0,0.0,8.4892,8.1665,8.1817,8.1875,7.6503,7.4402,7.3181,7.0801,6.9005,6.8012,6.8814,6.7706,6.6613,6.6999,6.6436,6.5936,6.5936,6.5974,6.5166,6.2704,6.4397,0.0,0.0,6.4928,6.7814,7.0342,0.0,0.0,0.0,0.0,0.0,0.0,0.0,0.0,9.3988,9.3131,9.2913,9.3739,9.3237,9.2988,9.2988,9.2988,9.2922,9.2684,9.2922,9.3109,9.3277,9.3499,9.3894,9.4346,9.487,9.5115,9.5163,9.5696,9.5981,9.6098,9.6098,9.6213,9.6288,9.6288,9.6288,9.6288,5.6742,5.7011,5.7511,5.7819,5.8088,5.9627,6.3551,6.5137,6.6834,6.9666,7.0829,7.2357,7.498,7.5906,7.7258,7.9602,0.0,7.9078,7.7992,7.4769,0.0,7.2133,6.6175,6.3047,6.3376,6.0349,5.7844,5.5892,5.5892,5.5625,5.5119,5.5119,5.5493,5.632,6.0054,6.3448,6.6663,7.1967,7.5471,7.7802,8.1829,8.523,8.7984,0.0,8.9867,9.0415,9.0884,9.1066,0.0,9.0034,8.8879,8.7711,8.736,8.5831,8.407,8.369,8.3047,0.0,0.0,0.0,7.7968,7.4101,7.2699,7.175,6.9518,6.8395,6.7801,6.791,6.7744,6.7398,6.6782,6.6667,6.5961,6.3778,6.4134,6.3925,0.0,6.2756,0.0,0.0,0.0,0.0,0.0,0.0,0.0,0.0,0.0,0.0,0.0,9.2404,9.2709,9.2913,9.2939,9.2922,9.2788,9.2788,9.2684,9.2479,9.2547,9.281,9.3277,9.3376,9.3739,9.4291,9.4769,9.5018,9.5163,9.5648,9.5898,9.5941,9.5941,9.5981,9.6058,9.6136,9.6175,9.6136,5.7489,5.7656,5.8103,5.8258,5.9418,6.139,6.4604,6.6237,6.8285,7.1633,7.2305,0.0,7.6806,0.0,7.8432,0.0,8.112,8.0728,7.9986,7.7542,0.0,7.4298,6.9633,6.6857,6.6349,6.305,6.032,5.8089,5.698,5.6027,5.5193,5.4958,5.5321,5.6398,5.9809,6.3835,6.8376,7.3303,7.701,7.9948,8.4072,8.6877,0.0,0.0,9.0296,8.9937,0.0,9.139,9.139,9.139,9.0342,8.9168,8.9919,8.8196,8.6004,8.6762,8.6049,8.4718,8.3175,8.2724,0.0,7.7597,7.6142,0.0,7.1901,7.0527,6.9895,6.9757,6.8985,6.8518,6.8832,6.7676,6.6353,6.5334,6.4159,6.2807,0.0,6.1341,0.0,0.0,0.0,0.0,0.0,0.0,0.0,0.0,0.0,0.0,0.0,0.0,9.2614,9.3093,9.3385,9.3414,9.3289,9.3263,9.32,9.297,9.281,9.3062,9.3819,9.3642,9.3991,9.4807,9.5056,9.5201,9.5295,9.5598,9.5772,9.5859,9.5859,9.5859,9.59,9.5981,9.6058,9.6019,5.8148,5.7853,5.7985,5.8486,6.159,6.4496,6.5834,0.0,6.9544,7.2826,7.3569,7.4948,7.7813,8.019,8.1783,8.2201,8.3349,8.3102,8.0918,7.9391,0.0,0.0,7.3714,7.1949,7.2373,6.7246,6.3691,6.192,5.8778,5.6835,5.5927,5.5201,5.5503,5.6739,5.806,6.2334,6.8703,7.2057,7.6883,8.2586,8.6598,8.9124,9.0536,9.1428,9.0759,8.9681,9.2133,9.2988,9.2988,9.2988,9.2431,9.1762,9.1725,9.1167,9.0536,9.0499,9.0499,8.9919,8.7248,8.5899,8.4475,8.1267,0.0,0.0,0.0,0.0,7.2891,7.2494,7.0534,6.955,7.1706,6.8906,6.6444,6.6938,6.4287,6.176,6.068,6.0491,6.0636,0.0,0.0,0.0,0.0,0.0,0.0,0.0,0.0,0.0,0.0,0.0,9.2478,9.402,9.4212,9.4303,9.4394,9.4308,9.418,9.3991,9.3522,9.3819,9.4679,9.4253,9.4628,9.5598,9.5598,9.5598,9.5598,9.5598,9.5686,9.581,9.581,9.5814,9.59,9.59,9.59,9.59,6.0055,6.0392,6.119,6.2146,6.3638,6.5133,0.0,0.0,0.0,7.4956,7.7142,7.9542,8.2658,8.4009,8.4956,8.5677,8.6023,0.0,0.0,0.0,0.0,8.1718,7.8196,7.5643,7.4366,6.9605,6.5459,6.2054,5.9458,5.7189,5.5286,5.5622,5.5993,5.6515,5.9478,6.3668,6.8777,7.2979,7.8939,8.5818,8.8716,8.9756,8.983,0.0,9.165,9.0424,9.2319,9.2988,9.2988,9.2988,9.2839,9.2542,9.191,9.1576,9.1279,9.0685,9.0499,9.0377,8.9647,8.8791,8.7525,8.4903,8.3246,8.1679,0.0,0.0,0.0,0.0,0.0,0.0,0.0,0.0,6.951,6.6365,6.3375,6.1334,6.106,6.0464,0.0,6.1113,0.0,0.0,0.0,0.0,0.0,0.0,0.0,0.0,8.8103,0.0,0.0,9.2455,9.2636,9.3122,9.4104,9.4086,9.3991,9.3781,9.3664,9.3954,9.4717,9.4576,9.492,9.5598,9.5598,9.5598,9.5598,9.5598,9.5598,9.5643,9.5643,9.5686,9.5686,9.5772,9.5772,9.5686,6.1129,6.188,6.311,6.4225,6.6051,0.0,6.8428,6.9767,0.0,7.5787,7.8411,0.0,8.3382,8.5264,8.6518,8.6958,8.6995,0.0,8.4963,0.0,0.0,8.2537,8.1019,7.9437,7.7757,7.3754,0.0,6.5755,6.2613,5.9523,5.6537,5.6566,5.6867,5.7353,6.017,6.3861,6.8394,7.4872,8.0861,8.6338,8.922,9.0518,0.0,9.2232,9.2195,9.1491,9.2521,9.2922,9.2988,9.2988,9.2988,9.2914,9.2431,9.2282,9.2171,9.1725,9.1576,9.1502,9.113,9.0685,8.9942,8.8158,8.6989,8.5636,8.3508,8.2308,8.1393,0.0,7.9304,7.7915,0.0,0.0,0.0,6.587,6.3519,6.2153,6.1781,0.0,0.0,0.0,6.271,0.0,0.0,0.0,0.0,0.0,0.0,0.0,0.0,0.0,0.0,9.0001,9.16,9.2937,9.4212,9.4281,9.4378,9.4538,9.4232,9.4485,9.5067,9.4819,9.5018,9.5598,9.5598,9.5598,9.5598,9.5598,9.5598,9.5598,9.5598,9.5598,9.5598,9.5686,9.5643,9.5598,6.206,6.314,6.455,6.5441,6.8646,7.1183,0.0,7.1489,0.0,7.6626,0.0,8.1195,8.281,8.549,8.7215,8.7325,0.0,8.6476,8.4514,8.5557,8.508,8.238,8.3317,8.3177,8.1672,7.8235,7.4601,7.077,6.6616,6.2567,5.8782,5.8079,5.8079,5.8708,6.0574,6.3993,6.894,7.7367,8.2756,8.5835,8.9099,9.1216,9.2557,9.2557,9.2631,9.2705,9.2949,9.3011,9.307,9.3136,9.3211,9.3322,9.3322,9.3322,9.3322,9.3322,9.3322,9.3136,9.2393,9.2096,9.1836,9.1019,9.0202,8.9198,8.7638,8.6189,8.4963,8.4146,8.162,8.0097,0.0,0.0,0.0,6.6229,6.5153,0.0,0.0,0.0,0.0,0.0,0.0,0.0,0.0,0.0,0.0,0.0,7.492,7.6976,0.0,0.0,0.0,8.7635,9.0759,0.0,9.4217,0.0,9.4969,9.5471,9.5018,9.5105,9.5598,9.5056,9.5105,9.5598,9.5598,9.5598,9.5598,9.5598,9.5598,9.5598,9.5598,9.5598,9.5598,9.5598,9.5598,9.5598,6.4659,6.5962,6.7178,6.7263,7.0606,7.3938,7.5823,7.7255,7.8872,8.1019,8.3345,8.5343,8.6958,8.7655,8.828,8.894,8.9014,0.0,0.0,0.0,0.0,8.7949,8.6921,8.593,8.4976,7.98,7.5529,0.0,6.7531,6.3578,6.0387,6.0149,5.978,5.9501,6.1708,6.6874,7.433,7.9949,8.4569,8.8236,9.0193,9.1966,9.3407,9.3407,9.3813,9.4404,9.4404,9.4031,9.3546,9.3857,9.4332,9.4753,9.4926,9.4994,9.4994,9.4994,9.4994,9.4957,9.4808,9.4288,9.3582,9.2765,9.191,9.1019,9.0053,8.9644,8.9198,8.8381,8.723,8.5669,8.3403,0.0,0.0,0.0,0.0,0.0,0.0,0.0,0.0,0.0,0.0,0.0,0.0,0.0,0.0,0.0,0.0,0.0,0.0,0.0,8.2542,0.0,8.9831,0.0,0.0,0.0,9.4769,9.487,9.5248,9.5471,9.5598,9.5471,9.5471,9.5598,9.5598,9.5598,9.5598,9.5598,9.5598,9.5598,9.5598,9.5598,9.5598,9.5598,9.5598,9.5598,6.6476,6.7888,6.9448,7.0587,7.3876,7.7108,0.0,8.1929,8.3361,8.2949,8.4639,8.6077,8.6848,8.8059,8.8977,8.9381,8.9417,8.9417,8.9417,8.9417,8.9417,8.9417,8.8683,8.7692,8.6444,8.292,7.8761,7.3918,0.0,6.6853,6.2535,6.2487,6.2303,6.2129,6.5422,6.9774,7.4974,8.0345,0.0,8.7415,8.9988,9.1978,9.338,9.338,9.3859,9.4559,9.4739,9.4776,9.4704,9.4545,9.4726,9.4952,9.5161,9.5161,9.5128,9.5335,9.5266,9.5091,9.5266,9.4901,9.4425,9.4054,9.3647,9.3239,9.2832,9.2091,9.1387,9.1017,8.9609,8.7312,8.3608,7.9941,0.0,0.0,0.0,0.0,0.0,0.0,7.0676,0.0,0.0,0.0,0.0,0.0,0.0,0.0,0.0,0.0,0.0,0.0,8.0933,0.0,0.0,0.0,0.0,0.0,0.0,9.4717,9.5295,9.5598,9.5598,9.5598,9.5598,9.5598,9.5598,9.5598,9.5598,9.5598,9.5598,9.5598,9.5598,9.5598,9.5598,9.5598,9.5598,9.5598,6.8752,7.0257,7.2092,7.4331,7.7598,8.0534,8.2406,8.5453,8.6775,8.4719,8.5673,8.6628,8.6811,8.8536,8.9748,8.9931,8.9931,8.9931,8.9931,8.9931,8.9931,8.9931,8.9784,8.9014,8.7545,8.5783,8.2068,0.0,0.0,6.9982,6.4683,6.4535,6.4793,6.5602,6.9315,7.2595,0.0,0.0,8.4514,8.6848,9.0037,9.2169,9.3382,9.3529,9.4116,9.4888,9.5147,9.5553,9.5958,9.5331,9.5255,9.5436,9.554,9.547,9.5507,9.5786,9.5647,9.5399,9.554,9.5359,9.514,9.5069,9.4958,9.481,9.481,9.385,9.289,9.2705,9.0858,8.8014,8.3851,8.1305,0.0,0.0,0.0,0.0,0.0,0.0,7.3204,0.0,0.0,0.0,0.0,0.0,0.0,0.0,0.0,0.0,7.5084,0.0,0.0,0.0,0.0,8.9553,9.1073,0.0,9.3839,0.0,9.5115,9.5471,9.5598,9.5598,9.5598,9.5598,9.5598,9.5598,9.5598,9.5598,9.5598,9.5598,9.5598,9.5598,9.5598,9.5598,9.5598,9.5598,7.2826,7.4441,7.6093,7.7818,8.1415,8.4095,8.4352,8.7105,8.883,8.7876,8.8536,8.9344,9.0078,9.0372,9.0776,9.151,9.1583,9.1583,9.1583,9.1583,9.1583,9.1583,9.0886,9.0078,8.9197,8.6885,8.3948,0.0,0.0,7.1064,6.6256,6.5521,6.6733,6.9596,7.1524,0.0,0.0,8.4051,8.6848,8.9307,9.184,9.3382,9.4263,9.4997,9.5768,9.6465,9.6541,9.6578,9.6575,9.6578,9.6916,9.728,9.7136,9.7208,9.7351,9.7351,9.7351,9.7351,9.7351,9.6795,9.6132,9.5881,9.5364,9.481,9.481,9.4699,9.4404,9.3665,9.2151,8.9646,8.5456,8.5705,8.5263,0.0,0.0,0.0,0.0,0.0,7.9019,7.5969,0.0,0.0,0.0,0.0,0.0,0.0,7.0946,0.0,0.0,0.0,0.0,8.3,0.0,8.6999,8.7452,9.1083,9.3214,9.3839,9.4432,9.5067,9.5598,9.5598,9.5598,9.5598,9.5598,9.5598,9.5598,9.5598,9.5598,9.5598,9.5598,9.5598,9.5598,9.5598,9.5598,9.5598,7.6497,7.8332,0.0,0.0,0.0,0.0,0.0,8.8977,9.0005,8.9674,8.9931,9.0445,9.1216,9.1326,9.1436,9.1767,9.1803,9.1803,9.1803,9.1803,9.1803,9.1803,9.1473,9.0959,9.0152,8.8243,8.5673,0.0,0.0,0.0,7.0807,7.0,7.1101,7.378,0.0,7.8956,8.2663,8.5857,8.8647,9.0959,9.2501,9.3859,9.507,9.5401,9.6025,9.6685,9.6838,9.6914,9.6914,9.6914,9.6989,9.7063,9.7138,9.7063,9.7138,9.7358,9.7211,9.7063,9.7211,9.688,9.6548,9.6398,9.6178,9.592,9.592,9.5552,9.5,9.4191,9.2314,9.0328,8.8639,8.7279,8.6213,0.0,0.0,0.0,0.0,0.0,0.0,7.9323,0.0,7.6717,0.0,0.0,0.0,0.0,0.0,0.0,0.0,0.0,0.0,8.3928,0.0,8.8664,8.9535,9.1715,9.3088,9.3723,9.4378,9.5018,9.5598,9.5598,9.5598,9.5598,9.5598,9.5598,9.5598,9.5598,9.5598,9.5598,9.5598,9.5598,9.5598,9.5598,9.5598,9.5598,8.0608,0.0,8.4132,0.0,8.7142,8.8463,8.9601,9.0445,9.0959,9.0959,9.0959,9.1179,9.173,9.1803,9.1803,9.1803,9.1803,9.1803,9.1803,9.1803,9.1803,9.1803,9.1803,0.0,9.0629,8.9491,8.7545,8.4829,8.0975,0.0,7.5102,7.356,7.4661,0.0,7.9947,8.2333,8.5013,8.7986,9.0225,9.1913,9.3272,9.4483,9.5547,9.5768,9.6208,9.6685,9.6838,9.6914,9.6914,9.6914,9.6838,9.6685,9.6838,9.6838,9.6838,9.7138,9.6989,9.6838,9.6989,9.6914,9.6762,9.6685,9.6685,9.6685,9.6685,9.6282,9.5584,9.452,9.2501,9.0886,9.0629,8.8757,8.7509,8.8426,0.0,0.0,0.0,8.4609,0.0,8.0938,7.9653,0.0,0.0,0.0,0.0,0.0,0.0,0.0,0.0,0.0,0.0,0.0,0.0,0.0,0.0,9.2194,9.3277,9.3723,9.4378,9.492,9.5333,9.5554,9.5598,9.5598,9.5598,9.5598,9.5598,9.5598,9.5598,9.5598,9.5598,9.5598,9.5598,9.5598,9.5598,9.5598,8.538,8.6371,8.7472,8.9087,9.0041,9.0555,9.0592,9.1253,9.1803,9.1803,9.1803,9.1803,9.1803,9.1803,9.1803,9.1803,9.1803,9.1803,9.1803,9.1803,9.1803,0.0,0.0,9.1436,9.0629,9.0592,8.9784,8.8133,0.0,0.0,7.8479,7.5212,7.668,8.215,8.2994,8.5159,8.8316,9.0739,9.1767,9.2024,9.4483,9.5474,9.5584,9.6392,9.6685,9.6685,9.6685,9.6685,9.6685,9.6685,9.6685,9.6685,9.6685,9.6838,9.6989,9.6989,9.6989,9.6989,9.6989,9.6989,9.6989,9.6762,9.6685,9.6685,9.6685,9.6685,9.6245,9.463,9.2941,9.1546,9.0739,9.0592,9.0298,8.9528,0.0,0.0,0.0,8.6261,0.0,8.0277,7.98,0.0,7.7451,0.0,0.0,0.0,0.0,0.0,0.0,0.0,0.0,8.3862,8.6271,0.0,8.8822,9.2071,9.3723,9.3723,9.4378,9.4679,9.4769,9.5333,9.5598,9.5598,9.5598,9.5598,9.5598,9.5598,9.5598,9.5598,9.5598,9.5598,9.5598,9.5598,9.5598,9.5598,8.8169,8.8904,8.9638,9.0152,9.1363,9.2317,9.2317,9.2978,9.3492,9.3492,9.3492,9.3492,9.3492,9.2464,9.2024,0.0,9.2684,9.2684,0.0,9.3198,9.3492,9.3492,9.3492,9.3125,9.2317,9.173,9.0886,8.9858,0.0,0.0,0.0,8.1636,8.2994,8.6297,8.6554,8.8169,9.0702,9.151,9.2831,9.441,9.518,9.5841,9.6355,9.6612,9.6685,9.6685,9.6685,9.6685,9.6685,9.6685,9.6685,9.6685,9.6685,9.6762,9.6762,9.6762,9.6762,9.6762,9.6762,9.6762,9.6762,9.6685,9.6685,9.6685,9.6685,9.5841,9.4923,9.441,9.2978,9.173,9.1473,9.1436,9.1326,9.1069,9.0372,0.0,8.8757,8.7949,8.6554,8.4168,8.3875,0.0,0.0,8.1489,0.0,0.0,0.0,0.0,0.0,0.0,0.0,0.0,8.7225,0.0,8.9808,9.1837,9.316,9.3723,9.4378,9.492,9.5333,9.5516,9.5598,9.5598,9.5598,9.5598,9.5598,9.5598,9.5598,9.5598,9.5598,9.5598,9.5598,9.5598,9.5598,9.5598,9.0739,9.1216,9.162,9.195,9.2868,9.3565,9.3565,9.3969,9.4299,9.4299,9.4299,9.441,9.4703,9.3529,0.0,9.3492,9.3565,9.3565,9.3565,9.4006,9.4299,9.4299,9.4299,9.4042,9.3565,0.0,0.0,9.1987,8.9381,8.7655,8.6848,8.6848,8.7839,8.9564,8.9895,9.1033,9.2758,9.3088,9.4116,9.5547,9.5841,9.6245,9.6685,9.6685,9.6685,9.6685,9.6685,9.6685,9.6685,9.6685,9.6685,9.6685,9.6685,9.6685,9.6685,9.6685,9.6685,9.6685,9.6685,9.6685,9.6685,9.6685,9.6685,9.6612,9.6318,9.5254,9.4189,9.3896,9.2758,9.1803,9.1803,9.1803,9.1803,9.1803,9.1106,9.0335,8.9528,8.872,8.7362,8.5159,0.0,0.0,0.0,8.2957,0.0,0.0,0.0,0.0,0.0,0.0,0.0,8.5544,8.8195,0.0,9.0689,9.2466,9.3464,9.3723,9.4378,9.5018,9.5598,9.5598,9.5598,9.5598,9.5598,9.5598,9.5598,9.5598,9.5598,9.5598,9.5598,9.5598,9.5598,9.5598,9.5598,9.5598,9.3015,9.3198,9.3418,0.0,9.4336,0.0,9.4373,9.441,9.4446,9.4446,9.4446,9.474,9.5511,9.4923,9.4446,9.4446,0.0,0.0,0.0,9.4446,9.4446,9.4446,9.4446,9.4446,9.4373,9.4373,9.4336,9.4299,9.2794,9.1657,9.0849,9.0849,9.1253,9.2024,9.2831,9.3639,9.441,9.518,9.5547,9.5621,9.6392,9.6685,9.6685,9.6685,9.6685,9.6685,9.6685,9.6685,9.6685,9.6685,9.6685,9.6685,9.6685,9.6685,9.6685,9.6685,9.6685,9.6685,9.6685,9.6685,9.6685,9.6685,9.6685,9.6502,9.5694,9.4887,9.4079,9.3272,9.2391,9.1803,9.1803,9.1803,9.1803,9.1803,9.1179,9.0408,8.9528,8.8757,8.7142,0.0,0.0,0.0,0.0,8.2517,8.3067,0.0,0.0,0.0,0.0,0.0,8.365,8.6648,8.9113,9.0689,9.1262,9.3509,9.4394,9.3839,9.4432,9.5056,9.5598,9.5598,9.5598,9.5598,9.5598,9.5598,9.5598,9.5598,9.5598,9.5598,9.5598,9.5598,9.5598,9.5598,9.5598,9.5598,0.0,0.0,9.4079,9.4263,9.4813,9.5217,9.5217,9.5731,9.6135,9.6135,9.6135,9.6208,9.6392,9.6245,9.6135,9.6135,9.5584,9.5217,9.5217,9.5804,9.6135,9.6135,9.6135,9.5841,9.5254,9.5217,9.4923,9.4299,9.3896,9.3639,9.3418,9.3418,9.3529,9.3712,9.3932,9.4446,9.5254,9.5437,9.5841,9.6428,9.6612,9.6685,9.6685,9.6685,9.6685,9.6685,9.6685,9.6685,9.6685,9.6685,9.6685,9.6685,9.6685,9.6685,9.6685,9.6685,9.6685,9.6685,9.6685,9.6685,9.6685,9.6685,9.6685,9.6502,9.5694,9.4887,9.4079,9.3272,9.2391,9.1803,9.1803,9.1803,9.1803,9.1803,9.1657,9.1033,8.9601,8.9271,8.839,0.0,8.6151,8.6077,8.5894,8.5857,8.527,0.0,0.0,0.0,0.0,8.3434,8.4272,8.6863,8.9038,9.0333,9.0603,9.3188,9.4723,9.5115,9.5295,9.5471,9.5598,9.5598,9.5598,9.5598,9.5598,9.5598,9.5598,9.5598,9.5598,9.5598,9.5598,9.5598,9.5598,9.5598,9.5598,9.5598,9.4777,9.485,9.496,9.5327,9.5768,9.6061,9.6061,9.6428,9.6685,9.6685,9.6685,9.6685,9.6685,9.6685,9.6685,9.6685,9.6318,9.6061,9.6061,9.6465,9.6685,9.6685,9.6685,9.6502,9.6061,9.6061,9.5841,9.5401,9.5034,9.485,9.485,9.485,9.485,9.485,9.5217,9.5658,9.6061,9.6061,9.6318,9.6685,9.6685,9.6685,9.6685,9.6685,9.6685,9.6685,9.6685,9.6685,9.6685,9.6685,9.6685,9.6685,9.6685,9.6685,9.6685,9.6685,9.6685,9.6685,9.6685,9.6685,9.6685,9.6685,9.6428,9.5951,9.5144,9.4336,9.3492,9.2684,9.2134,9.1803,9.1803,9.1803,9.1803,9.1803,9.1179,9.0555,9.0041,8.9344,8.8683,8.8169,8.8096,8.7949,8.7582,8.7783,8.7247,8.5549,0.0,0.0,8.5868,8.5868,8.637,8.7509,8.9273,9.0466,9.0907,9.332,9.4876,9.5598,9.5598,9.5598,9.5598,9.5598,9.5598,9.5598,9.5598,9.5598,9.5598,9.5598,9.5598,9.5598,9.5598,9.5598,9.5598,9.5598,9.5598,9.5598,9.5547,9.5694,9.5914,9.6575,9.6685,9.6685,9.6685,9.6685,9.6685,9.6685,9.6685,9.6685,9.6685,9.6685,9.6685,9.6685,9.6685,9.6685,9.6685,9.6685,9.6685,9.6685,9.6685,9.6685,9.6685,9.6685,9.6685,9.6685,9.6025,9.5694,9.5694,9.5694,9.5694,9.5731,9.6392,9.6685,9.6685,9.6685,9.6685,9.6685,9.6685,9.6685,9.6685,9.6685,9.6685,9.6685,9.6685,9.6685,9.6685,9.6685,9.6685,9.6685,9.6685,9.6685,9.6685,9.6685,9.6685,9.6685,9.6685,9.6685,9.6685,9.6539,9.6025,9.5254,9.4336,9.3602,9.2868,9.1987,9.1803,9.1803,9.1803,9.1803,9.173,9.1473,9.0519,8.9895,9.0188,0.0,8.8793,8.9344,8.9417,8.916,8.8463,8.8959,8.9013,8.8344,8.8837,8.9179,0.0,8.9179,8.9093,8.8877,9.0053,9.1174,9.2231,9.3985,9.5105,9.5598,9.5598,9.5598,9.5598,9.5598,9.5598,9.5598,9.5598,9.5598,9.5598,9.5598,9.5598,9.5598,9.5598,9.5598,9.5598,9.5598,9.5522,9.5407,9.6502,9.6502,9.6539,9.6685,9.6685,9.6685,9.6685,9.6685,9.6685,9.6685,9.6685,9.6685,9.6685,9.6685,9.6685,9.6685,9.6685,9.6685,9.6685,9.6685,9.6685,9.6685,9.6685,9.6685,9.6685,9.6685,9.6685,9.6685,9.6575,9.6502,9.6502,9.6502,9.6502,9.6539,9.6649,9.6685,9.6685,9.6685,9.6685,9.6685,9.6685,9.6685,9.6685,9.6685,9.6685,9.6685,9.6685,9.6685,9.6685,9.6685,9.6685,9.6685,9.6685,9.6685,9.6685,9.6685,9.6685,9.6685,9.6685,9.6685,9.6539,9.5878,9.5584,9.5107,9.3639,9.3198,9.2868,9.1987,9.1803,9.1803,9.1803,9.1803,9.1363,9.0005,9.0702,9.0776,8.883,0.0,9.0041,8.9491,8.9417,8.9381,8.9234,8.981,9.0127,9.0016,9.0558,9.0926,9.0926,9.0926,9.1187,9.1837,9.1881,9.2936,9.4972,9.5303,9.5471,9.5598,9.5598,9.5598,9.5598,9.5598,9.5598,9.5598,9.5598,9.5598,9.5598,9.5598,9.5598,9.5598,9.5598,9.5598,9.5598,9.5598,9.5178,9.4567,9.6685,9.6685,9.6685,9.6685,9.6685,9.6685,9.6685,9.6685,9.6685,9.6685,9.6685,9.6685,9.6685,9.6685,9.6685,9.6685,9.6685,9.6685,9.6685,9.6685,9.6685,9.6685,9.6685,9.6685,9.6685,9.6685,9.6685,9.6685,9.6685,9.6685,9.6685,9.6685,9.6685,9.6685,9.6685,9.6685,9.6685,9.6685,9.6685,9.6685,9.6685,9.6685,9.6685,9.6685,9.6685,9.6685,9.6685,9.6685,9.6685,9.6685,9.6685,9.6685,9.6685,9.6685,9.6685,9.6685,9.6685,9.6685,9.6685,9.6392,9.5951,9.5584,9.485,9.4006,9.3272,9.2758,9.2281,9.1877,9.1803,9.1803,9.1803,9.1803,9.1546,9.0812,9.0592,0.0,9.0188,9.0041,9.0152,9.0629,9.0702,9.0478,8.9972,9.044,9.0617,9.0099,9.0561,9.109,9.1556,9.1594,9.2201,9.3441,9.3555,9.4209,9.5598,9.5598,9.5598,9.5598,9.5598,9.5598,9.5598,9.5598,9.5598,9.5598,9.5598,9.5598,9.5598,9.5598,9.5331,9.4949,9.4949,9.4681,9.4261,9.4261,9.4032,9.3688,9.6685,9.6685,9.6685,9.6685,9.6685,9.6685,9.6685,9.6685,9.6685,9.6685,9.6685,9.6685,9.6685,9.6685,9.6685,9.6685,9.6685,9.6685,9.6685,9.6685,9.6685,9.6685,9.6685,9.6685,9.6685,9.6685,9.6685,9.6685,9.6685,9.6685,9.6685,9.6685,9.6685,9.6685,9.6685,9.6685,9.6685,9.6685,9.6685,9.6685,9.6685,9.6685,9.6685,9.6685,9.6685,9.6685,9.6685,9.6685,9.6685,9.6685,9.6685,9.6685,9.6685,9.6685,9.6685,9.6685,9.6575,9.6428,9.6428,9.5988,9.5437,9.507,9.4006,9.3051,9.2831,9.2281,9.1803,9.1803,9.1803,9.1803,9.1803,9.1803,9.1693,9.1289,0.0,9.0262,9.1106,9.0335,9.0225,9.162,9.1473,9.106,9.0657,9.0947,9.098,9.0347,9.0867,9.1472,9.2083,9.2083,9.2809,9.4376,9.4734,9.5153,9.5598,9.5598,9.5598,9.5598,9.5598,9.5598,9.5598,9.5598,9.5598,9.5598,9.5407,9.5331,9.5293,9.5102,9.4643,9.4108,9.4108,9.3688,9.3115,9.3115,9.2962,9.2809,9.6685,9.6685,9.6685,9.6685,9.6685,9.6685,9.6685,9.6685,9.6685,9.6685,9.6685,9.6685,9.6685,9.6685,9.6685,9.6685,9.6685,9.6685,9.6685,9.6685,9.6685,9.6685,9.6685,9.6685,9.6685,9.6685,9.6685,9.6685,9.6685,9.6685,9.6685,9.6685,9.6685,9.6685,9.6685,9.6685,9.6685,9.6685,9.6685,9.6685,9.6685,9.6685,9.6685,9.6685,9.6685,9.6685,9.6685,9.6685,9.6685,9.6685,9.6685,9.6685,9.6685,9.6685,9.6685,9.6685,9.6171,9.5584,9.5584,9.5547,9.5144,9.3675,9.3198,9.2905,9.206,9.184,9.1803,9.1803,9.1803,9.1803,9.1803,9.1803,9.1326,8.9821,0.0,0.0,8.9784,9.0115,9.0849,9.1693,9.0482,9.0066,9.126,9.132,9.1469,9.1976,9.2581,9.2924,9.3,9.3,9.3421,9.4376,9.5134,9.5554,9.5598,9.5598,9.5598,9.5598,9.5598,9.5598,9.5598,9.5598,9.5598,9.556,9.4796,9.449,9.4452,9.3612,9.3268,9.3191,9.3191,9.3153,9.3115,9.3115,9.258,9.1892,9.6685,9.6685,9.6685,9.6685,9.6685,9.6685,9.6685,9.6685,9.6685,9.6685,9.6685,9.6685,9.6685,9.6685,9.6685,9.6685,9.6685,9.6685,9.6685,9.6685,9.6685,9.6685,9.6685,9.6685,9.6685,9.6685,9.6685,9.6685,9.6685,9.6685,9.6685,9.6685,9.6685,9.6685,9.6685,9.6685,9.6685,9.6685,9.6685,9.6685,9.6685,9.6685,9.6685,9.6685,9.6685,9.6685,9.6685,9.6685,9.6685,9.6685,9.6392,9.5951,9.5951,9.5621,9.5217,9.5217,9.4997,9.4666,9.4153,9.4006,9.3859,9.3272,9.2684,9.2207,9.1877,9.1803,9.1803,9.1803,9.1803,9.1803,9.1803,9.1803,9.1583,9.0996,0.0,9.14,9.0298,9.0408,9.0555,9.0335,8.9784,8.9551,8.9989,8.9945,9.0134,9.06,9.0894,9.1355,9.2274,9.2809,9.3268,9.3573,9.3879,9.4567,9.5598,9.5598,9.5331,9.4872,9.4872,9.4567,9.4032,9.4032,9.4032,9.4032,9.3726,9.3612,9.3573,9.3229,9.2771,9.2274,9.2274,9.2007,9.1548,9.1548,9.1357,9.1052,9.6685,9.6685,9.6685,9.6685,9.6685,9.6685,9.6685,9.6685,9.6685,9.6685,9.6685,9.6685,9.6685,9.6685,9.6685,9.6685,9.6685,9.6685,9.6685,9.6685,9.6685,9.6685,9.6685,9.6685,9.6685,9.6685,9.6685,9.6685,9.6685,9.6685,9.6685,9.6685,9.6685,9.6685,9.6685,9.6685,9.6685,9.6685,9.6685,9.6685,9.6685,9.6685,9.6685,9.6428,9.6318,9.6282,9.6025,9.5951,9.5951,9.5951,9.5584,9.5144,9.5144,9.474,9.4299,9.4299,9.4116,9.3786,9.3235,9.2905,9.2684,9.2684,9.2244,9.1803,9.1803,9.1803,9.1803,9.1803,9.1803,9.1803,9.1803,9.1803,9.1803,9.1803,9.1803,9.162,9.1069,9.0555,9.0115,8.9821,8.9124,8.8777,8.9098,8.9051,8.9178,8.9654,8.9897,9.0395,9.1395,9.2007,9.2427,9.2695,9.2695,9.3382,9.4796,9.4796,9.4529,9.3994,9.3994,9.3688,9.3115,9.3115,9.3115,9.3077,9.2809,9.2695,9.2656,9.2427,9.1969,9.1434,9.1434,9.109,9.0593,9.0593,9.0593,9.0593,9.6685,9.6685,9.6685,9.6685,9.6685,9.6685,9.6685,9.6685,9.6685,9.6685,9.6685,9.6685,9.6685,9.6685,9.6685,9.6685,9.6685,9.6685,9.6685,9.6685,9.6685,9.6685,9.6685,9.6685,9.6685,9.6685,9.6685,9.6685,9.6685,9.6685,9.6685,9.6685,9.6685,9.6685,9.6685,9.6685,9.6685,9.6685,9.6685,9.6685,9.6685,9.6685,9.6575,9.5804,9.5511,9.5401,9.4593,9.4299,9.4299,9.4299,9.4299,9.4299,9.4263,9.4263,9.4263,9.4263,9.3712,9.3088,9.3088,9.2464,9.1803,9.1803,9.1803,9.1803,9.1803,9.1803,9.1803,9.1803,9.1803,9.1803,9.1803,9.1803,9.1803,9.1803,9.1803,9.1803,9.1767,9.0408,8.9711,9.0482,8.8463,8.7562,8.8949,8.8891,8.9023,8.9665,9.0257,9.0593,9.0593,9.0593,9.0975,9.1778,9.1778,9.2198,9.3077,9.3077,9.3115,9.3077,9.3077,9.3077,9.3077,9.3077,9.3077,9.3038,9.216,9.1778,9.1739,9.0937,9.0593,9.0593,9.0593,9.0593,9.0593,9.0593,9.0593,9.0593,9.6685,9.6685,9.6685,9.6685,9.6685,9.6685,9.6685,9.6685,9.6685,9.6685,9.6685,9.6685,9.6685,9.6685,9.6685,9.6685,9.6685,9.6685,9.6685,9.6685,9.6685,9.6685,9.6685,9.6685,9.6685,9.6685,9.6685,9.6685,9.6685,9.6685,9.6685,9.6685,9.6685,9.6685,9.6685,9.6685,9.6685,9.6685,9.6392,9.5878,9.5878,9.5511,9.4997,9.474,9.4666,9.463,9.4373,9.4299,9.4299,9.4299,9.3932,9.3345,9.2721,9.2537,9.2537,9.2537,9.2391,9.217,9.217,9.1987,9.1803,9.1803,9.1803,9.1803,9.1803,9.1803,9.1803,9.1803,9.1803,9.1803,9.1803,9.1803,9.1803,9.1803,9.1326,9.0776,9.0225,8.9234,8.8463,8.8133,8.7435,8.7341,8.8207,8.8232,8.8578,8.9616,9.0257,9.0593,9.0593,9.0593,9.0708,9.0937,9.0975,9.109,9.1357,9.2504,9.2809,9.2198,9.2198,9.1892,9.1357,9.1357,9.1357,9.1319,9.109,9.0975,9.0937,9.0708,9.0593,9.0593,9.0593,9.0593,9.0593,9.0593,9.0593,9.0593,9.6685,9.6685,9.6685,9.6685,9.6685,9.6685,9.6685,9.6685,9.6685,9.6685,9.6685,9.6685,9.6685,9.6685,9.6685,9.6685,9.6685,9.6685,9.6685,9.6685,9.6685,9.6685,9.6685,9.6685,9.6685,9.6685,9.6685,9.6685,9.6685,9.6685,9.6685,9.6685,9.6685,9.6685,9.6685,9.6539,9.6245,9.6245,9.5768,9.5034,9.5034,9.474,9.4263,9.3932,9.3822,9.3786,9.3418,9.3308,9.3308,9.3308,9.2978,9.2501,9.195,9.1803,9.1803,9.1803,9.1803,9.1803,9.1803,9.1803,9.1803,9.1803,9.1803,9.1803,9.1803,9.1803,9.1803,9.1803,9.1803,9.1803,9.1803,9.1803,9.1693,9.1363,9.0922,9.0335,8.9528,8.872,8.8023,8.7545,8.7415,8.7526,8.7836,8.8346,8.9023,8.9991,9.0383,9.0593,9.0593,9.0593,9.0593,9.0593,9.0593,9.0593,9.0593,9.1625,9.1854,9.1319,9.1319,9.109,9.0593,9.0593,9.0593,9.0593,9.0593,9.0593,9.0593,9.0593,9.0593,9.0593,9.0593,9.0593,9.0593,9.0593,9.0593,9.0593,9.6685,9.6685,9.6685,9.6685,9.6685,9.6685,9.6685,9.6685,9.6685,9.6685,9.6685,9.6685,9.6685,9.6685,9.6685,9.6685,9.6685,9.6685,9.6685,9.6685,9.6685,9.6685,9.6685,9.6685,9.6575,9.6649,9.6685,9.6685,9.6685,9.6649,9.6575,9.6575,9.6539,9.6502,9.6502,9.6098,9.5401,9.5401,9.4923,9.4189,9.4189,9.4153,9.4006,9.3272,9.2978,9.2868,9.206,9.1803,9.1803,9.1803,9.1803,9.1803,9.1803,9.1803,9.1803,9.1803,9.1803,9.1803,9.1803,9.1803,9.1803,9.1803,9.1803,9.1803,9.1803,9.1803,9.1803,9.1803,9.1803,9.1767,9.1693,9.1693,9.1436,9.0629,9.0445,9.0152,8.9417,8.861,8.8096,8.8166,8.8035,8.796,8.8022,8.9076,8.9991,9.0551,9.0593,9.0593,9.0593,9.0593,9.0593,9.0593,9.0593,9.0593,9.0593,9.0593,9.0593,9.0593,9.0593,9.0593,9.0593,9.0593,9.0593,9.0593,9.0593,9.0593,9.0593,9.0593,9.0593,9.0593,9.0593,9.0593,9.0593,9.0593,9.0593,9.0593,9.6685,9.6685,9.6685,9.6685,9.6685,9.6685,9.6685,9.6685,9.6685,9.6685,9.6685,9.6685,9.6685,9.6685,9.6685,9.6685,9.6685,9.6685,9.6685,9.6685,9.6685,9.6685,9.6685,9.6428,9.5768,9.6392,9.6685,9.6685,9.6685,9.6392,9.5768,9.5768,9.5437,9.4813,9.4813,9.4703,9.4556,9.4556,9.4116,9.3345,9.3345,9.2941,9.2317,9.2134,9.206,9.206,9.1877,9.1803,9.1803,9.1803,9.1803,9.1803,9.1803,9.1803,9.1803,9.1803,9.1803,9.1803,9.1803,9.1803,9.1803,9.1803,9.1803,9.1803,9.1803,9.1803,9.1803,9.1803,9.1803,9.162,9.0996,9.0849,9.0592,8.9821,8.9124,8.8647,8.85,8.7766,8.7458,8.7878,8.7921,8.8227,8.922,8.9991,9.0465,9.0593,9.0593,9.0593,9.0593,9.0593,9.0593,9.0593,9.0593,9.0593,9.0593,9.0593,9.0593,9.0593,9.0593,9.0593,9.0593,9.0593,9.0593,9.0593,9.0593,9.0593,9.0593,9.0593,9.0593,9.0593,9.0593,9.0593,9.0593,9.0593,9.0593,9.0593,9.6685,9.6685,9.6685,9.6685,9.6685,9.6685,9.6685,9.6685,9.6685,9.6685,9.6685,9.6685,9.6685,9.6685,9.6539,9.6171,9.6135,9.5951,9.5584,9.5547,9.5547,9.5547,9.5547,9.5364,9.4923,9.5327,9.5547,9.5547,9.5547,9.5327,9.4923,9.4923,9.4703,9.4299,9.4299,9.4079,9.3712,9.3712,9.3235,9.2464,9.2464,9.2207,9.1803,9.1803,9.1803,9.1803,9.1803,9.1803,9.1803,9.1803,9.1803,9.1803,9.1803,9.1803,9.1803,9.1803,9.1803,9.1803,9.1803,9.1803,9.1803,9.1803,9.1803,9.1803,9.1803,9.1803,9.1803,9.1803,9.1473,9.1106,9.0702,9.0298,8.9784,8.8977,8.8463,8.8198,8.8096,8.7653,8.7618,8.8265,8.8578,8.913,9.0037,9.0383,9.0593,9.0593,9.0593,9.0593,9.0593,9.0593,9.0593,9.0593,9.0593,9.0593,9.0593,9.0593,9.0593,9.0593,9.0593,9.0593,9.0593,9.0593,9.0593,9.0593,9.0593,9.0593,9.0593,9.0593,9.0593,9.0593,9.0593,9.0593,9.0593,9.0593,9.0593,9.0593,9.6685,9.6685,9.6685,9.6685,9.6685,9.6685,9.6685,9.6575,9.6502,9.6502,9.6392,9.6282,9.6282,9.6282,9.6025,9.5364,9.529,9.5034,9.4336,9.4299,9.4299,9.4299,9.4299,9.4226,9.4079,9.4079,9.4153,9.4299,9.4299,9.4226,9.4079,9.4079,9.4006,9.3859,9.3859,9.3492,9.2868,9.2868,9.2464,9.1803,9.1803,9.1803,9.1803,9.1803,9.1803,9.1803,9.1803,9.1803,9.1803,9.1803,9.1803,9.1803,9.1803,9.1803,9.1803,9.1803,9.1803,9.1803,9.1803,9.1803,9.1803,9.1803,9.1693,9.1583,9.1583,9.1583,9.1583,9.1583,9.0959,9.0372,9.0225,8.9638,8.894,8.8133,8.7986,8.8004,8.7884,8.7898,8.8144,8.8859,8.9478,9.0037,9.0551,9.0593,9.0593,9.0593,9.0593,9.0593,9.0593,9.0593,9.0593,9.0593,9.0593,9.0593,9.0593,9.0593,9.0593,9.0593,9.0593,9.0593,9.0593,9.0593,9.0593,9.0593,9.0593,9.0593,9.0593,9.0593,9.0593,9.0593,9.0593,9.0593,9.0593,9.0593,9.0593,9.0593,9.6685,9.6685,9.6685,9.6685,9.6685,9.6685,9.6685,9.6098,9.5658,9.5658,9.507,9.463,9.463,9.463,9.4593,9.4483,9.4446,9.441,9.4299,9.4299,9.4299,9.4299,9.4299,9.3969,9.3272,9.3272,9.3602,9.4299,9.4299,9.3932,9.3272,9.3272,9.2868,9.2134,9.2134,9.206,9.1987,9.1987,9.1913,9.1803,9.1803,9.1803,9.1803,9.1803,9.1803,9.1803,9.1803,9.1803,9.1803,9.1803,9.1803,9.1803,9.1803,9.1803,9.1803,9.1803,9.1803,9.1803,9.1803,9.1803,9.1803,9.1803,9.1289,9.0776,9.0776,9.0776,9.0776,9.0776,9.0115,8.9381,8.8647,8.8426,8.8096,8.7288,8.7178,8.7378,8.781,8.7898,8.8287,8.9427,9.0121,9.0508,9.0593,9.0593,9.0593,9.0593,9.0593,9.0593,9.0593,9.0593,9.0593,9.0593,9.0593,9.0593,9.0593,9.0593,9.0593,9.0593,9.0593,9.0593,9.0593,9.0593,9.0593,9.0593,9.0593,9.0593,9.0593,9.0593,9.0593,9.0593,9.0593,9.0593,9.0593,9.0593,9.0593,9.0593,9.5364,9.5364,9.5364,9.5364,9.5364,9.5364,9.5364,9.507,9.4813,9.4813,9.452,9.4299,9.4299,9.4299,9.4116,9.3675,9.3639,9.3418,9.2941,9.2905,9.2905,9.2905,9.2905,9.2721,9.2391,9.2354,9.2537,9.2905,9.2905,9.2721,9.2354,9.2354,9.217,9.1803,9.1803,9.1803,9.1803,9.1803,9.1803,9.1803,9.1803,9.1803,9.1803,9.1803,9.1803,9.1803,9.1803,9.1803,9.1803,9.1803,9.1803,9.1803,9.1803,9.1803,9.1803,9.1803,9.1803,9.1803,9.1803,9.1473,9.1143,9.1143,9.0519,8.9931,8.9931,8.9601,8.9381,8.9858,8.9307,8.861,8.828,8.7839,8.7435,8.7068,8.6995,8.7231,8.781,8.8205,8.8859,9.0037,9.0427,9.0593,9.0593,9.0593,9.0593,9.0593,9.0593,9.0593,9.0593,9.0593,9.0593,9.0593,9.0593,9.0593,9.0593,9.0593,9.0593,9.0593,9.0593,9.0593,9.0593,9.0593,9.0593,9.0593,9.0593,9.0593,9.0593,9.0593,9.0593,9.0593,9.0593,9.0593,9.0593,9.0593,9.0593,9.0593]},{"header":{"parameterUnit":"m.s-1","parameterCategory":1,"la1":30.6,"la2":28.766,"lo1":-90.7593,"lo2":-88.6598,"dx":0.0162,"dy":0.0183,"nx":116,"ny":114,"refTime":"2022-11-08T18:00:00:Z","depth":0,"parameterNumber":3,"parameterNumberName":"V-component_of_WINDS"},"data":[0.0,0.0,0.0,0.0,0.0,0.0,0.0,0.0,0.0,0.0,0.0,0.0,0.0,0.0,0.0,0.0,0.0,0.0,0.0,0.0,0.0,0.0,0.0,0.0,0.0,0.0,0.0,0.0,0.0,0.0,0.0,0.0,0.0,0.0,0.0,0.0,0.0,0.0,0.0,0.0,0.0,0.0,0.0,0.0,0.0,0.0,0.0,0.0,0.0,0.0,0.0,0.0,0.0,0.0,0.0,0.0,0.0,0.0,0.0,0.0,0.0,0.0,0.0,0.0,0.0,0.0,0.0,0.0,0.0,0.0,0.0,0.0,0.0,0.0,0.0,0.0,0.0,0.0,0.0,0.0,0.0,0.0,0.0,0.0,0.0,0.0,0.0,0.0,0.0,0.0,0.0,0.0,0.0,0.0,0.0,0.0,0.0,0.0,0.0,0.0,0.0,0.0,0.0,0.0,0.0,0.0,0.0,0.0,0.0,0.0,0.0,0.0,0.0,0.0,0.0,0.0,0.0,0.0,0.0,0.0,0.0,0.0,0.0,0.0,0.0,0.0,0.0,0.0,0.0,0.0,0.0,0.0,0.0,0.0,0.0,0.0,0.0,0.0,0.0,0.0,0.0,0.0,0.0,0.0,0.0,0.0,0.0,0.0,0.0,0.0,0.0,0.0,0.0,0.0,0.0,0.0,0.0,0.0,0.0,0.0,0.0,0.0,0.0,0.0,0.0,0.0,0.0,0.0,0.0,0.0,0.0,0.0,0.0,0.0,0.0,0.0,0.0,0.0,0.0,0.0,0.0,0.0,0.0,0.0,0.0,0.0,0.0,0.0,0.0,0.0,0.0,0.0,0.0,0.0,0.0,0.0,0.0,0.0,0.0,0.0,0.0,0.0,0.0,0.0,0.0,0.0,0.0,0.0,0.0,0.0,0.0,0.0,0.0,0.0,0.0,0.0,0.0,0.0,0.0,0.0,0.0,0.0,0.0,0.0,0.0,0.0,0.0,0.0,0.0,0.0,0.0,0.0,0.0,0.0,0.0,0.0,0.0,0.0,0.0,0.0,0.0,0.0,0.0,0.0,0.0,0.0,0.0,0.0,0.0,0.0,0.0,0.0,0.0,0.0,0.0,0.0,0.0,0.0,0.0,0.0,0.0,0.0,0.0,0.0,0.0,0.0,0.0,0.0,0.0,0.0,0.0,0.0,0.0,0.0,0.0,0.0,0.0,0.0,0.0,0.0,0.0,0.0,0.0,0.0,0.0,0.0,0.0,0.0,0.0,0.0,0.0,0.0,0.0,0.0,0.0,0.0,0.0,0.0,0.0,0.0,0.0,0.0,0.0,0.0,0.0,0.0,0.0,0.0,0.0,0.0,0.0,0.0,0.0,0.0,0.0,0.0,0.0,0.0,0.0,0.0,0.0,0.0,0.0,0.0,0.0,0.0,0.0,0.0,0.0,0.0,0.0,0.0,0.0,0.0,0.0,0.0,0.0,0.0,0.0,0.0,0.0,0.0,0.0,0.0,0.0,0.0,0.0,0.0,0.0,0.0,0.0,0.0,0.0,0.0,0.0,0.0,0.0,0.0,0.0,0.0,0.0,0.0,0.0,0.0,0.0,0.0,0.0,0.0,0.0,0.0,0.0,0.0,0.0,0.0,0.0,0.0,0.0,0.0,0.0,0.0,0.0,0.0,0.0,0.0,0.0,0.0,0.0,0.0,0.0,0.0,0.0,0.0,0.0,0.0,0.0,0.0,0.0,0.0,0.0,0.0,0.0,0.0,0.0,0.0,0.0,0.0,0.0,0.0,0.0,0.0,0.0,0.0,0.0,0.0,0.0,0.0,0.0,0.0,0.0,0.0,0.0,0.0,0.0,0.0,0.0,0.0,0.0,0.0,0.0,0.0,0.0,0.0,0.0,0.0,0.0,0.0,0.0,0.0,0.0,0.0,0.0,0.0,0.0,0.0,0.0,0.0,0.0,0.0,0.0,0.0,0.0,0.0,0.0,0.0,0.0,0.0,0.0,0.0,0.0,0.0,0.0,0.0,0.0,0.0,0.0,0.0,0.0,0.0,0.0,0.0,0.0,0.0,0.0,0.0,0.0,0.0,0.0,0.0,0.0,0.0,0.0,0.0,0.0,0.0,0.0,0.0,0.0,0.0,0.0,0.0,0.0,0.0,0.0,0.0,0.0,0.0,0.0,0.0,0.0,0.0,0.0,0.0,0.0,0.0,0.0,0.0,0.0,0.0,0.0,0.0,0.0,0.0,0.0,0.0,0.0,0.0,0.0,0.0,0.0,0.0,0.0,0.0,0.0,0.0,0.0,0.0,0.0,0.0,0.0,0.0,0.0,0.0,0.0,0.0,0.0,0.0,0.0,0.0,0.0,0.0,0.0,0.0,0.0,0.0,0.0,0.0,0.0,0.0,0.0,0.0,0.0,0.0,0.0,0.0,0.0,0.0,0.0,0.0,0.0,0.0,0.0,0.0,0.0,0.0,0.0,0.0,0.0,0.0,0.0,0.0,0.0,0.0,0.0,0.0,0.0,0.0,0.0,0.0,0.0,0.0,0.0,0.0,0.0,0.0,0.0,0.0,0.0,0.0,0.0,0.0,0.0,0.0,0.0,0.0,0.0,0.0,0.0,0.0,0.0,0.0,0.0,0.0,0.0,0.0,0.0,0.0,0.0,0.0,0.0,0.0,0.0,0.0,0.0,0.0,0.0,0.0,0.0,0.0,0.0,0.0,0.0,0.0,0.0,0.0,0.0,0.0,0.0,0.0,0.0,0.0,0.0,0.0,0.0,0.0,0.0,0.0,0.0,0.0,0.0,0.0,0.0,0.0,0.0,0.0,0.0,0.0,0.0,0.0,0.0,0.0,0.0,0.0,0.0,0.0,0.0,0.0,0.0,0.0,0.0,0.0,0.0,0.0,0.0,0.0,0.0,0.0,0.0,0.0,0.0,0.0,0.0,0.0,0.0,0.0,0.0,0.0,0.0,0.0,0.0,0.0,0.0,0.0,0.0,0.0,0.0,0.0,0.0,0.0,0.0,0.0,0.0,0.0,0.0,0.0,0.0,0.0,0.0,0.0,0.0,0.0,0.0,0.0,0.0,0.0,0.0,0.0,0.0,0.0,0.0,0.0,0.0,0.0,0.0,0.0,0.0,0.0,0.0,0.0,0.0,0.0,0.0,0.0,0.0,0.0,0.0,0.0,0.0,0.0,0.0,0.0,0.0,0.0,0.0,0.0,0.0,0.0,0.0,0.0,0.0,0.0,0.0,0.0,0.0,0.0,0.0,0.0,0.0,0.0,0.0,0.0,0.0,0.0,0.0,0.0,0.0,0.0,0.0,0.0,0.0,0.0,0.0,0.0,0.0,0.0,0.0,0.0,0.0,0.0,0.0,0.0,0.0,0.0,0.0,0.0,0.0,0.0,0.0,0.0,0.0,0.0,0.0,0.0,0.0,0.0,0.0,0.0,0.0,0.0,0.0,0.0,0.0,0.0,0.0,0.0,0.0,0.0,0.0,0.0,0.0,0.0,0.0,0.0,0.0,0.0,0.0,0.0,0.0,0.0,0.0,0.0,0.0,0.0,0.0,0.0,0.0,0.0,0.0,0.0,0.0,0.0,0.0,0.0,0.0,0.0,0.0,0.0,0.0,0.0,0.0,0.0,0.0,0.0,0.0,0.0,0.0,0.0,0.0,0.0,0.0,0.0,0.0,0.0,0.0,0.0,0.0,0.0,0.0,0.0,0.0,0.0,0.0,0.0,0.0,0.0,0.0,0.0,0.0,0.0,0.0,0.0,0.0,0.0,0.0,0.0,0.0,0.0,0.0,0.0,0.0,0.0,0.0,0.0,0.0,0.0,0.0,0.0,0.0,0.0,0.0,0.0,0.0,0.0,0.0,0.0,0.0,0.0,0.0,0.0,0.0,0.0,0.0,0.0,0.0,0.0,0.0,0.0,0.0,0.0,0.0,0.0,0.0,0.0,0.0,0.0,0.0,0.0,0.0,0.0,0.0,0.0,0.0,0.0,0.0,0.0,0.0,0.0,0.0,0.0,0.0,0.0,0.0,0.0,0.0,0.0,0.0,0.0,0.0,0.0,0.0,0.0,0.0,0.0,0.0,0.0,0.0,0.0,0.0,0.0,0.0,0.0,0.0,0.0,0.0,0.0,0.0,0.0,0.0,0.0,0.0,0.0,0.0,0.0,0.0,0.0,0.0,0.0,0.0,0.0,0.0,0.0,0.0,0.0,0.0,0.0,0.0,0.0,0.0,0.0,0.0,0.0,0.0,0.0,0.0,0.0,0.0,0.0,0.0,0.0,0.0,0.0,0.0,0.0,0.0,0.0,0.0,0.0,0.0,0.0,0.0,0.0,0.0,0.0,0.0,0.0,0.0,0.0,0.0,0.0,0.0,0.0,0.0,0.0,0.0,0.0,0.0,0.0,0.0,0.0,0.0,0.0,0.0,0.0,0.0,0.0,0.0,0.0,0.0,0.0,0.0,0.0,0.0,0.0,0.0,0.0,0.0,0.0,0.0,0.0,0.0,0.0,0.0,0.0,0.0,0.0,0.0,0.0,0.0,0.0,0.0,0.0,0.0,0.0,0.0,0.0,0.0,0.0,0.0,0.0,0.0,0.0,0.0,0.0,0.0,0.0,0.0,0.0,0.0,0.0,0.0,0.0,0.0,0.0,0.0,0.0,0.0,0.0,0.0,0.0,0.0,0.0,0.0,0.0,0.0,0.0,0.0,0.0,0.0,0.0,0.0,0.0,0.0,0.0,0.0,0.0,0.0,0.0,0.0,0.0,0.0,0.0,0.0,0.0,0.0,0.0,0.0,0.0,0.0,0.0,0.0,0.0,0.0,0.0,0.0,0.0,0.0,0.0,0.0,0.0,0.0,0.0,0.0,0.0,0.0,0.0,0.0,0.0,0.0,0.0,0.0,0.0,0.0,0.0,0.0,0.0,0.0,0.0,0.0,0.0,0.0,0.0,0.0,0.0,0.0,0.0,0.0,0.0,0.0,0.0,0.0,0.0,0.0,0.0,0.0,0.0,0.0,0.0,0.0,0.0,0.0,0.0,0.0,0.0,0.0,0.0,0.0,0.0,0.0,0.0,0.0,0.0,0.0,0.0,0.0,0.0,0.0,0.0,0.0,0.0,0.0,0.0,0.0,0.0,0.0,0.0,0.0,0.0,0.0,0.0,0.0,0.0,0.0,0.0,0.0,0.0,0.0,0.0,0.0,0.0,0.0,0.0,0.0,0.0,0.0,0.0,0.0,0.0,0.0,0.0,0.0,0.0,0.0,0.0,0.0,0.0,0.0,0.0,0.0,0.0,0.0,0.0,0.0,0.0,0.0,0.0,0.0,0.0,0.0,0.0,0.0,0.0,0.0,0.0,0.0,0.0,0.0,0.0,0.0,0.0,0.0,0.0,0.0,0.0,0.0,0.0,0.0,0.0,0.0,0.0,0.0,0.0,0.0,0.0,0.0,0.0,0.0,0.0,0.0,0.0,0.0,0.0,0.0,0.0,0.0,0.0,0.0,0.0,0.0,0.0,0.0,0.0,0.0,0.0,0.0,0.0,0.0,0.0,0.0,0.0,0.0,0.0,0.0,0.0,0.0,0.0,0.0,0.0,0.0,0.0,0.0,0.0,0.0,0.0,0.0,0.0,0.0,0.0,0.0,0.0,0.0,0.0,0.0,0.0,0.0,0.0,0.0,0.0,0.0,0.0,0.0,0.0,0.0,0.0,0.0,0.0,0.0,0.0,0.0,0.0,0.0,0.0,0.0,0.0,0.0,0.0,0.0,0.0,0.0,0.0,0.0,0.0,0.0,0.0,0.0,0.0,0.0,0.0,0.0,0.0,0.0,0.0,0.0,0.0,0.0,0.0,0.0,0.0,0.0,0.0,0.0,0.0,0.0,0.0,0.0,0.0,0.0,0.0,0.0,0.0,0.0,0.0,0.0,0.0,0.0,0.0,0.0,0.0,0.0,0.0,0.0,0.0,0.0,0.0,0.0,0.0,0.0,0.0,0.0,0.0,0.0,0.0,0.0,0.0,0.0,0.0,0.0,0.0,0.0,0.0,0.0,0.0,0.0,0.0,0.0,0.0,0.0,0.0,0.0,0.0,0.0,0.0,0.0,0.0,0.0,0.0,0.0,0.0,0.0,0.0,0.0,0.0,0.0,0.0,0.0,0.0,0.0,0.0,0.0,0.0,0.0,0.0,0.0,0.0,0.0,0.0,0.0,0.0,0.0,0.0,0.0,0.0,0.0,0.138,0.4126,0.4131,0.2609,0.0,0.0,0.0,0.0,0.0,0.0,0.0,0.0,0.0,0.0,0.0,0.0,0.0,0.0,0.0,0.0,0.0,0.0,0.0,0.0,0.0,0.0,0.0,0.0,0.0,0.0,0.0,0.0,0.0,0.0,0.0,0.0,0.0,0.0,0.0,0.0,0.0,0.0,0.0,0.0,0.0,0.0,0.0,0.0,0.0,0.0,0.0,0.0,0.0,0.0,0.0,0.0,0.0,0.0,0.0,0.0,0.0,0.0,0.0,0.0,0.0,0.0,0.0,0.0,0.0,0.0,0.0,0.0,0.0,0.0,0.0,0.0,0.1668,0.0,0.0,0.0,0.0,0.0,0.0,0.0,0.0,0.0,0.0,0.0,0.0,0.0,0.0,0.0,0.0,0.0,0.0,0.0,0.0,0.0,0.0,0.0,0.0,0.0,0.0,0.0,0.0,0.0,0.0,0.0,0.0,0.0,0.0,0.0,0.0,0.0,0.0,0.0982,0.3972,0.867,0.8781,0.6137,0.1565,0.0534,0.0,0.0,0.0,0.0,0.0,0.0,0.0,0.0,0.0,0.0,0.0,0.0,0.0,0.0,0.0,0.0,0.0,0.0,0.0,0.0,0.0,0.0,0.0,0.0,0.0,0.0,0.0,0.0,0.0,0.0,0.0,0.0,0.0,0.0,0.0,0.0,0.0,0.0,0.0,0.0,0.0,0.0,0.0,0.0,0.0,0.0,0.0,0.0,0.0,0.0,0.0,0.0,0.0,0.0,0.0,0.0,0.0,0.0,0.0,0.0,0.0,0.0,0.0,0.0,0.0,0.0,0.1337,0.2101,0.228,0.2297,0.4366,0.7243,0.2135,0.0,0.0,0.0,0.0,0.0,0.0,0.0,0.0,0.0,0.0,0.0,0.0,0.0,0.0,0.0,0.0,0.0,0.0,0.0,0.0,0.0,0.0,0.0,0.0,0.0,0.0,0.0,0.0,0.0,0.0,0.0,0.0,0.0,0.0,0.0,0.0,0.496,0.8075,0.9198,0.9194,0.8785,0.7838,0.2365,0.0,0.0,0.0,0.0,0.0,0.0,0.0,0.0,0.0,0.0,0.0,0.0,0.0,0.0,0.0,0.0,0.0,0.0,0.0,0.0,0.0,0.0,0.0,0.0,0.0,0.0,0.0,0.0,0.0,0.0,0.0,0.0,0.0,0.0,0.0,0.0,0.0,0.0,0.0,0.0,0.0,0.0,0.0,0.0,0.0,0.0,0.0,0.0,0.0,0.0,0.0,0.0,0.0,0.0,0.0,0.0,0.0,0.0,0.0,0.0,0.0,0.0,0.0,0.0,0.0,0.0159,0.6458,1.0217,1.1616,1.1635,0.0,0.1191,0.0295,0.0,0.0,0.0,0.0,0.0,0.0,0.0,0.0,0.0,0.0,0.0,0.0,0.0,0.0,0.0,0.0,0.0,0.0,0.0,0.0,0.0,0.0,0.0,0.0,0.0,0.0,0.0,0.0,0.0,0.0,0.0,0.0,0.0,0.0,0.1743,0.5164,0.7752,0.9253,0.9723,0.9628,0.9717,0.9541,0.6851,0.5265,0.4794,0.4831,0.0,0.0,0.0,0.0,0.0,0.0,0.0,0.0,0.0,0.0,0.0,0.0,0.0,0.0,0.0,0.0,0.0,0.0,0.0,0.0,0.0,0.0,0.0,0.0,0.0,0.0,0.0,0.0,0.0,0.0,0.0,0.0,0.0,0.0,0.0,0.0,0.0,0.0,0.0,0.0,0.0,0.0,0.0,0.0,0.0,0.0,0.0,0.0,0.0,0.0,0.0,0.0,0.0,0.0,0.0,0.0,0.0,0.3982,0.5997,0.6029,0.6998,0.757,0.7562,1.0835,1.2888,1.3853,1.3566,1.1191,0.7455,0.7594,0.8963,1.0887,0.0,0.0,0.0,0.0,1.0346,1.0528,0.0,0.0,0.0,0.0,0.0,0.0,0.0,0.0,0.0,0.0,0.0,0.0,0.0,0.0,0.0,0.0,0.0,0.0,0.0,0.0,0.0,0.0,0.0,0.0,0.0,0.152,0.4744,0.9498,0.9512,0.874,0.7498,0.9241,1.0128,1.0112,1.018,0.9678,0.9019,0.887,0.8292,0.7205,0.0,0.0,0.0,0.0,0.0,0.0,0.0,0.0,0.0,0.0,0.0,0.0,0.0,0.0,0.0,0.0,0.0,0.0,0.0,0.0,0.0,0.0,0.0,0.0,0.0,0.0,0.0,0.0,0.0,0.0,0.0,0.0,0.0,0.0,0.0,0.0,0.0,0.0,0.0,0.0,0.0,0.0,0.0,0.0,0.0,0.0,0.0,0.0,0.0,0.0,0.0,0.0,0.1742,0.2905,0.3345,0.8822,1.1675,1.1584,1.2922,1.3674,1.3654,1.368,1.3847,1.4326,1.382,1.3634,1.3541,1.3401,1.3461,1.3303,1.1848,1.1341,1.1403,1.1328,1.1959,1.2777,0.0,0.0,0.0,0.0,0.0,0.0,0.0,0.0,0.0,0.0,0.0,0.0,0.0,0.0,0.0,0.0,0.0,0.0,0.0,0.0,0.0,0.0,0.0,0.0,0.0,0.577,0.9243,0.9937,0.9911,0.6662,0.0634,0.7553,1.0695,1.0695,1.0689,1.0398,0.9888,0.9523,0.8943,0.8386,0.7331,0.0,0.0,0.0,0.0,0.0,0.0,0.0,0.0,0.0,0.0,0.0,0.0,0.0,0.0,0.0,0.0,0.0,0.0,0.0,0.0,0.0,0.0,0.0,0.0,0.0,0.0,0.0,0.0,0.0,0.0,0.0,0.0,0.0,0.0,0.0,0.0,0.0,0.0,0.0,0.0,0.0,0.0,0.0,0.0,0.0,0.0,0.0,0.0,0.0,0.0,0.0,0.6676,1.094,1.2661,1.3702,1.4129,1.4108,1.4292,1.4292,1.4285,1.4236,1.4222,1.4285,1.4236,1.4222,1.4251,1.3555,1.3345,1.3457,1.3274,1.3324,1.3288,1.3275,1.3228,1.3429,0.0,0.0,0.0,0.0,0.0,0.085,0.3332,0.1603,0.0,0.0,0.0,0.0,0.0,0.0,0.0,0.0,0.0,0.0,0.0,0.0,0.0,0.0,0.0,0.0,0.0,0.2229,0.3393,0.3546,0.3514,0.471,0.6989,0.9568,1.0623,1.0777,1.0777,1.0639,1.0379,1.0015,0.9628,0.9513,0.8811,0.8049,0.0,0.0,0.0,0.0,0.0,0.0,0.0,0.0,0.0,0.0,0.0,0.0,0.0,0.0,0.0,0.0,0.0,0.0,0.0,0.0,0.0,0.0,0.0,0.0,0.0,0.0,0.0,0.0,0.0,0.0,0.0,0.0,0.0,0.0,0.0,0.0,0.0,0.0,0.0,0.0,0.0,0.0,0.0,0.0,0.0,0.1966,0.6693,0.7274,0.7905,0.9131,1.1664,1.3539,1.4572,1.4805,1.4924,1.4922,1.4922,1.497,1.4869,1.4916,1.4916,1.4869,1.4923,1.4916,1.4855,1.4652,1.4306,1.3899,1.3899,1.3974,1.402,1.3961,1.3995,1.4016,0.0,0.0,0.0,0.0257,0.0,0.0871,0.3345,0.1653,0.0,0.0,0.0,0.0,0.0,0.0,0.0,0.0,0.0,0.0,0.0,0.0,0.0,0.0,0.0,0.0,0.0,0.0,0.1233,0.354,0.3606,0.597,1.0688,1.0775,1.0661,1.0688,1.0688,1.0624,1.0661,1.0422,1.0208,1.0191,0.9746,0.8856,0.7915,0.0,0.0,0.0,0.0,0.0,0.0,0.0,0.0,0.0,0.0,0.0,0.0,0.0,0.0,0.0,0.0,0.0,0.0,0.0,0.0,0.0,0.0,0.0,0.0,0.0,0.0,0.0,0.0,0.0,0.0,0.0,0.0,0.0,0.0,0.0,0.0,0.0,0.2339,0.3805,0.3931,0.2743,0.263,0.4292,0.4407,0.6589,1.1291,1.2267,1.3293,1.457,1.4611,1.4881,1.5202,1.525,1.519,1.5194,1.5389,1.5444,1.5533,1.5533,1.5533,1.5533,1.5533,1.5533,1.5526,1.543,1.521,1.4544,1.4529,1.4634,1.4634,1.4634,1.4634,1.4634,0.0,0.0,0.4572,0.0805,0.0179,0.018,0.0,0.0,0.0,0.0,0.0,0.0,0.0,0.0,0.0,0.0,0.0,0.0,0.0,0.0,0.0,0.0,0.0,0.0,0.0,0.0155,0.3672,1.0623,1.0721,1.0661,1.0779,1.0758,1.0641,1.0751,1.0751,1.0688,1.0752,1.0752,1.0655,1.0679,1.0145,0.9695,0.9242,0.0,0.0,0.0,0.0,0.0,0.0,0.0,0.0,0.0,0.0,0.0,0.0,0.0,0.0,0.0,0.0,0.0,0.0,0.0,0.0,0.0,0.0,0.0,0.0,0.0,0.0,0.0,0.0,0.0,0.0,0.0,0.0,0.0,0.0,0.0,0.0155,0.0315,0.6902,1.1524,1.1524,0.8081,0.8027,1.2929,1.3292,1.3394,1.3288,1.457,1.5258,1.519,1.5133,1.5269,1.5221,1.5169,1.5241,1.5248,1.5849,1.6057,1.6064,1.6064,1.607,1.607,1.607,1.6064,1.6064,1.6057,1.5849,1.5195,1.519,1.5146,1.5146,1.5146,1.5146,1.5146,0.5735,0.5741,0.5384,0.43,0.4176,0.323,0.0376,0.0,0.0,0.0,0.0,0.0,0.0,0.0,0.0,0.0,0.0,0.0,0.0,0.0,0.0,0.0,0.0,0.0,0.0,0.5142,0.8743,1.0683,1.0699,1.0763,1.0709,1.1058,1.1246,1.1279,1.1279,1.1262,1.1229,1.0875,1.0752,1.0693,1.0495,1.0463,1.026,0.0,0.0,0.0,0.0,0.0,0.0,0.0,0.0,0.0,0.0,0.0,0.0,0.0,0.0,0.0,0.0,0.0,0.0,0.0,0.0,0.0,0.0,0.0,0.0,0.0,0.0,0.0,0.0,0.0,0.0,0.0,0.0,0.0,0.0,0.0,0.2148,0.7702,1.0501,1.2265,1.2774,1.1919,1.1704,1.3183,1.4289,1.5039,1.5018,1.532,1.5458,1.5254,1.5691,1.5931,1.578,1.5822,1.589,1.5798,1.611,1.6022,1.613,1.6031,1.6071,1.6071,1.6071,1.6018,1.6117,1.6008,1.6096,1.5771,1.5301,1.52,1.52,1.52,1.52,1.52,0.5735,0.5735,0.5741,0.5741,0.5663,0.4374,0.0569,0.0,0.0,0.0,0.0,0.0,0.0,0.0,0.0,0.0,0.0,0.0,0.0,0.0,0.0,0.0,0.0,0.1421,0.4365,0.861,1.0634,1.0763,1.0976,1.1058,1.0998,1.1351,1.1552,1.1428,1.1428,1.1575,1.1524,1.1172,1.1107,1.0982,1.077,1.0633,1.0745,1.0439,0.9854,0.9008,0.8802,0.6798,0.3799,0.0929,0.0,0.0,0.0,0.0,0.0,0.0,0.0,0.0,0.0,0.0,0.0,0.0,0.0,0.0,0.0,0.0,0.0,0.0,0.0,0.0,0.0,0.0,0.0,0.0,0.268,0.5248,0.6279,0.5583,0.6215,0.9431,1.1373,1.2764,1.3528,1.3531,1.348,1.3707,1.4673,1.5242,1.5574,1.5664,1.5581,1.5522,1.5791,1.6062,1.6124,1.6179,1.6056,1.613,1.6018,1.6307,1.6402,1.6483,1.6524,1.6524,1.6524,1.6476,1.6395,1.63,1.6011,0.0,0.0,0.0,0.0,0.0,1.5635,1.5635,0.5735,0.5735,0.5735,0.5735,0.5663,0.4564,0.1231,0.03,0.0,0.0,0.0,0.0,0.0,0.0,0.0,0.0,0.0,0.0,0.0,0.0,0.0,0.0,0.0796,0.4212,1.0617,1.0661,1.0774,1.0784,1.1246,1.1535,1.1472,1.1472,1.1527,1.1455,1.1455,1.1572,1.1472,1.1472,1.158,1.1474,1.0945,1.0747,1.0749,1.0736,1.0682,1.0685,1.0191,1.0129,0.9109,0.3268,0.0,0.0,0.0,0.0,0.0,0.0,0.0,0.0,0.0,0.0,0.0,0.0,0.0,0.0,0.0,0.0,0.0,0.0,0.0,0.0,0.0,0.0,0.0,0.0,0.7458,1.2582,1.4738,1.3584,1.1465,0.8607,1.1076,1.3236,1.3897,1.3845,1.3971,1.4656,1.48,1.5142,1.5683,0.0,0.0,0.0,0.0,1.6191,1.6125,1.6245,1.6101,1.6101,1.6121,1.6544,1.6974,1.6988,1.6995,1.6995,1.6995,1.6988,1.6967,1.6339,1.6121,1.6259,1.6151,1.614,1.614,1.614,1.614,1.614,0.5735,0.5735,0.5735,0.5735,0.5736,0.5601,0.5242,0.223,0.0,0.0,0.0,0.0,0.0,0.0,0.0,0.0,0.0,0.0,0.0,0.0,0.0,0.0,0.5596,0.9226,1.0704,1.0736,1.0843,1.1378,1.1406,1.1478,1.1422,1.1422,1.1433,1.1455,1.1455,1.1444,1.1422,1.1422,1.1527,1.1417,1.1417,1.1139,1.0635,1.064,1.0672,1.071,1.0545,1.0515,1.0308,0.9015,0.4801,0.0,0.0,0.0,0.0,0.0,0.0,0.0,0.0,0.0,0.0,0.0,0.0,0.0,0.0,0.0,0.0,0.0,0.0,0.0,0.0,0.0,0.0,1.0238,1.3226,1.4306,1.3971,1.401,1.3801,1.274,1.3573,1.4177,1.4358,1.459,1.4751,1.5355,1.5488,1.5832,1.5988,1.611,1.6246,1.6179,1.6415,1.6456,1.6898,1.6925,1.6735,1.6735,0.0,0.0,1.6927,1.7051,1.7106,1.7106,1.7106,1.7037,1.692,1.692,1.6845,1.6721,1.6192,1.6138,1.6138,1.6138,1.6138,1.6138,0.5735,0.5735,0.5735,0.5735,0.566,0.5431,0.4763,0.2033,0.0,0.0,0.0,0.0,0.0,0.0,0.0,0.0,0.0,0.0,0.0,0.0,0.0,0.0,0.6888,1.0725,1.0758,1.1041,1.1156,1.145,1.1511,1.1572,1.1455,1.1455,1.1455,1.1455,1.1455,1.1455,1.1455,1.1455,1.1422,1.1544,1.1544,1.133,1.1079,1.1079,1.1147,1.1075,1.078,1.0672,1.071,1.0644,0.5877,0.0,0.0,0.0,0.0,0.0,0.0,0.0,0.0,0.0,0.0,0.0,0.0,0.0,0.0,0.0,0.0,0.0,0.0,0.2591,0.6527,0.0,0.5365,1.0243,1.2922,1.4584,1.4584,1.448,1.4377,1.4158,1.4455,1.4858,1.503,1.5228,1.5582,1.5852,1.6001,1.6144,1.6293,1.6374,1.6449,1.6517,1.6592,1.6639,1.6852,1.6927,1.6968,1.6968,1.7044,1.7078,1.7085,1.6944,1.6978,1.6978,1.6978,1.6937,1.7078,1.7078,1.703,1.6962,1.6748,1.6446,1.6524,1.6524,1.6524,1.6524,0.5735,0.5735,0.5735,0.5735,0.566,0.5237,0.3711,0.1523,0.0,0.0,0.0,0.0,0.0,0.0,0.0,0.0,0.0,0.0,0.0,0.0,0.0,0.0,0.6792,1.0795,1.0784,1.134,1.1461,1.1483,1.1583,1.1455,1.1455,1.1455,1.1455,1.1455,1.1455,1.1455,1.1455,1.1455,1.1455,1.1455,1.1455,1.1455,1.1433,1.1395,1.1474,1.1262,1.096,1.0731,1.0683,1.0677,0.6783,0.1815,0.049,0.0,0.0,0.0,0.0,0.0,0.0,0.0,0.0,0.0,0.0,0.0,0.0,0.1022,0.1332,0.1369,0.2671,0.5823,1.2086,1.0884,0.9083,0.9139,1.2012,1.4461,1.541,1.5107,1.4741,1.4741,1.495,1.5301,1.5723,1.5859,1.6001,1.6157,1.6279,1.6415,1.6558,1.6564,1.6578,1.6612,1.6734,1.6795,1.6795,1.6917,1.6978,1.6978,1.6978,1.6978,1.6978,1.6978,1.6978,1.6978,1.6978,1.6978,1.6978,1.6978,1.6978,1.6978,1.6978,1.7044,1.7037,1.7037,1.7037,1.7037,0.5735,0.5741,0.5657,0.5657,0.5665,0.5631,0.5446,0.2341,0.0,0.0,0.0,0.0,0.0,0.0,0.0,0.0,0.0,0.0,0.0,0.0,0.0,0.0,0.6792,1.0838,1.1429,1.1384,1.1505,1.1433,1.1449,1.1455,1.1455,1.1455,1.1455,1.1455,1.1455,1.1455,1.1455,1.1455,1.1455,1.1455,1.1455,1.1455,1.1438,1.1302,1.1014,1.0735,1.0965,1.0851,1.0753,1.0748,1.0237,0.8365,0.1984,0.0,0.0,0.0,0.0,0.0,0.0,0.0,0.0,0.0,0.1179,0.2403,0.0,0.4521,0.6314,0.6356,0.6679,0.7656,0.9257,1.1948,1.4016,1.4348,1.4977,1.541,1.5371,1.5615,1.5778,1.5778,1.5811,1.5886,1.6022,1.6171,1.632,1.6463,1.649,1.6564,1.6714,1.672,1.6788,1.6924,1.6944,1.6951,1.6951,1.6971,1.6978,1.6978,1.6978,1.6978,1.6978,1.6978,1.6978,1.6978,1.6978,1.6978,1.6978,1.6978,1.6978,1.6978,1.6978,1.6958,1.6931,1.6931,1.6931,1.6931,0.5741,0.5746,0.5679,0.5663,0.5722,0.5661,0.5731,0.2459,0.0,0.0,0.0,0.0,0.0,0.0,0.0,0.0,0.0,0.0,0.0,0.3833,0.6155,0.6211,0.9178,1.1003,1.1451,1.1569,1.1511,1.1455,1.1455,1.1455,1.1455,1.1455,1.1455,1.1455,1.1455,1.1455,1.1455,1.1455,1.1455,1.1455,1.1455,1.1411,1.134,1.1291,1.0982,1.0625,1.0775,1.0677,0.0,1.0563,1.0552,1.024,0.715,0.3302,0.0,0.0,0.0,0.0303,0.1345,0.1636,0.1498,0.0933,0.2995,0.5448,0.6186,0.7387,0.8782,1.1014,1.049,1.0228,1.2028,1.2847,1.3653,1.5011,1.5465,1.552,1.5649,1.5852,1.6022,1.611,1.6191,1.6232,1.6218,1.6347,1.6497,1.6646,1.6653,1.672,1.6876,1.6883,1.691,1.6978,1.6978,1.6978,1.6978,1.6978,1.6978,1.6978,1.6978,1.6978,1.6978,1.6978,1.6978,1.6978,1.6978,1.6978,1.6978,1.6978,1.6978,1.6978,1.6978,1.6978,1.6978,1.6978,1.6978,1.6978,0.5741,0.5499,0.5189,0.4935,0.5327,0.5326,0.4317,0.1744,0.0,0.0,0.0,0.0,0.0,0.0,0.0,0.0,0.0,0.0,0.0,0.6762,1.0694,1.0732,1.0704,1.0982,1.1401,1.1345,1.1445,1.1357,1.1389,1.1406,1.1406,1.1438,1.1455,1.1455,1.1455,1.1455,1.1455,1.1455,1.1455,1.1455,1.1417,1.1351,1.1089,1.1199,1.0854,1.0624,1.0617,1.0536,1.0487,1.0335,1.0456,1.0501,1.0683,0.7173,0.2556,0.0619,0.122,0.3052,0.5292,0.4381,0.2842,0.3268,0.4676,0.6636,0.9012,0.9212,0.9971,1.3324,1.2945,1.2665,1.4726,1.3889,1.3743,1.516,1.5554,1.5764,1.5954,1.6076,1.6198,1.6347,1.6497,1.6544,1.6442,1.6524,1.6646,1.6802,1.6815,1.6863,1.6978,1.6978,1.6978,1.6978,1.6978,1.6978,1.6978,1.6978,1.6978,1.6978,1.6978,1.6978,1.6978,1.6978,1.6978,1.6978,1.6978,1.6978,1.6978,1.6978,1.6978,1.6978,1.6978,1.6978,1.6978,1.6978,1.6978,1.6978,0.5735,0.4818,0.3892,0.3122,0.4454,0.4422,0.0785,0.0101,0.0,0.0,0.0,0.0,0.0,0.0,0.0,0.0,0.0,0.0,0.0,0.6672,1.0774,1.0766,1.0661,1.0768,1.0927,1.1047,1.1112,1.129,1.14,1.1456,1.1281,1.14,1.1455,1.1455,1.1455,1.1455,1.1455,1.1455,1.1455,1.1444,1.1324,1.1275,1.1248,1.1014,1.078,1.0563,1.0558,1.0487,1.0356,1.0112,1.003,1.0041,1.0565,1.0571,0.8939,0.1985,0.4322,0.9764,1.3094,0.8563,0.3758,0.7765,0.5763,0.4489,0.9784,0.9793,0.945,1.1576,1.3548,1.4997,1.514,1.5296,1.5499,1.5784,1.5839,1.5954,1.6252,1.63,1.6354,1.6497,1.6653,1.6741,1.6734,1.6741,1.6809,1.6965,1.6971,1.6978,1.6978,1.6978,1.6978,1.6978,1.6978,1.6978,1.6978,1.6978,1.6978,1.6978,1.6978,1.6978,1.6978,1.6978,1.6978,1.6978,1.6978,1.6978,1.6978,1.6978,1.6978,1.6978,1.6978,1.6978,1.6978,1.6978,1.6978,1.6978,0.5905,0.5646,0.5298,0.5252,0.3418,0.1477,0.02,0.0,0.0,0.0,0.0,0.0,0.0,0.0,0.0,0.0,0.0,0.0,0.0,0.4389,0.8039,1.056,1.0694,1.0759,1.0916,1.096,1.102,1.1101,1.1139,1.1161,1.0988,1.1199,1.1221,1.1221,1.1221,1.1221,1.1221,1.1221,1.1221,1.1221,1.1177,1.1112,1.1009,1.077,1.0579,1.04,0.0,0.9949,1.0064,0.9829,0.965,0.9687,1.0014,1.044,1.0117,0.7009,0.5722,0.556,0.7623,0.5604,0.3598,0.6359,0.6819,0.7628,1.1079,1.2414,1.3186,1.3877,1.454,1.4862,1.5018,1.516,1.5323,1.5527,1.5893,1.6191,1.6293,1.6476,1.6619,1.6666,1.6809,1.6904,1.6904,1.6904,1.6924,1.6978,1.6978,1.6978,1.6978,1.6978,1.6978,1.6978,1.6978,1.6978,1.6978,1.6978,1.6978,1.6978,1.6978,1.6978,1.6985,1.708,1.7127,1.7346,1.7229,1.7056,1.7049,1.7049,1.7049,1.7049,1.7049,1.7049,1.7049,1.7049,1.7049,1.7023,0.6137,0.6168,0.6205,0.6331,0.3422,0.0,0.0,0.0,0.0,0.0,0.0,0.0,0.0,0.0,0.0,0.0,0.0,0.0,0.0,0.2927,0.6308,1.0101,1.0208,1.0297,1.0525,1.0541,1.0601,1.0715,1.0846,1.0905,1.0911,1.1041,1.1101,1.1101,1.1101,1.1101,1.1101,1.1101,1.1128,1.115,1.0976,1.0884,1.0813,1.0443,1.0199,0.0,0.9666,0.9519,0.9645,0.9684,0.9404,0.9287,0.8829,0.879,0.8845,0.8701,0.7511,0.6655,0.8107,0.7199,0.6189,0.8565,0.9019,0.9631,1.2562,1.3541,1.4313,1.4973,1.495,1.4787,1.4943,1.5086,1.5201,1.5248,1.5757,1.6164,1.6218,1.6435,1.6653,1.6815,1.6917,1.6978,1.6978,1.6978,1.6978,1.6978,1.6978,1.6978,1.6978,1.6978,1.6978,1.6978,1.6978,1.6978,1.6978,1.6978,1.7005,1.706,1.7114,1.7134,1.7141,1.7236,1.749,1.7497,1.7378,1.7419,1.7419,1.7419,1.7419,1.7419,1.7419,1.7419,1.7419,1.7419,1.7419,1.7392,0.6464,0.6556,0.654,0.0,0.0,0.0,0.0,0.0,0.0,0.0,0.0,0.0,0.0,0.0,0.0,0.0,0.0,0.0,0.0,0.249,0.5548,0.9125,0.9573,0.975,0.9813,1.0151,1.0213,1.0003,1.0346,1.0514,1.0525,1.0873,1.1041,1.1047,1.1047,1.1047,1.1047,1.1047,1.1112,1.1166,1.0704,1.0585,1.0628,1.0036,0.9671,0.9459,0.9334,0.9226,0.9308,0.9264,0.9307,0.9034,0.7152,0.6286,0.6352,0.759,0.9766,1.2383,1.4215,1.2644,1.1389,1.4152,1.2085,1.0266,1.4247,1.367,1.2899,1.4785,1.4923,1.476,1.4896,1.5052,1.512,1.4991,1.5486,1.594,1.6083,1.6246,1.6503,1.6931,1.6978,1.6978,1.6978,1.6978,1.6978,1.6978,1.6978,1.6978,1.6978,1.6978,1.6978,1.6978,1.6978,1.6985,1.6992,1.6998,1.7073,1.7209,1.7351,1.7419,1.7419,1.7433,1.7433,1.7655,1.7662,1.7669,1.7892,1.7892,1.7892,1.7892,1.7892,1.7892,1.7892,1.7892,1.7892,1.7885,0.0,0.0,0.0,0.0,0.0,0.0,0.0,0.0,0.0,0.0,0.0,0.0,0.0,0.0,0.0,0.0,0.0,0.0,0.0,0.251,0.524,0.8117,0.889,0.934,0.9568,0.9733,0.9794,0.9758,0.9851,0.9938,1.0019,1.0117,1.021,1.0297,1.0297,1.0297,1.0297,1.0297,1.0313,1.0324,1.0106,1.0036,1.0019,0.9601,0.94,0.9323,0.9117,0.9084,0.9144,0.9319,0.9966,1.0865,1.0537,1.0531,1.0656,1.1356,1.1426,1.134,1.181,1.0886,1.0248,1.2713,1.233,1.2281,1.4774,1.4884,1.4552,1.4711,1.4618,1.4387,1.4312,1.4604,1.4875,1.4957,1.575,1.6368,1.6402,1.6639,1.6849,1.6965,1.6978,1.6978,1.6978,1.6978,1.6978,1.6978,1.6978,1.6978,1.6978,1.6978,1.6978,1.6978,1.6978,1.7032,1.7141,1.7249,1.7324,1.7365,1.7399,1.7419,1.7426,1.7541,1.7589,1.7595,1.7704,1.7758,1.7978,1.7978,1.7978,1.7978,1.7978,1.7978,1.7978,1.7978,1.7978,1.7978,0.0,0.0,0.0,0.0,0.0,0.0,0.0,0.0,0.0,0.0,0.0,0.0,0.0,0.0,0.0,0.0,0.0,0.0,0.0,0.1329,0.3862,0.7612,0.8296,0.8704,0.8932,0.8992,0.9106,0.9275,0.9383,0.9492,0.9606,0.9715,0.9802,0.9867,0.9867,0.9867,0.9867,0.9867,0.9894,0.0,0.0,0.9601,0.9557,0.9144,0.8986,0.8965,0.8785,0.9065,0.9529,1.0046,1.0619,1.1207,1.1591,1.1955,1.2507,1.2997,1.2935,1.2669,1.2776,1.2539,1.2422,1.3661,1.3777,1.4031,1.5053,1.5045,1.4808,1.4509,1.4156,1.3899,1.3878,1.4245,1.4577,1.4665,1.5547,1.6252,1.632,1.6592,1.6829,1.6965,1.6978,1.6978,1.6978,1.6978,1.6978,1.6978,1.6978,1.6978,1.6978,1.6978,1.6978,1.6978,1.7039,1.7148,1.729,1.7446,1.7521,1.7521,1.7582,1.7616,1.7616,1.7704,1.7738,1.7758,0.0,1.786,1.786,1.786,1.786,1.786,1.786,1.786,1.786,1.786,1.786,1.786,0.0,0.0,0.0,0.0,0.0,0.0,0.0,0.0,0.0,0.0,0.0,0.0,0.0,0.0,0.0,0.0,0.0,0.0,0.0,0.0,0.2129,0.6731,0.7559,0.7959,0.816,0.8274,0.8448,0.8677,0.8889,0.9057,0.9193,0.9405,0.9514,0.9525,0.9525,0.9525,0.9525,0.9525,0.9584,0.9644,0.9318,0.9188,0.9139,0.0,0.8541,0.8535,0.8481,0.9103,1.0105,1.1085,1.1221,1.1213,1.1764,1.23,1.2964,1.3526,1.4236,1.4753,1.5316,1.5567,1.5669,1.5669,1.5554,1.535,1.5018,1.4719,1.4414,1.4055,1.3675,1.3431,1.3526,1.3926,1.4258,1.4319,1.5167,1.59,1.611,1.6374,1.6659,1.6944,1.6978,1.6978,1.6978,1.6978,1.6978,1.6978,1.6978,1.6978,1.6978,1.6978,1.6992,1.7012,1.7168,1.7317,1.7453,1.7602,1.7684,1.7684,1.7812,1.786,1.786,1.786,1.786,1.786,1.786,1.786,1.786,1.786,1.786,1.786,1.786,1.786,1.786,1.786,1.786,1.786,0.0,0.0,0.0,0.0,0.0,0.0,0.0,0.0,0.0,0.0,0.0,0.0,0.0,0.0,0.0,0.0,0.0,0.0,0.0,0.0,0.0,0.413,0.6396,0.7541,0.779,0.7818,0.7943,0.8176,0.822,0.8356,0.8573,0.8617,0.8687,0.8774,0.8774,0.8774,0.8774,0.8774,0.8785,0.8791,0.8633,0.8573,0.8552,0.8367,0.8296,0.0,0.8611,0.9243,1.0105,1.1079,1.1817,1.2527,1.3343,1.3867,1.4196,1.4848,1.5113,1.533,1.5683,1.5798,1.5818,1.5818,1.571,1.5459,1.4903,1.4638,1.4326,1.3654,1.3458,1.3336,1.3119,1.3539,1.4041,1.4414,1.5153,1.5859,1.6374,1.6598,1.6775,1.6958,1.6978,1.6978,1.6978,1.6978,1.6978,1.6978,1.6978,1.6978,1.6978,1.6978,1.7032,1.7154,1.7426,1.7582,1.7609,1.7758,1.7826,1.7826,1.7846,1.786,1.786,1.786,1.786,1.786,1.786,0.0,1.786,1.786,1.786,1.786,1.786,1.786,1.786,1.786,1.786,1.786,0.0,0.0,0.0,0.0,0.0,0.0,0.0,0.0,0.0,0.0,0.0,0.0,0.0,0.0,0.0,0.0,0.0,0.0,0.0,0.0,0.0,0.3439,0.6018,0.7354,0.7508,0.7573,0.7693,0.7872,0.0,0.7959,0.8133,0.8198,0.8258,0.8312,0.8378,0.8405,0.8405,0.8405,0.8405,0.8399,0.8345,0.8285,0.822,0.816,0.8182,0.0,0.8568,0.9221,1.007,1.084,1.1673,1.2788,1.3707,1.4326,1.4706,1.5072,1.535,1.5574,1.5798,1.5913,1.5954,1.5872,1.5744,1.5438,1.4685,1.4333,1.3933,1.3105,1.2874,1.28,1.2732,1.3085,1.3553,1.4075,1.4862,1.5581,1.6103,1.6503,1.6809,1.6965,1.6978,1.6978,1.6978,1.6978,1.6978,1.6978,1.7046,1.7087,1.7087,1.7168,1.7277,1.7426,1.7568,1.7684,1.7758,1.7826,1.786,1.786,1.786,1.786,1.786,1.786,1.786,1.786,1.786,0.0,1.786,1.786,1.786,1.786,1.786,1.786,1.786,1.786,1.786,1.786,0.0,0.0,0.0,0.0,0.0,0.0,0.0458,0.0,0.0,0.0,0.0,0.0,0.0,0.0,0.0,0.0,0.0,0.0,0.0,0.0,0.0,0.0,0.0,0.0,0.7296,0.0,0.0,0.7622,0.7622,0.0,0.0,0.0,0.0,0.0,0.804,0.8084,0.8084,0.8084,0.8084,0.0,0.0,0.804,0.7981,0.0,0.0,0.0,0.0,0.9257,1.0114,1.0596,1.1581,1.2761,1.3688,1.4211,1.4658,1.4991,1.5282,1.5547,1.5784,1.592,1.5961,1.5839,1.5676,1.5303,1.4407,1.3966,1.3498,1.2637,1.2338,1.2284,1.2427,1.2678,1.3071,1.3695,1.4441,1.516,1.5764,1.6286,1.67,1.6951,1.6978,1.6978,1.6978,1.6978,1.6978,1.6978,1.7141,1.7243,1.7243,1.7385,1.7521,1.765,1.7684,1.7758,1.786,1.786,1.786,1.786,1.786,1.786,1.786,1.786,1.786,1.786,1.786,0.0,0.0,1.786,1.786,1.786,1.786,1.786,1.786,1.786,1.786,1.786,0.0,0.0,0.0,0.0,0.0,0.0,0.0688,0.0,0.0,0.0,0.0,0.0,0.0,0.0,0.0,0.0,0.0,0.0,0.0,0.0,0.0,0.0,0.0,0.0,0.0,0.0,0.0,0.7372,0.7372,0.0,0.0,0.0,0.0,0.0,0.0,0.7584,0.7584,0.7584,0.0,0.0,0.0,0.0,0.0,0.0,0.0,0.0,0.0,0.9075,1.015,1.0535,1.1476,1.2474,1.3071,1.3661,1.4217,1.4652,1.4903,1.5153,1.5703,1.5771,1.5676,1.5662,1.5438,1.4991,1.4089,1.3654,1.3227,1.2467,1.2189,1.2128,1.2284,1.244,1.2786,1.3526,1.3946,1.457,1.5696,1.6022,1.6354,1.6917,1.6978,1.6978,1.6978,1.6978,1.6978,1.6978,1.7243,1.7399,1.7399,1.7548,1.7629,1.765,1.7772,1.7846,1.786,1.786,1.786,1.786,1.786,1.786,1.786,1.786,1.786,1.786,1.786,0.0,0.0,1.786,1.786,1.786,1.786,1.786,1.786,1.786,1.786,1.786,0.0,0.0,0.0,0.0,0.0,0.0,0.2674,0.095,0.0,0.0,0.0,0.0,0.0,0.0,0.0,0.0,0.0,0.0,0.0,0.0,0.0,0.0,0.0,0.0,0.0,0.0,0.7176,0.7225,0.7225,0.0,0.0,0.0,0.0,0.0,0.0,0.7519,0.7519,0.7519,0.0,0.0,0.0,0.0,0.0,0.0,0.0,0.0,0.0,0.0,0.9591,1.0187,1.097,1.1755,1.2291,1.2779,1.3458,1.4448,1.4787,1.4964,1.556,1.5683,1.5594,1.5411,1.514,1.4679,1.3783,1.3349,1.2922,1.2169,1.1965,1.1938,1.1999,1.2135,1.2427,1.2996,1.3559,1.419,1.4943,1.5642,1.6205,1.6537,1.6815,1.6978,1.6978,1.6978,1.7053,1.7229,1.7439,1.7595,1.7684,1.7738,1.7772,1.7772,1.7826,1.786,1.786,1.786,1.786,1.786,1.786,1.786,1.786,1.786,1.786,1.786,1.786,0.0,0.0,1.786,1.786,1.786,1.786,1.786,1.786,1.786,1.786,1.786,0.0,0.0,0.0,0.0,0.0,0.6401,0.3992,0.1556,0.0,0.0,0.0,0.0,0.0,0.0,0.0,0.0,0.0,0.0,0.0,0.0,0.0,0.0,0.0,0.0,0.0,0.0,0.7171,0.7209,0.7209,0.7225,0.0,0.0,0.7372,0.7339,0.0,0.0,0.0,0.0,0.0,0.0,0.0,0.0,0.0,0.0,0.0,0.0,0.0,0.0,0.0,0.0,0.0,1.1424,1.1657,1.2121,1.2698,1.3871,1.434,1.4597,1.5153,1.5337,1.533,1.516,1.4794,1.4285,1.3566,1.3071,1.2583,1.1959,1.1796,1.1782,1.1823,1.1959,1.221,1.2657,1.3241,1.3844,1.4428,1.5228,1.5859,1.6144,1.6497,1.6748,1.6836,1.6965,1.7148,1.7399,1.7561,1.7717,1.786,1.786,1.786,1.786,1.786,1.786,1.786,1.786,1.786,1.786,1.786,1.786,1.786,1.786,1.786,1.786,1.786,1.786,0.0,1.786,1.786,1.786,1.786,1.786,1.786,1.786,1.786,1.786,0.0,0.0,0.0,0.0,0.0,0.0,0.3998,0.1572,0.0,0.0,0.0,0.0,0.0,0.0,0.0,0.0,0.0,0.0,0.0,0.0,0.0,0.0,0.0,0.0,0.0,0.0,0.7214,0.7334,0.7334,0.7394,0.7513,0.7513,0.7453,0.7334,0.0,0.0,0.0,0.0,0.0,0.0,0.0,0.0,0.8341,0.0,0.0,0.0,0.0,0.0,0.0,0.0,0.0,0.0,0.0,1.1837,1.1993,1.2759,1.339,1.3946,1.4401,1.4631,1.4787,1.4936,1.4407,1.377,1.3471,1.2827,1.221,1.1898,1.1721,1.1667,1.1803,1.1959,1.221,1.2657,1.2983,1.3492,1.4387,1.478,1.5201,1.5791,1.5995,1.6205,1.6497,1.6931,1.7256,1.7405,1.7561,0.0,1.786,1.786,1.786,1.786,1.786,1.786,1.786,1.786,1.786,1.786,1.786,1.786,1.786,1.786,1.786,1.786,1.786,1.786,0.0,1.786,1.786,1.786,1.786,1.786,1.786,1.786,1.786,1.786,0.0,0.0,0.0,0.0,0.0,0.0,0.3998,0.1571,0.0,0.0,0.0,0.0,0.0,0.0,0.0,0.0,0.0,0.0,0.0,0.0,0.0,0.0,0.0,0.0,0.0,0.7236,0.7296,0.7334,0.7645,0.7713,0.7519,0.7752,0.773,0.7459,0.7601,0.7652,0.0,0.0,0.0,0.0,0.0,0.8639,0.8895,0.0,0.0,0.0,0.0,0.0,0.0,0.0,0.0,0.0,0.0,0.0,0.0,1.2121,1.2684,1.3336,1.3783,1.4014,1.4089,1.3933,1.3566,1.3132,1.2732,1.2298,1.1918,1.1728,1.1653,1.1633,1.1681,1.1891,1.2176,1.2515,1.2908,1.3376,1.3966,1.4753,1.5377,1.5669,1.6293,1.6734,1.6829,1.7148,1.7365,1.7419,1.765,1.7812,1.786,1.786,1.786,1.786,1.786,1.786,1.786,1.786,1.786,1.786,1.786,1.786,1.786,1.786,1.786,1.786,1.786,1.786,0.0,1.786,1.786,1.786,1.786,1.786,1.786,1.786,1.786,1.786,0.0,0.0,0.0,0.0,0.0,0.0,0.5295,0.2175,0.0,0.0,0.0,0.0,0.0,0.0,0.0,0.0,0.0,0.0,0.0,0.0,0.0,0.0,0.0,0.0,0.716,0.7317,0.7404,0.7404,0.7925,0.8011,0.7892,0.8129,0.8219,0.7931,0.8031,0.8058,0.0,0.0,0.0,0.0,0.8602,0.8798,0.9057,0.0,0.0,0.0,0.0,0.0,0.0,0.0,0.0,0.0,0.0,0.0,0.0,0.0,1.2121,1.263,1.3085,1.3356,1.3464,1.3281,1.2969,1.2637,1.2352,1.2013,1.1728,1.164,1.1619,1.1619,1.1619,1.1864,1.2155,1.2454,1.2881,1.337,1.3933,1.4726,1.5384,1.5764,1.6395,1.6809,1.6809,1.7182,1.7419,1.7419,1.7704,1.786,1.786,1.786,1.786,1.786,1.786,1.786,1.786,1.786,1.786,1.786,1.786,1.786,1.786,1.786,1.786,1.786,1.786,1.786,0.0,1.786,1.786,1.786,1.786,1.786,1.786,1.786,1.786,1.786,0.0,0.0,0.0,0.0,0.0,0.0,0.0,0.3386,0.0246,0.0123,0.0,0.0,0.0121,0.0121,0.012,0.0,0.0,0.0,0.0,0.0,0.0,0.0,0.0,0.0,0.7293,0.7399,0.7529,0.7557,0.8147,0.8512,0.8518,0.8763,0.8933,0.8671,0.8518,0.8602,0.8678,0.0,0.0,0.0,0.894,0.8798,0.0,0.0,0.0,0.0,0.0,0.0,0.0,0.0,0.0,0.0,0.0,0.0,0.0,0.0,0.0,0.0,0.0,1.2664,1.2895,1.2881,1.2569,1.2257,1.2244,1.1918,0.0,1.1619,1.1619,1.1619,1.1633,1.187,1.2162,1.2467,1.2888,1.3437,1.4204,1.4746,1.533,1.6029,1.6374,1.6544,1.6524,1.7066,1.7419,1.7419,1.7704,1.786,1.786,1.786,1.786,1.786,1.786,1.786,1.786,1.786,1.786,1.786,1.786,1.786,1.786,1.786,1.786,0.0,1.786,0.0,0.0,1.786,1.786,1.786,1.786,1.786,1.786,1.786,1.786,1.786,0.0,0.0,0.0,0.0,0.0,0.0,0.0,0.0,0.0,0.0,0.037,0.0246,0.0725,0.1207,0.1084,0.0,0.0,0.0,0.0,0.0,0.0,0.0,0.0,0.0,0.7778,0.7834,0.8124,0.8781,0.91,0.9187,0.916,0.9406,0.9337,0.8952,0.8948,0.8871,0.8876,0.8843,0.0,0.0,0.894,0.885,0.0,0.0,0.0,0.0,0.9647,0.9828,0.0,0.0,0.0,0.0,0.0,0.0,0.0,0.0,1.147,1.1545,1.1769,0.0,1.2244,1.2128,1.2013,1.1911,0.0,1.1694,1.1619,1.1619,1.1619,1.1653,1.1762,1.1932,1.2196,1.261,1.2956,1.3471,1.434,1.535,1.6103,1.6381,1.6686,1.6781,1.6544,1.7066,1.7419,1.7419,1.7704,1.786,1.786,1.786,1.786,1.786,1.786,1.786,1.786,1.786,1.786,1.786,1.786,1.786,1.786,1.786,1.786,0.0,0.0,0.0,1.786,1.786,1.786,1.786,1.786,1.786,1.786,1.786,1.786,1.786,0.0,0.0,0.0,0.0,0.0,0.0,0.0,0.0,0.0,0.0,0.0986,0.0985,0.0977,0.1586,0.1708,0.0,0.0,0.0,0.0,0.0,0.0,0.0,0.0,0.8195,0.8129,0.842,0.8738,0.8958,0.9526,0.9748,0.9506,0.9888,0.9816,0.9542,0.9307,0.9211,0.9035,0.8967,0.894,0.894,0.894,0.0,0.0,0.0,0.0,0.0,0.9639,0.9822,0.0,1.0025,1.0256,1.0541,0.0,0.0,0.0,0.0,1.1335,1.1409,1.1491,1.1681,1.1837,1.1755,1.1735,1.1714,1.164,1.1619,1.1619,1.1619,1.1674,1.1742,1.1816,1.2182,1.2556,1.2793,1.337,1.4075,1.4909,1.5649,1.6205,1.649,1.6666,1.6761,1.6734,1.7148,1.7419,1.7419,1.7704,1.786,1.786,1.786,1.786,1.786,1.786,1.786,1.786,1.786,1.786,1.786,1.786,1.786,1.786,1.786,1.786,0.0,0.0,0.0,1.786,1.786,1.786,1.786,1.786,1.786,1.786,1.786,1.786,1.786,0.0,0.0,0.0,0.0,0.0,0.0,0.0,0.0,0.0,0.0,0.0,0.0,0.0,0.0,0.0,0.0,0.0,0.0,0.0,0.0,0.0,0.0,0.872,0.8803,0.8499,0.9057,0.928,0.9255,0.9845,1.0084,0.9986,1.025,1.0263,1.0032,0.9585,0.93,0.9144,0.9001,0.894,0.894,0.894,0.0,0.0,0.0,0.0,0.0,0.0,0.0,0.0,0.9964,1.012,1.029,1.0568,0.0,0.0,0.0,0.0,0.0,1.1382,1.1538,1.1674,1.1633,1.1619,1.1619,1.1619,1.164,1.1653,1.1653,1.1769,1.1898,1.1986,1.2488,1.2935,1.3071,1.3966,1.4903,1.5642,1.5906,1.6151,1.6483,1.6564,1.6673,1.689,1.7202,1.7399,1.7419,1.767,1.7846,1.786,1.786,1.786,1.786,1.786,1.786,1.786,1.786,1.786,1.786,1.786,1.786,1.786,1.786,1.786,1.786,0.0,0.0,1.786,1.786,1.786,1.786,1.786,1.786,1.786,1.786,1.786,1.786,0.0,0.0,0.0,0.0,0.0,0.0,0.0,0.0,0.0,0.0,0.0,0.0,0.0,0.0,0.0,0.0,0.0,0.0,0.0,0.0,0.0,0.9255,0.891,0.8883,0.9419,0.9535,0.9927,1.0645,1.0585,1.0605,1.0712,1.0846,1.0561,1.0032,0.9585,0.93,0.9144,0.9001,0.894,0.894,0.894,0.0,0.0,0.0,0.0,0.0,0.0,0.0,0.0,0.9808,0.9958,1.0114,1.029,0.0,0.0,0.0,0.0,0.0,1.1355,1.1687,1.1932,1.1681,1.1619,1.1619,1.1619,1.1714,1.1796,1.1796,1.1918,1.2182,1.2691,1.2671,1.282,1.358,1.4584,1.5493,1.6117,1.6551,1.6734,1.6544,1.6754,1.6829,1.6612,1.6978,1.7283,1.7412,1.7582,1.7738,1.786,1.786,1.786,1.786,1.786,1.786,1.786,1.786,1.786,1.786,1.786,1.786,1.786,1.786,1.786,1.786,0.0,1.786,1.786,1.786,1.786,1.786,1.786,1.786,1.786,1.786,1.786,1.786,0.0,0.0,0.0,0.0,0.0,0.0,0.0,0.0,0.0,0.0,0.0,0.0,0.0,0.0,0.0,0.0,0.0,0.0,0.0,0.0,0.7054,0.8521,0.9073,0.9503,0.9685,1.0075,1.0498,1.0826,1.0914,1.0995,1.1056,1.0812,1.0514,1.0154,0.9618,0.934,0.9259,0.9035,0.894,0.894,0.0,0.0,0.0,0.0,0.0,0.0,0.0,0.0,0.0,0.0,0.9856,1.0059,1.0134,0.0,0.0,0.0,0.0,0.0,1.1246,1.1538,1.185,1.1952,1.204,1.2121,1.2203,1.2271,1.2318,1.2318,1.244,1.2678,1.3119,1.3349,1.3817,1.4882,1.5323,1.5716,1.6239,1.6415,1.6503,1.6517,1.6646,1.6741,1.6768,1.7026,1.7256,1.7405,1.7561,1.7717,1.786,1.786,1.786,1.786,1.786,1.786,1.786,1.786,1.786,1.786,1.786,1.786,1.786,1.786,1.786,1.786,0.0,1.786,1.786,1.786,1.786,1.786,1.786,1.786,1.786,1.786,1.786,1.786,0.0,0.0,0.0,0.0,0.0,0.0,0.0,0.0,0.0,0.0,0.0,0.0,0.0,0.0,0.0,0.0,0.0,0.0,0.0,0.5471,0.6798,0.8343,0.9503,1.0046,0.993,1.0595,1.0907,1.0826,1.109,1.1199,1.1151,1.0704,1.0419,1.0256,0.9652,0.9381,0.9361,0.9062,0.894,0.894,0.0,0.0,0.0,0.0,0.0,0.0,0.0,0.0,0.0,0.0,0.0,0.0,0.0,0.0,0.0,1.048,1.0812,1.1165,1.1165,1.1436,1.1816,1.2196,1.2318,1.242,1.2718,1.2786,1.2807,1.2874,1.3064,1.3302,1.3566,1.4102,1.4821,1.5771,1.5852,1.5954,1.6402,1.6368,1.6374,1.6605,1.6632,1.672,1.6958,1.708,1.7202,1.7358,1.7507,1.767,1.7812,1.7846,1.786,1.786,1.786,1.786,1.786,1.786,1.786,1.786,1.786,1.786,1.786,1.786,1.786,1.786,1.786,1.786,1.786,1.786,1.786,1.786,1.786,1.786,1.786,1.786,1.786,1.786,0.0,0.0,0.0,0.0,0.0,0.0,0.0,0.0,0.0,0.0,0.0,0.0,0.0,0.0,0.0,0.0,0.0,0.0,0.0,0.6991,0.8337,0.9572,1.0107,1.0256,1.0249,1.0711,1.1009,1.1131,1.1294,1.1301,1.1151,1.0704,1.0419,1.0256,0.9652,0.9381,0.9361,0.9062,0.894,0.894,0.894,0.0,0.0,0.0,0.0,0.0,0.0,0.0,0.0,0.0,0.0,0.0,0.0,0.0,1.0324,1.0453,1.0812,1.1165,1.1165,1.1586,1.2074,1.2244,1.2081,1.2067,1.2779,1.2942,1.3024,1.3295,1.3695,1.4041,1.4204,1.4719,1.5194,1.5425,1.5906,1.6422,1.687,1.6924,1.6924,1.6944,1.6944,1.6958,1.6978,1.6992,1.7053,1.7195,1.7351,1.75,1.765,1.7792,1.786,1.786,1.786,1.786,1.786,1.786,1.786,1.786,1.786,1.786,1.786,1.786,1.786,1.786,1.786,1.786,1.786,1.786,1.786,1.786,1.786,1.786,1.786,1.786,1.786,1.786,0.0,0.0,0.0,0.0,0.0,0.0,0.0,0.0,0.0,0.0,0.0,0.0,0.0,0.0,0.0,0.0,0.0,0.0,0.0,0.7612,0.8471,0.97,1.0114,1.0283,1.0283,1.0717,1.1016,1.1165,1.1409,1.1409,1.1158,1.0799,1.0507,1.0256,0.9747,0.9469,0.9367,0.9164,0.9022,0.894,0.894,0.894,0.0,0.0,0.0,0.0,0.0,0.0,0.0,0.0,0.9449,0.9632,0.9741,1.0005,1.031,1.0453,1.0812,1.1185,1.128,1.1742,1.2264,1.2501,1.2549,1.2705,1.3356,1.3654,1.3824,1.3939,1.4319,1.4679,1.4821,1.5486,1.6008,1.5974,1.6313,1.6673,1.6944,1.6978,1.6978,1.6978,1.6978,1.6978,1.6978,1.6978,1.7039,1.7182,1.7249,1.7385,1.7629,1.7704,1.7772,1.786,1.786,1.786,1.786,1.786,1.786,1.786,1.786,1.786,1.786,1.786,1.786,1.786,1.786,1.786,1.786,1.786,1.786,1.786,1.786,1.786,1.786,1.786,1.786,1.786,0.0,0.0,0.0,0.0,0.0,0.0,0.0,0.0,0.0,0.0,0.0,0.0,0.0,0.0,0.0,0.0,0.0,0.0,0.7734,0.8227,0.8836,0.9822,1.0114,1.0256,1.0209,1.0649,1.0948,1.1097,1.1348,1.1348,1.109,1.0785,1.0514,1.0263,0.9808,0.9523,0.9367,0.9218,0.9069,0.894,0.894,0.894,0.0,0.0,0.0,0.0,0.0,0.0,0.0,0.0,0.9361,0.9551,0.9646,0.9951,1.031,1.0453,1.088,1.1341,1.1491,1.1904,1.2386,1.2773,1.2983,1.3281,1.3966,1.4217,1.4367,1.4604,1.4936,1.5242,1.5432,1.6008,1.6422,1.6327,1.6598,1.6863,1.6965,1.6978,1.6978,1.6978,1.6978,1.6978,1.6978,1.6978,1.7019,1.7121,1.7168,1.7304,1.7561,1.7623,1.7717,1.786,1.786,1.786,1.786,1.786,1.786,1.786,1.786,1.786,1.786,1.786,1.786,1.786,1.786,1.786,1.786,1.786,1.786,1.786,1.786,1.786,1.786,1.786,1.786,1.786,0.0,0.0,0.0,0.0,0.0,0.0,0.0,0.0,0.0,0.0,0.0,0.0,0.0,0.0,0.0,0.0,0.0,0.0,0.7856,0.9086,0.9822,0.9822,1.0114,1.0209,1.0053,1.0487,1.0792,1.0948,1.109,1.109,1.0941,1.0636,1.0419,1.0263,0.9808,0.9523,0.9367,0.9218,0.9069,0.894,0.894,0.894,0.894,0.0,0.0,0.0,0.0,0.0,0.0,0.0,0.9381,0.9435,0.9727,1.0032,1.031,1.0453,1.1023,1.1647,1.1789,1.206,1.244,1.3024,1.3295,1.3648,1.4543,1.4523,1.4523,1.5269,1.554,1.5737,1.6029,1.6212,1.6313,1.6313,1.6686,1.6978,1.6978,1.6978,1.6978,1.6978,1.6978,1.6978,1.6978,1.6978,1.6978,1.6978,1.7114,1.7256,1.7412,1.7561,1.7717,1.786,1.786,1.786,1.786,1.786,1.786,1.786,1.786,1.786,1.786,1.786,1.786,1.786,1.786,1.786,1.786,1.786,1.786,1.786,1.786,1.786,1.786,1.786,1.786,1.786,0.0,0.0,0.0,0.0,0.0,0.0,0.0,0.0,0.0,0.0,0.0,0.0,0.0,0.0,0.0,0.0,0.0,0.0,0.9067,0.9519,0.9822,0.9822,1.0012,1.0148,1.0209,1.0439,1.0683,1.0948,1.109,1.109,1.0941,1.0636,1.0419,1.0263,0.9917,0.9618,0.9374,0.9334,0.9171,0.894,0.894,0.894,0.894,0.0,0.0,0.0,0.0,0.0,0.0,0.0,0.0,0.0,0.9612,0.9951,1.0331,1.0582,1.0962,1.1375,1.1735,1.2284,1.2827,1.3105,1.3682,1.4333,1.4916,1.5065,1.5262,1.5906,1.6076,1.6137,1.6225,1.6537,1.6714,1.6497,1.6754,1.6978,1.6978,1.6978,1.6978,1.6978,1.6978,1.6978,1.6978,1.6978,1.6978,1.6978,1.7019,1.7107,1.7249,1.7405,1.7555,1.7704,1.7812,1.786,1.786,1.786,1.786,1.786,1.786,1.786,1.786,1.786,1.786,1.786,1.786,1.786,1.786,1.786,1.786,1.786,1.786,1.786,1.786,1.786,1.786,1.786,0.0,0.0,0.0,0.0,0.0,0.0,0.0,0.0,0.0,0.0,0.7386,0.7153,0.0,0.0,0.0,0.0,0.0,0.0,0.9493,0.9741,0.9822,0.9822,0.9964,1.012,1.0276,1.0243,1.0378,1.0683,1.0772,1.0772,1.0677,1.0432,1.027,1.0175,0.993,0.9693,0.9469,0.9408,0.9245,0.9022,0.896,0.894,0.894,0.0,0.0,0.0,0.0,0.0,0.0,0.0,0.0,0.0,0.9625,0.9964,1.0365,1.0778,1.1111,1.1491,1.2176,1.2698,1.3152,1.3593,1.4204,1.4862,1.5486,1.5703,1.5906,1.6388,1.6483,1.6503,1.6564,1.6795,1.6924,1.6734,1.6856,1.6978,1.6978,1.6978,1.6978,1.6978,1.6978,1.6978,1.6978,1.6978,1.6978,1.6978,1.6978,1.7039,1.7182,1.7338,1.7494,1.765,1.7792,1.786,1.786,1.786,1.786,1.786,1.786,1.786,1.786,1.786,1.786,1.786,1.786,1.786,1.786,1.786,1.786,1.786,1.786,1.786,1.786,1.786,1.786,1.786,0.0,0.0,0.0,0.0,0.0,0.0,0.0,0.0,0.0,0.7707,0.7586,0.7586,0.0,0.0,0.0,0.9225,0.9483,0.9571,0.9591,0.972,0.9808,0.9822,0.9958,1.008,1.0195,0.9937,0.993,1.0202,1.0243,1.0263,1.0276,1.012,1.0046,1.0039,0.989,0.9741,0.9598,0.9449,0.9293,0.9144,0.8994,0.894,0.894,0.894,0.0,0.0,0.0,0.0,0.0,0.0,0.0,0.0,0.9727,1.0032,1.0392,1.0955,1.1355,1.1837,1.284,1.3159,1.3424,1.4292,1.4794,1.5296,1.6137,1.6341,1.6429,1.6693,1.6761,1.6815,1.6951,1.6978,1.6978,1.6978,1.6978,1.6978,1.6978,1.6978,1.6978,1.6978,1.6978,1.6978,1.6978,1.6978,1.6978,1.6978,1.6978,1.7039,1.7168,1.7317,1.7467,1.7623,1.7772,1.7846,1.786,1.786,1.786,1.786,1.786,1.786,1.786,1.786,1.786,1.786,1.786,1.786,1.786,1.786,1.786,1.786,1.786,1.786,1.786,1.786,1.786,1.786,0.0,0.0,0.0,0.0,0.0,0.0,0.0,0.0,0.8923,0.8581,0.8581,0.8581,0.8581,0.8581,0.0,0.9035,0.9171,0.93,0.9422,0.9571,0.9707,0.9815,0.9849,0.9774,0.9578,0.9625,0.9632,0.9578,0.9924,1.0161,1.0276,1.012,1.0046,1.0039,0.989,0.9741,0.9598,0.9449,0.9293,0.9144,0.8994,0.894,0.894,0.894,0.894,0.0,0.0,0.0,0.0,0.0,0.0,0.0,0.9727,1.0032,1.0351,1.0711,1.1199,1.1769,1.2461,1.3078,1.3688,1.4346,1.5181,1.5954,1.6381,1.6571,1.6673,1.6734,1.6842,1.6944,1.6978,1.6978,1.6978,1.6978,1.6978,1.6978,1.6978,1.6978,1.6978,1.6978,1.6978,1.6978,1.6978,1.6978,1.6978,1.6978,1.6978,1.6992,1.7026,1.7161,1.7311,1.7467,1.7616,1.7758,1.786,1.786,1.786,0.0,1.786,1.786,1.786,1.786,1.786,1.786,1.786,1.786,1.786,1.786,1.786,1.786,1.786,1.786,1.786,1.786,1.786,1.786,0.0,0.0,0.0,0.0,0.0,0.0,0.0,0.0,0.9015,0.8947,0.894,0.894,0.894,0.894,0.0,0.0,0.9069,0.9184,0.9266,0.9483,0.9646,0.972,0.972,0.9612,0.9388,0.9388,0.9388,0.9381,0.9544,0.9734,0.9958,0.9944,0.9937,0.9937,0.9856,0.9781,0.9693,0.9476,0.9334,0.9252,0.9103,0.9042,0.9049,0.9123,0.915,0.915,0.915,0.0,0.0,0.0,0.0,0.0,0.0,0.0,1.0256,1.0697,1.1104,1.1592,1.2481,1.3112,1.3749,1.4706,1.5574,1.6246,1.6469,1.67,1.6863,1.6863,1.6924,1.6978,1.6978,1.6978,1.6978,1.6978,1.6978,1.6978,1.6978,1.6978,1.6978,1.6978,1.6978,1.6978,1.6978,1.6978,1.6978,1.6978,1.6978,1.6978,1.6978,1.7114,1.7263,1.7412,1.7568,1.7717,1.786,1.786,1.786,1.786,1.786,1.786,1.786,1.786,1.786,1.786,1.786,1.786,1.786,1.786,1.786,1.786,1.786,1.786,1.786,1.786,1.786,1.786,0.0,0.0,0.0,0.0,0.0,0.0,0.0,0.0,0.0,0.8954,0.894,0.894,0.894,0.894,0.894,0.0,0.0,0.0,0.915,0.9442,0.9585,0.953,0.9557,0.949,0.9306,0.9178,0.9178,0.9306,0.9205,0.9286,0.9537,0.9707,0.9781,0.9788,0.9808,0.9822,0.9802,0.9537,0.9422,0.9408,0.9252,0.9191,0.9205,0.9334,0.9381,0.9381,0.9381,0.9381,0.9401,0.9557,0.0,0.0,0.0,0.0,1.0154,1.0711,1.1009,1.1402,1.2508,1.3193,1.3885,1.5106,1.5866,1.6347,1.649,1.6741,1.6951,1.6978,1.6978,1.6978,1.6978,1.6978,1.6978,1.6978,1.6978,1.6992,1.7012,1.6998,1.6992,1.7012,1.6992,1.6978,1.6978,1.6978,1.6978,1.6978,1.6978,1.6978,1.6978,1.7093,1.7222,1.7378,1.7528,1.7684,1.7826,1.7846,1.786,1.786,1.786,1.786,1.786,1.786,1.786,1.786,1.786,1.786,1.786,1.786,1.786,1.786,1.786,1.786,1.786,1.786,1.786,1.786,0.0,0.0,0.0,0.0,0.0,0.0,0.0,0.0,0.0,0.0,0.894,0.894,0.894,0.894,0.894,0.894,0.8954,0.9022,0.9144,0.0,0.0,0.9225,0.934,0.9279,0.9001,0.8981,0.8981,0.8994,0.9103,0.9171,0.9218,0.9503,0.9639,0.9646,0.9768,0.9822,0.9808,0.9646,0.9578,0.9564,0.9415,0.9354,0.9354,0.9374,0.9381,0.9381,0.9381,0.9381,0.9401,0.9557,0.9612,0.0,0.0,0.0,1.0114,1.0453,1.0846,1.1314,1.1999,1.3247,1.4529,1.5235,1.5866,1.6347,1.649,1.6653,1.6822,1.6951,1.6978,1.6978,1.6978,1.6978,1.6978,1.6978,1.6978,1.7026,1.7148,1.706,1.7026,1.7148,1.7053,1.6978,1.6978,1.6978,1.6978,1.6978,1.6978,1.6978,1.6978,1.6998,1.7073,1.7216,1.7372,1.7528,1.7684,1.7806,1.786,1.786,1.786,1.786,1.786,1.786,1.786,1.786,1.786,1.786,1.786,1.786,1.786,1.786,1.786,1.786,1.786,1.786,1.786,1.786,0.0,0.0,0.0,0.0,0.0,0.0,0.0,0.0,0.0,0.0,0.0,0.894,0.894,0.894,0.894,0.894,0.894,0.9001,0.9144,0.9279,0.9293,0.9157,0.9218,0.9157,0.8947,0.894,0.894,0.894,0.9001,0.9035,0.9035,0.9252,0.9442,0.9618,0.9754,0.9822,0.9815,0.9673,0.9612,0.9605,0.9537,0.9612,0.9747,0.9659,0.9734,0.9863,0.9686,0.9625,0.9639,0.9707,0.9727,0.9741,0.9802,0.0,0.0,0.0,1.0561,1.1158,1.2264,1.3336,1.4319,1.5092,1.5676,1.6117,1.6347,1.6585,1.6768,1.6836,1.6917,1.6978,1.6978,1.6978,1.6978,1.6978,1.7046,1.7121,1.7182,1.7216,1.7249,1.7311,1.7188,1.71,1.71,1.7026,1.6978,0.0,1.6978,1.6978,1.6978,1.6978,1.7046,1.7188,1.7256,1.7405,1.765,1.7717,1.7792,1.786,1.786,1.786,1.786,1.786,1.786,1.786,1.786,1.786,1.786,1.786,1.786,1.786,1.786,1.786,1.786,1.786,1.786,1.786,0.0,0.0,0.0,0.0,0.0,0.0,0.0,0.0,0.0,0.0,0.0,0.894,0.894,0.0,0.0,0.0,0.894,0.8981,0.9089,0.913,0.9137,0.9096,0.913,0.9083,0.894,0.894,0.894,0.894,0.894,0.894,0.894,0.9083,0.9273,0.9503,0.9686,0.9768,0.9761,0.9693,0.9659,0.9673,0.9747,0.9937,1.0161,1.012,1.0297,1.0521,1.0175,1.0073,1.0086,0.993,0.9876,0.9869,0.9836,0.9822,0.0,0.0,0.0,1.1009,1.2318,1.3105,1.3783,1.4726,1.5323,1.5784,1.6164,1.6449,1.6659,1.6734,1.6842,1.6937,1.6971,1.6978,1.6978,1.6978,1.71,1.7209,1.7243,1.7351,1.7433,1.7473,1.7344,1.7249,1.7249,1.7121,1.7032,0.0,1.7005,1.6978,1.6978,1.6978,1.7032,1.7134,1.7175,1.7304,1.7534,1.7609,1.7717,1.786,1.786,1.786,1.786,1.786,1.786,1.786,1.786,1.786,1.786,1.786,1.786,1.786,1.786,1.786,1.786,1.786,1.786,1.786,0.0,0.0,0.0,0.0,0.0,0.0,0.0,0.0,0.0,0.0,0.0,0.894,0.894,0.894,0.894,0.894,0.894,0.894,0.8947,0.9076,0.9089,0.8954,0.9083,0.0,0.894,0.894,0.894,0.894,0.894,0.894,0.894,0.9083,0.9164,0.9191,0.949,0.9618,0.9632,0.9754,0.9808,0.9836,1.0127,1.0337,1.05,1.0785,1.1077,1.1274,1.0833,1.0765,1.0806,1.0229,1.0039,1.0012,0.9869,0.9822,0.9849,0.0,0.0,0.0,1.1674,1.2332,1.3037,1.4082,1.4787,1.5371,1.5961,1.6218,1.6415,1.6693,1.6754,1.6809,1.6951,1.6978,1.6978,1.6978,1.71,1.7243,1.7392,1.7412,1.7473,1.7616,1.75,1.7405,1.7405,1.727,0.0,0.0,1.706,1.6978,1.6978,1.6978,1.6985,1.6992,1.7121,1.7202,1.7216,1.75,1.7717,1.786,1.786,1.786,1.786,1.786,1.786,1.786,1.786,1.786,1.786,1.786,1.786,1.786,1.786,1.786,1.786,1.786,1.786,1.786,0.0,0.0,0.0,0.0,0.0,0.0,0.0,0.0,0.0,0.0,0.0,0.0,0.0,0.9225,0.9184,0.9083,0.8994,0.894,0.894,0.8988,0.8994,0.894,0.8988,0.8988,0.894,0.894,0.894,0.894,0.894,0.894,0.894,0.8988,0.9015,0.9028,0.9327,0.9517,0.9612,0.9666,0.9795,0.9992,1.0297,1.0677,1.1056,1.0982,1.1375,1.1884,1.1233,1.1043,1.1036,1.0731,1.0371,1.0039,0.9985,0.9897,0.9849,1.0005,1.0297,1.0738,1.1491,1.1993,1.2556,1.3607,1.4245,1.4774,1.5371,1.5845,1.6246,1.6544,1.668,1.6795,1.6951,1.6978,1.7012,1.71,1.7243,1.7392,1.7548,1.765,1.7724,1.7772,1.765,1.7568,1.7568,1.8703,0.0,0.0,0.0,2.1635,2.1507,2.0046,1.9369,1.9044,1.786,1.71,1.7188,1.7399,1.7575,1.7717,1.7717,1.7772,1.786,1.786,1.786,1.786,1.786,1.786,1.786,1.786,1.786,1.786,1.786,1.786,1.786,1.786,1.786,1.786,0.0,0.0,0.0,0.0,0.0,0.0,0.0,0.0,0.9442,0.9388,0.0,0.0,0.0,0.0,0.934,0.9239,0.9096,0.9008,0.9008,0.8967,0.894,0.894,0.894,0.894,0.894,0.8988,0.8988,0.894,0.8988,0.8988,0.894,0.894,0.894,0.8947,0.9144,0.934,0.9537,0.9639,0.9822,1.0093,1.0595,1.1002,1.1321,1.1375,1.1803,1.2284,1.1681,1.1558,1.1653,1.1402,1.1056,1.069,1.0487,1.0181,0.993,1.008,1.0263,1.0555,1.1151,1.1572,1.2067,1.3017,1.3587,1.4116,1.4862,1.5418,1.5893,1.6293,1.6497,1.6666,1.6863,1.6904,1.6951,1.71,1.729,1.7453,1.7555,1.7738,1.786,1.786,1.7772,1.7717,1.7717,0.0,0.0,0.0,0.0,0.0,2.4223,2.275,2.1407,2.0377,1.8303,1.71,1.7188,1.729,1.7419,1.7575,1.7623,1.7704,1.7792,1.7846,1.786,1.786,1.786,1.786,1.786,1.786,1.786,1.786,1.786,1.786,1.786,1.786,1.786,1.786,0.0,0.0,0.0,0.0,0.0,0.0,0.9639,0.9618,0.9564,0.9415,0.0,0.0,0.0,0.0,0.0,0.9388,0.9245,0.9157,0.915,0.9022,0.894,0.894,0.894,0.894,0.894,0.9076,0.9076,0.894,0.9076,0.9076,0.894,0.894,0.894,0.894,0.894,0.9103,0.9401,0.9693,0.991,1.0141,1.1043,1.1321,1.128,1.2026,1.2413,1.2515,1.221,1.2379,1.2684,1.2237,1.2067,1.1932,1.1335,1.0643,1.0093,1.0236,1.0283,1.0351,0.0,0.0,0.0,1.2291,1.282,1.3431,1.4462,1.4943,1.5337,1.594,1.6191,1.6395,1.6686,1.6741,1.6795,1.6944,1.7216,1.7412,1.7419,1.767,1.7846,1.786,1.786,1.786,0.0,0.0,0.0,0.0,2.3277,2.4432,2.4635,2.4423,2.3281,2.0783,1.8463,1.7195,1.7195,1.7195,1.7263,1.7412,1.7561,1.7629,1.765,1.7792,1.786,1.786,1.786,1.786,1.786,1.786,1.786,1.786,1.786,1.786,1.786,1.786,1.786,1.786,0.0,0.0,0.0,0.0,0.0,0.9808,0.9768,0.9761,0.9747,0.0,0.0,0.0,0.97,0.9605,0.9544,0.9544,0.9408,0.9273,0.9157,0.9117,0.9049,0.8947,0.894,0.894,0.894,0.8981,0.8981,0.894,0.8981,0.8981,0.894,0.894,0.894,0.894,0.894,0.9103,0.9395,0.9585,0.9937,1.0446,1.1348,1.1816,1.2047,1.2684,1.3295,1.3736,1.3214,1.3112,1.3166,1.2827,1.2135,1.1328,1.0833,1.0534,1.0358,1.0297,1.0351,1.0473,1.067,0.0,0.0,0.0,0.0,0.0,1.3492,1.4258,1.5004,1.5493,1.5886,1.6232,1.653,1.6585,1.6598,1.6639,1.6992,1.7297,1.7405,1.7494,1.7582,1.7704,1.7704,0.0,0.0,0.0,0.0,0.0,2.5545,2.7493,2.8847,2.7348,2.4662,2.0955,2.0103,1.8991,1.7195,1.7195,1.7216,1.7256,1.7297,1.7378,1.7487,1.7629,1.7704,1.7717,1.7812,1.786,1.786,1.786,1.786,1.786,1.786,1.786,1.786,1.786,1.786,1.786,0.0,0.0,0.9822,0.9822,0.9822,0.9822,0.9822,0.9822,0.9822,0.0,0.0,0.0,0.9822,0.9747,0.97,0.97,0.9564,0.9442,0.9347,0.9286,0.9184,0.9035,0.9028,0.9001,0.894,0.8994,0.9001,0.894,0.9001,0.8994,0.894,0.894,0.894,0.894,0.9001,0.9157,0.9401,0.968,1.0066,1.0575,1.1538,1.2033,1.2264,1.2922,1.3526,1.398,1.3688,1.3709,1.3838,1.3668,1.2813,1.1762,1.1436,1.0989,1.0568,1.0487,1.048,1.0514,1.0602,1.0846,1.1145,1.145,0.0,0.0,1.3119,1.379,1.4475,1.5174,1.5574,1.5913,1.6273,1.6341,1.6381,1.6503,1.6741,1.6992,1.7209,1.7344,1.7453,1.7541,1.7555,0.0,0.0,1.9837,2.1948,2.4186,2.6529,2.8745,3.0574,2.8662,2.6149,2.3657,2.1754,1.9985,1.8564,1.7516,1.7107,1.7107,1.7161,1.7243,1.7331,1.7487,1.7555,1.7555,1.765,1.7717,1.7772,1.7772,1.7812,1.786,1.786,1.786,1.786,1.786,1.786,1.786,0.0,0.0,0.9822,0.9822,0.9822,0.9829,0.9842,0.9842,0.9849,0.0,0.9869,0.9863,0.9849,0.9842,0.9842,0.9842,0.9713,0.9632,0.9632,0.949,0.934,0.9184,0.9164,0.9096,0.8967,0.9076,0.9069,0.894,0.9069,0.9076,0.896,0.896,0.8967,0.8994,0.9123,0.9266,0.9435,0.9869,1.0263,1.0677,1.1647,1.2088,1.2244,1.299,1.3492,1.3817,1.3946,1.4245,1.457,1.4468,1.3722,1.2786,1.2556,1.1762,1.0894,1.0778,1.067,1.0582,1.0527,1.0731,1.1016,1.1294,1.1491,0.0,1.2983,1.3397,1.3824,1.4767,1.512,1.5391,1.5805,1.59,1.5995,1.6252,1.6354,1.6524,1.6883,1.7154,1.7331,1.7365,0.0,0.0,1.7419,1.9333,2.1448,2.3538,2.6262,2.8588,3.0742,2.9051,2.7687,2.7294,2.3308,2.1121,2.0729,1.8663,1.7832,1.7811,1.7523,1.7586,1.7593,1.7324,1.7399,1.7399,1.7412,1.75,1.7623,1.7623,1.7717,1.786,1.786,1.786,1.786,1.7846,1.7846,1.7846,0.9822,0.9822,0.9822,0.9822,0.9822,0.9863,0.9985,1.0005,1.0053,1.0175,1.0188,1.0141,1.0019,1.0005,1.0005,1.0005,0.9869,0.9781,0.9781,0.9646,0.9496,0.934,0.9218,0.9144,0.911,0.9028,0.8967,0.894,0.8967,0.9028,0.911,0.911,0.9178,0.9293,0.9327,0.9422,0.9585,0.991,1.05,1.1253,1.1694,1.2244,1.2868,1.3614,1.4306,1.4882,1.4909,1.4977,1.4943,1.4217,1.3743,1.3322,1.2569,1.225,1.1993,1.1151,1.105,1.1138,1.0772,1.0812,1.0989,1.1165,1.1416,0.0,1.206,1.263,1.318,1.3498,1.3973,1.4401,1.4611,1.474,1.4835,1.4896,1.5309,1.5859,1.6517,1.6659,1.6788,1.7039,0.0,0.0,1.7399,1.7843,1.9066,2.1035,2.4845,2.8164,3.0466,3.026,2.9285,2.7531,2.6692,2.5101,2.3216,2.2589,2.2517,2.2356,2.052,1.971,1.9718,1.801,1.7236,1.7243,1.7365,1.7439,1.7467,1.7467,1.7623,1.786,1.786,1.786,1.7846,1.7738,1.7684,1.767,0.9822,0.9822,0.9822,0.9822,0.9883,0.9964,1.0039,1.0114,1.0195,1.027,1.0283,1.0249,1.0175,1.0168,1.0168,1.0168,1.0025,0.9937,0.9937,0.9795,0.9646,0.9503,0.9422,0.9347,0.9266,0.9198,0.9123,0.9049,0.9049,0.9083,0.915,0.915,0.9313,0.9598,0.953,0.9666,0.9958,1.0175,1.0616,1.1212,1.1735,1.2488,1.3356,1.396,1.4597,1.5201,1.5357,1.5411,1.5316,1.4713,1.4163,1.3654,1.3207,1.2807,1.2372,1.1701,1.1552,1.1511,1.1063,1.0941,1.1002,1.1219,1.1335,0.0,0.0,1.2352,1.2732,1.3098,1.3471,1.3804,1.4027,1.419,1.4319,1.4394,1.478,1.5153,1.5384,1.5995,1.6497,1.6727,0.0,0.0,1.6951,1.691,1.7718,2.0079,2.4422,2.736,2.8735,2.9782,2.9841,2.8929,2.7884,2.6566,2.5407,2.4163,2.3691,2.3587,2.131,2.0279,2.0279,1.8092,1.7087,1.7093,1.7168,1.7243,1.7304,1.7304,1.7439,1.765,1.765,1.765,1.7636,1.7561,1.7534,1.7521,0.9822,0.9822,0.9822,0.9822,0.9944,1.0059,1.0086,1.0222,1.0344,1.0399,1.0487,1.0541,1.0541,1.0616,1.0656,1.0629,1.048,1.0358,1.027,1.0093,0.993,0.9788,0.9673,0.9578,0.951,0.9429,0.932,0.9198,0.9198,0.9211,0.9239,0.9239,0.9449,0.9822,0.9761,0.9924,1.0249,1.048,1.0826,1.1267,1.1925,1.2732,1.3593,1.4075,1.4658,1.5269,1.5601,1.5703,1.5628,1.5296,1.4679,1.4021,1.3817,1.3336,1.2745,1.2216,1.2054,1.1925,1.1362,1.1124,1.1097,1.1369,1.1321,1.1382,0.0,0.0,0.0,1.2813,1.3037,1.3214,1.3458,1.3627,1.3749,1.381,0.0,0.0,0.0,1.5099,0.0,1.655,0.0,0.0,0.0,1.6515,1.7401,1.9995,2.3769,2.6338,2.6885,2.8971,3.0214,3.0214,2.8552,2.752,2.752,2.5861,2.4824,2.4824,2.2554,2.1518,2.1518,1.9253,1.8222,1.8222,1.7811,1.7671,1.7777,1.736,1.7222,1.7344,1.7399,1.7419,1.7419,1.7385,1.7378,1.7372,0.9822,0.9822,0.9822,0.9822,0.9944,1.0093,1.0236,1.0378,1.0568,1.0839,1.1219,1.147,1.147,1.1823,1.2006,1.187,1.1721,1.1457,1.1063,1.0772,1.0548,1.0399,0.989,0.9727,0.9971,0.9585,0.9374,0.9354,0.9354,0.9422,0.9557,0.9557,0.9652,0.9829,1.0086,1.0154,1.0114,1.0663,1.1375,1.2169,1.2515,1.2881,1.3288,1.3871,1.4631,1.5438,1.5872,1.5947,1.5764,1.533,1.5031,1.4679,1.3743,1.3749,1.3831,1.2461,1.2427,1.2617,1.1633,1.1355,1.1382,1.1552,1.1477,1.1457,1.1803,0.0,1.1904,1.1965,0.0,1.2223,1.2257,0.0,0.0,0.0,0.0,0.0,1.3139,1.381,1.5005,1.7071,0.0,0.0,0.0,1.7019,1.7286,1.9987,2.2159,2.4418,2.6864,2.8971,3.0214,3.0214,3.0011,2.9796,2.9796,2.9593,2.9389,2.9389,2.7316,2.6066,2.6066,2.3794,2.2761,2.2761,2.0696,1.9879,1.9895,1.7832,1.7012,1.706,1.7317,1.7419,1.7405,1.727,1.7216,1.7202,0.9822,0.9822,0.9849,0.9937,1.008,1.0236,1.0378,1.0677,1.0962,1.1179,1.1369,1.1518,1.1606,1.1626,1.2184,1.3504,1.3436,1.3228,0.0,1.2826,1.2067,1.0636,1.0134,0.9924,1.0046,0.9781,0.9598,0.951,0.951,0.9544,0.9612,0.9612,0.9781,1.0093,1.031,1.1257,1.2458,1.1832,1.3021,1.5203,1.3785,1.4624,1.6502,1.5269,1.591,1.7749,1.9134,1.9748,1.9631,0.0,1.8038,1.6788,1.7828,1.6179,1.3968,1.4712,1.4048,1.2915,1.2128,1.2705,1.3303,1.2081,1.2474,1.3062,1.2004,1.1708,1.1708,1.1708,0.0,0.0,0.0,0.0,0.0,0.0,1.2427,0.0,0.0,0.0,1.4117,0.0,0.0,0.0,0.0,0.0,0.0,0.0,0.0,2.3538,2.4829,2.7025,2.8971,3.0214,3.0214,3.0214,3.0214,3.0214,3.0214,3.0214,2.7929,2.6896,2.6896,2.4618,2.3587,2.3587,2.1527,2.0488,2.0071,1.8222,1.7188,1.6992,1.7114,1.7168,1.7161,1.7093,1.7066,1.706,0.9829,0.9822,0.9869,1.0025,1.0175,1.0371,1.0636,1.0989,1.1294,1.1484,1.2043,1.2184,1.1904,1.2816,1.4042,1.5259,1.5759,1.5931,0.0,1.4923,1.3916,1.2789,1.1076,1.0496,1.1177,1.0315,0.9815,0.9666,0.9666,0.9666,0.9666,0.9666,1.0107,1.0728,1.0534,1.2082,1.4832,1.2986,1.4438,1.7845,1.5687,1.6927,1.9737,1.7837,1.8367,2.0277,2.19,2.251,2.2463,2.2345,2.0782,0.0,2.1168,1.8879,1.6167,1.7639,1.6722,1.5158,1.3727,1.4485,1.5025,1.3162,1.3652,1.4359,1.2853,1.2453,1.2251,1.1818,1.1728,0.0,0.0,0.0,1.1898,1.1775,0.0,1.2142,1.1803,1.2665,1.3696,0.0,0.0,0.0,0.0,0.0,0.0,0.0,0.0,0.0,2.2451,2.5267,2.7658,2.9174,2.9808,3.0214,3.0214,3.0214,3.0214,3.0416,2.8552,2.7725,2.7305,2.544,2.4422,2.401,2.2158,2.112,2.0704,1.8843,1.7601,1.7188,1.7188,1.7188,1.6978,1.6978,1.6978,1.6978,0.9849,0.9822,0.9869,1.0025,1.0175,1.0473,1.1056,1.128,1.1491,1.1775,1.3537,1.4207,1.2834,1.6575,1.8506,1.6833,1.8659,1.9571,1.8933,0.0,1.6001,1.8048,1.3181,1.1674,1.3964,1.1386,0.9964,0.9815,0.9815,0.9815,0.9815,0.9815,1.063,1.2036,1.0998,1.268,1.6044,1.3356,1.4963,1.9269,1.8052,1.9393,2.1952,0.0,2.2274,2.268,2.2879,0.0,0.0,2.2635,2.2404,0.0,0.0,0.0,2.1363,2.074,2.0779,2.0224,1.7135,1.6324,1.6056,1.5049,1.4667,1.4456,1.4627,1.4391,1.3704,1.2115,1.1714,1.1626,1.1626,1.1633,1.1491,1.1056,1.1355,0.0,0.0,1.2768,1.426,1.4952,0.0,0.0,0.0,0.0,0.0,0.0,0.0,0.0,2.0192,2.4302,2.6862,2.7101,2.9174,3.0214,3.0214,3.0214,3.0416,3.1012,3.0416,2.9581,2.8518,2.7918,2.6702,2.5059,2.2995,2.1959,2.1751,1.9469,1.8222,1.7811,1.7811,1.7398,1.6978,1.6978,1.6978,1.6978,1.0005,1.0053,1.0141,1.0195,1.0243,1.0514,1.1206,1.2514,1.3597,1.4174,1.619,1.7706,1.7828,1.9454,2.1063,2.2263,0.0,2.3237,2.2917,2.1263,0.0,1.9666,1.6346,1.4991,1.5948,1.4349,1.3221,1.2647,1.2647,1.2587,1.2346,1.2346,1.2812,1.3391,1.2628,1.4648,1.8487,1.6119,1.8293,2.3416,2.3851,2.4037,2.4194,0.0,2.4711,2.5074,2.6706,2.7191,0.0,2.7097,2.5906,2.4737,2.6085,2.4207,2.1742,2.3013,2.2252,0.0,0.0,0.0,2.0527,1.8304,1.7621,1.706,1.5253,1.376,1.2719,1.2127,1.1945,1.1884,1.1775,1.1755,1.1928,1.2542,1.2757,1.3006,0.0,1.4344,0.0,0.0,0.0,0.0,0.0,0.0,0.0,0.0,0.0,0.0,0.0,2.476,2.6584,2.6862,2.9081,3.0416,3.0822,3.0822,3.1012,3.1617,3.1416,3.038,2.8518,2.8325,2.7101,2.5265,2.3409,2.2374,2.1751,1.9895,1.8858,1.8432,1.8432,1.8222,1.802,1.7601,1.7608,1.7601,1.0915,1.1077,1.1031,1.0404,1.1012,1.1933,1.2997,1.4533,1.5922,1.6702,1.8868,0.0,2.094,0.0,2.4166,0.0,2.6162,2.623,2.5604,2.4263,0.0,2.2184,1.9475,1.8227,1.9025,1.7042,1.56,1.5023,1.4471,1.4099,1.3889,1.3703,1.4178,1.4848,1.4083,1.636,2.0579,1.8276,2.0635,2.5977,2.7317,2.7392,0.0,0.0,2.7176,2.7282,0.0,2.9695,2.9695,2.9695,2.8485,2.7261,2.8783,2.6964,2.4458,2.5906,2.5285,2.3693,2.2676,2.3136,0.0,2.1155,2.0402,0.0,1.776,1.6283,1.5176,1.4509,1.4192,1.394,1.416,1.3769,1.3801,1.4634,1.4518,1.4645,0.0,1.5864,0.0,0.0,0.0,0.0,0.0,0.0,0.0,0.0,0.0,0.0,0.0,0.0,2.5033,2.4292,2.6778,2.8337,2.8744,2.8959,2.9162,2.976,3.038,2.9342,2.6681,2.7294,2.6066,2.3418,2.2383,2.176,2.1345,2.032,1.9485,1.885,1.885,1.885,1.8641,1.8222,1.802,1.823,1.2758,1.2826,1.259,1.1104,1.2531,1.4446,1.6262,0.0,1.8309,1.9344,2.1618,2.2735,2.2129,2.5862,2.7762,2.6115,2.7888,2.8614,2.7271,2.5796,0.0,0.0,2.2361,2.1312,2.2993,1.9441,1.7364,1.6881,1.5475,1.4566,1.4334,1.4019,1.4872,1.6404,1.5286,1.758,2.2157,1.9645,2.1683,2.6834,2.8137,2.8958,2.9417,2.9707,2.9489,2.9139,2.9936,3.0214,3.0214,3.0214,3.0033,2.9815,2.9803,2.9622,2.9417,2.9405,2.9405,2.8783,2.6051,2.5241,2.4822,2.3687,0.0,0.0,0.0,0.0,2.0729,1.8917,1.7913,1.7663,1.8378,1.75,1.672,1.7156,1.6327,1.6116,1.74,1.7489,1.8105,0.0,0.0,0.0,0.0,0.0,0.0,0.0,0.0,0.0,0.0,0.0,2.2416,2.0414,2.3054,2.4608,2.4412,2.5049,2.5676,2.6066,2.7703,2.6681,2.3606,2.5255,2.3813,2.032,2.032,2.032,2.032,2.032,1.9903,1.9493,1.9493,1.9276,1.8641,1.8641,1.8641,1.8641,1.5531,1.5478,1.5825,1.7089,1.5867,1.5337,0.0,0.0,0.0,2.2025,2.4879,2.7195,2.7858,2.9337,3.0293,3.013,3.0674,0.0,0.0,0.0,0.0,2.9139,2.6544,2.531,2.5788,2.329,2.1269,1.9864,1.8747,1.7758,1.6903,1.7271,1.7655,1.7819,1.7336,1.901,2.2181,2.1271,2.357,2.7884,2.8825,2.9163,2.9188,0.0,2.9779,2.9381,2.9996,3.0214,3.0214,3.0214,3.0165,3.0069,2.9864,2.9755,2.9658,2.9465,2.9405,2.9147,2.8481,2.8209,2.7807,2.677,2.5252,2.3807,0.0,0.0,0.0,0.0,0.0,0.0,0.0,0.0,1.7976,1.8249,1.8622,1.8898,1.9252,1.9064,0.0,1.9857,0.0,0.0,0.0,0.0,0.0,0.0,0.0,0.0,2.3607,0.0,0.0,2.2838,2.569,2.6702,2.5656,2.5871,2.6066,2.667,2.7079,2.6056,2.3616,2.4019,2.2788,2.032,2.032,2.032,2.032,2.032,2.032,2.0111,2.0111,1.9903,1.9903,1.9485,1.9485,1.9903,1.7673,1.789,1.8694,2.1023,2.0036,0.0,2.0269,2.2165,0.0,2.4625,2.6999,0.0,2.9937,3.0823,3.149,3.165,3.1664,0.0,3.0505,0.0,0.0,2.9634,2.8889,2.8325,2.7918,2.6118,0.0,2.2481,2.1407,2.0061,1.8643,1.8927,1.8889,1.8912,1.8827,1.9982,2.2223,2.3248,2.5689,2.8679,2.942,2.9848,0.0,3.0637,3.0625,3.0391,3.0509,3.0416,3.0214,3.0214,3.0214,3.0189,3.0033,2.9984,2.9948,2.9803,2.9755,2.9731,2.961,2.9465,2.9224,2.8644,2.7428,2.6386,2.573,2.4576,2.3531,0.0,2.274,2.2342,0.0,0.0,0.0,1.9825,2.0027,2.0195,2.0074,0.0,0.0,0.0,2.0376,0.0,0.0,0.0,0.0,0.0,0.0,0.0,0.0,0.0,0.0,2.2023,2.5188,2.5774,2.3054,2.4383,2.4628,2.401,2.5029,2.4216,2.2166,2.3202,2.2374,2.032,2.032,2.032,2.032,2.032,2.032,2.032,2.032,2.032,2.032,1.9903,2.0111,2.032,1.9717,2.006,2.1285,2.3496,2.3804,2.399,0.0,2.514,0.0,2.7135,0.0,2.9553,3.014,3.1116,3.1744,3.1784,0.0,3.1261,3.0136,3.0929,3.0757,2.9375,3.0119,3.0274,2.9726,2.8089,2.6418,2.4714,2.31,2.1543,1.9811,1.9574,1.9574,1.9786,2.0121,2.1102,2.2566,2.5325,2.769,2.9555,3.0028,3.0964,3.187,3.187,3.1895,3.1921,3.1326,3.0895,3.0465,3.0262,3.0286,3.0322,3.0322,3.0322,3.0322,3.0322,3.0322,3.0262,3.002,2.9924,2.9839,2.9574,2.9308,2.8982,2.8475,2.8005,2.7606,2.7341,2.652,2.6025,0.0,0.0,0.0,2.1679,2.1327,0.0,0.0,0.0,0.0,0.0,0.0,0.0,0.0,0.0,0.0,0.0,2.4886,2.5011,0.0,0.0,0.0,2.0837,2.4107,0.0,2.0241,0.0,2.2581,2.0729,2.2374,2.2175,2.032,2.2383,2.2175,2.032,2.032,2.032,2.032,2.032,2.032,2.032,2.032,2.032,2.032,2.032,2.032,2.032,2.2897,2.3196,2.3624,2.4316,2.5177,2.6183,2.741,2.7928,2.8512,2.8889,2.9924,3.1062,3.165,3.1904,3.2131,3.2372,3.2398,0.0,0.0,0.0,0.0,3.2011,3.1637,3.1276,3.0929,2.9045,2.7304,0.0,2.3914,2.2203,2.0793,2.1005,2.0876,2.0488,2.1398,2.319,2.5413,2.7334,2.8913,3.0382,3.1056,3.1667,3.2162,3.2162,3.2302,3.2506,3.2506,3.2148,3.1755,3.0949,3.0878,3.1474,3.1073,3.0865,3.0865,3.0865,3.0865,3.0853,3.0805,3.0636,3.0407,3.0141,2.9864,2.9574,2.926,2.9127,2.8982,2.8717,2.8343,2.7836,2.7099,0.0,0.0,0.0,0.0,0.0,0.0,0.0,0.0,0.0,0.0,0.0,0.0,0.0,0.0,0.0,0.0,0.0,0.0,0.0,2.7218,0.0,2.7893,0.0,0.0,0.0,2.3409,2.2995,2.1552,2.0729,2.032,2.0729,2.0729,2.032,2.032,2.032,2.032,2.032,2.032,2.032,2.032,2.032,2.032,2.032,2.032,2.032,2.4195,2.4541,2.4935,2.5692,2.6706,2.7875,0.0,2.982,3.0341,2.9986,3.0597,3.133,3.161,3.2051,3.2385,3.2532,3.2545,3.2545,3.2545,3.2545,3.2545,3.2545,3.2278,3.1917,3.1463,3.0181,2.8472,2.6357,0.0,2.3838,2.1991,2.2128,2.2062,2.1849,2.2846,2.4366,2.6182,2.7861,0.0,3.0955,3.1646,3.2346,3.3068,3.3068,3.3237,3.3485,3.2853,3.2865,3.3072,3.2094,3.1925,3.2232,3.161,3.161,3.183,3.1206,3.1414,3.1817,3.1414,3.1523,3.1594,3.147,3.1334,3.1197,3.1061,3.0813,3.0578,3.0454,2.9983,2.9214,2.7975,2.6748,0.0,0.0,0.0,0.0,0.0,0.0,2.4508,0.0,0.0,0.0,0.0,0.0,0.0,0.0,0.0,0.0,0.0,0.0,2.7473,0.0,0.0,0.0,0.0,0.0,0.0,2.3616,2.1345,2.032,2.032,2.032,2.032,2.032,2.032,2.032,2.032,2.032,2.032,2.032,2.032,2.032,2.032,2.032,2.032,2.032,2.5024,2.5571,2.6239,2.7054,2.8243,2.9312,2.9993,3.1102,3.1583,3.0835,3.1183,3.153,3.1597,3.2225,3.2666,3.2732,3.2732,3.2732,3.2732,3.2732,3.2732,3.2732,3.2679,3.2398,3.1864,3.1223,2.9668,0.0,0.0,2.5298,2.3064,2.3012,2.3104,2.3392,2.4376,2.5529,0.0,0.0,3.0136,3.161,3.2326,3.3092,3.3988,3.4042,3.4255,3.4302,3.346,3.3603,3.398,3.3525,3.3032,3.2628,3.2199,3.2408,3.242,3.1585,3.2003,3.2616,3.2199,3.237,3.2527,3.2735,3.2697,3.2646,3.2646,3.2315,3.1984,3.1921,3.1285,3.0306,2.9077,2.8194,0.0,0.0,0.0,0.0,0.0,0.0,2.5564,0.0,0.0,0.0,0.0,0.0,0.0,0.0,0.0,0.0,2.6221,0.0,0.0,0.0,0.0,2.953,2.5043,0.0,2.6465,0.0,2.1959,2.0729,2.032,2.032,2.032,2.032,2.032,2.032,2.032,2.032,2.032,2.032,2.032,2.032,2.032,2.032,2.032,2.032,2.6507,2.7094,2.7696,2.8323,2.9633,3.0608,3.0702,3.1704,3.2332,3.1984,3.2225,3.2519,3.2786,3.2893,3.304,3.3307,3.3334,3.3334,3.3334,3.3334,3.3334,3.3334,3.308,3.2786,3.2465,3.1623,3.0555,0.0,0.0,2.5865,2.4115,2.3848,2.4289,2.5331,2.5856,0.0,0.0,3.0385,3.161,3.2505,3.3427,3.3988,3.4309,3.4576,3.4857,3.511,3.49,3.4913,3.5151,3.4913,3.3845,3.2786,3.321,3.2998,3.2573,3.2573,3.2573,3.2573,3.2573,3.2387,3.2399,3.3015,3.2837,3.2646,3.2646,3.2608,3.2506,3.2252,3.173,3.1086,3.0052,2.993,2.9775,0.0,0.0,0.0,0.0,0.0,2.8565,2.7463,0.0,0.0,0.0,0.0,0.0,0.0,2.4083,0.0,0.0,0.0,0.0,2.6568,0.0,2.9532,3.0968,3.0255,2.8721,2.6465,2.4422,2.2166,2.032,2.032,2.032,2.032,2.032,2.032,2.032,2.032,2.032,2.032,2.032,2.032,2.032,2.032,2.032,2.032,2.7843,2.8511,0.0,0.0,0.0,0.0,0.0,3.2385,3.2759,3.2639,3.2732,3.2919,3.32,3.324,3.328,3.34,3.3414,3.3414,3.3414,3.3414,3.3414,3.3414,3.3293,3.3106,3.2812,3.2118,3.1183,0.0,0.0,0.0,2.5772,2.5478,2.5879,2.6854,0.0,2.8738,3.0087,3.1249,3.2265,3.3106,3.3668,3.4162,3.4603,3.4723,3.495,3.5191,3.4768,3.4557,3.4557,3.4557,3.4346,3.4134,3.3922,3.4134,3.3922,3.3286,3.371,3.4134,3.371,3.3832,3.3952,3.4373,3.4295,3.4203,3.4203,3.4072,3.3875,3.3586,3.2917,3.2209,3.1825,3.1336,3.0954,0.0,0.0,0.0,0.0,0.0,0.0,2.8871,0.0,2.7923,0.0,0.0,0.0,0.0,0.0,0.0,0.0,0.0,0.0,2.3473,0.0,3.0097,2.8445,2.9579,2.9127,2.6875,2.4628,2.2374,2.032,2.032,2.032,2.032,2.032,2.032,2.032,2.032,2.032,2.032,2.032,2.032,2.032,2.032,2.032,2.032,2.9339,0.0,3.0621,0.0,3.1717,3.2198,3.2612,3.2919,3.3106,3.3106,3.3106,3.3187,3.3387,3.3414,3.3414,3.3414,3.3414,3.3414,3.3414,3.3414,3.3414,3.3414,3.3414,0.0,3.2986,3.2572,3.1864,3.0875,2.9472,0.0,2.7335,2.6774,2.7175,0.0,2.9098,2.9967,3.0942,3.2024,3.2839,3.3454,3.3948,3.4389,3.4776,3.4857,3.5017,3.5191,3.4768,3.4557,3.4557,3.4557,3.4768,3.5191,3.4768,3.4768,3.4768,3.3922,3.4346,3.4768,3.4346,3.4557,3.498,3.5191,3.5191,3.5191,3.5191,3.5044,3.479,3.4402,3.3668,3.308,3.2986,3.2305,3.1851,3.2185,0.0,0.0,0.0,3.0795,0.0,2.9459,2.8991,0.0,0.0,0.0,0.0,0.0,0.0,0.0,0.0,0.0,0.0,0.0,0.0,0.0,0.0,2.8186,2.8518,2.6875,2.4628,2.2788,2.1353,2.0529,2.032,2.032,2.032,2.032,2.032,2.032,2.032,2.032,2.032,2.032,2.032,2.032,2.032,2.032,3.1076,3.1436,3.1837,3.2425,3.2772,3.2959,3.2973,3.3213,3.3414,3.3414,3.3414,3.3414,3.3414,3.3414,3.3414,3.3414,3.3414,3.3414,3.3414,3.3414,3.3414,0.0,0.0,3.328,3.2986,3.2973,3.2679,3.2078,0.0,0.0,2.8564,2.7375,2.7909,2.99,3.0207,3.0996,3.2144,3.3026,3.34,3.3494,3.4389,3.475,3.479,3.5084,3.5191,3.5191,3.5191,3.5191,3.5191,3.5191,3.5191,3.5191,3.5191,3.4768,3.4346,3.4346,3.4346,3.4346,3.4346,3.4346,3.4346,3.498,3.5191,3.5191,3.5191,3.5191,3.503,3.4442,3.3828,3.332,3.3026,3.2973,3.2866,3.2585,0.0,0.0,0.0,3.1396,0.0,2.9219,2.9045,0.0,2.819,0.0,0.0,0.0,0.0,0.0,0.0,0.0,0.0,2.3849,2.4942,0.0,2.526,2.6401,2.6875,2.6875,2.4628,2.3606,2.3409,2.1353,2.032,2.032,2.032,2.032,2.032,2.032,2.032,2.032,2.032,2.032,2.032,2.032,2.032,2.032,3.2091,3.2358,3.2625,3.2812,3.3253,3.3601,3.3601,3.3841,3.4028,3.4028,3.4028,3.4028,3.4028,3.3654,3.3494,0.0,3.3734,3.3734,0.0,3.3921,3.4028,3.4028,3.4028,3.3895,3.3601,3.3387,3.308,3.2706,0.0,0.0,0.0,2.9713,3.0207,3.141,3.1503,3.2091,3.3013,3.3307,3.3788,3.4362,3.4643,3.4883,3.507,3.5164,3.5191,3.5191,3.5191,3.5191,3.5191,3.5191,3.5191,3.5191,3.5191,3.498,3.498,3.498,3.498,3.498,3.498,3.498,3.498,3.5191,3.5191,3.5191,3.5191,3.4883,3.4549,3.4362,3.3841,3.3387,3.3293,3.328,3.324,3.3146,3.2893,0.0,3.2305,3.2011,3.1503,3.0635,3.0528,0.0,0.0,2.9659,0.0,0.0,0.0,0.0,0.0,0.0,0.0,0.0,2.6667,0.0,2.8101,2.7203,2.6713,2.6875,2.4628,2.2788,2.1353,2.052,2.032,2.032,2.032,2.032,2.032,2.032,2.032,2.032,2.032,2.032,2.032,2.032,2.032,2.032,3.3026,3.32,3.3347,3.3467,3.3801,3.4055,3.4055,3.4202,3.4322,3.4322,3.4322,3.4362,3.4469,3.4042,0.0,3.4028,3.4055,3.4055,3.4055,3.4215,3.4322,3.4322,3.4322,3.4229,3.4055,0.0,0.0,3.348,3.2532,3.1904,3.161,3.161,3.1971,3.2599,3.2719,3.3133,3.3761,3.3881,3.4255,3.4776,3.4883,3.503,3.5191,3.5191,3.5191,3.5191,3.5191,3.5191,3.5191,3.5191,3.5191,3.5191,3.5191,3.5191,3.5191,3.5191,3.5191,3.5191,3.5191,3.5191,3.5191,3.5191,3.5191,3.5164,3.5057,3.467,3.4282,3.4175,3.3761,3.3414,3.3414,3.3414,3.3414,3.3414,3.316,3.2879,3.2585,3.2291,3.1797,3.0996,0.0,0.0,0.0,3.0194,0.0,0.0,0.0,0.0,0.0,0.0,0.0,2.6153,2.8019,0.0,2.816,2.6296,2.592,2.6875,2.4628,2.2374,2.032,2.032,2.032,2.032,2.032,2.032,2.032,2.032,2.032,2.032,2.032,2.032,2.032,2.032,2.032,2.032,3.3855,3.3921,3.4002,0.0,3.4336,0.0,3.4349,3.4362,3.4376,3.4376,3.4376,3.4482,3.4763,3.4549,3.4376,3.4376,0.0,0.0,0.0,3.4376,3.4376,3.4376,3.4376,3.4376,3.4349,3.4349,3.4336,3.4322,3.3774,3.336,3.3066,3.3066,3.3213,3.3494,3.3788,3.4082,3.4362,3.4643,3.4776,3.4803,3.5084,3.5191,3.5191,3.5191,3.5191,3.5191,3.5191,3.5191,3.5191,3.5191,3.5191,3.5191,3.5191,3.5191,3.5191,3.5191,3.5191,3.5191,3.5191,3.5191,3.5191,3.5191,3.5191,3.5124,3.483,3.4536,3.4242,3.3948,3.3627,3.3414,3.3414,3.3414,3.3414,3.3414,3.3187,3.2906,3.2585,3.2305,3.1717,0.0,0.0,0.0,0.0,3.0034,3.0234,0.0,0.0,0.0,0.0,0.0,2.9417,2.8363,2.874,2.816,2.6385,2.4401,2.4412,2.6465,2.4422,2.2383,2.032,2.032,2.032,2.032,2.032,2.032,2.032,2.032,2.032,2.032,2.032,2.032,2.032,2.032,2.032,2.032,0.0,0.0,3.4242,3.4309,3.4509,3.4656,3.4656,3.4843,3.499,3.499,3.499,3.5017,3.5084,3.503,3.499,3.499,3.479,3.4656,3.4656,3.487,3.499,3.499,3.499,3.4883,3.467,3.4656,3.4549,3.4322,3.4175,3.4082,3.4002,3.4002,3.4042,3.4108,3.4189,3.4376,3.467,3.4736,3.4883,3.5097,3.5164,3.5191,3.5191,3.5191,3.5191,3.5191,3.5191,3.5191,3.5191,3.5191,3.5191,3.5191,3.5191,3.5191,3.5191,3.5191,3.5191,3.5191,3.5191,3.5191,3.5191,3.5191,3.5191,3.5124,3.483,3.4536,3.4242,3.3948,3.3627,3.3414,3.3414,3.3414,3.3414,3.3414,3.336,3.3133,3.2612,3.2492,3.2171,0.0,3.1356,3.133,3.1263,3.1249,3.1036,0.0,0.0,0.0,0.0,3.0368,3.0464,3.076,2.8074,2.7187,2.8567,2.345,2.1217,2.1959,2.1345,2.0729,2.032,2.032,2.032,2.032,2.032,2.032,2.032,2.032,2.032,2.032,2.032,2.032,2.032,2.032,2.032,2.032,3.4496,3.4523,3.4563,3.4696,3.4857,3.4963,3.4963,3.5097,3.5191,3.5191,3.5191,3.5191,3.5191,3.5191,3.5191,3.5191,3.5057,3.4963,3.4963,3.511,3.5191,3.5191,3.5191,3.5124,3.4963,3.4963,3.4883,3.4723,3.4589,3.4523,3.4523,3.4523,3.4523,3.4523,3.4656,3.4817,3.4963,3.4963,3.5057,3.5191,3.5191,3.5191,3.5191,3.5191,3.5191,3.5191,3.5191,3.5191,3.5191,3.5191,3.5191,3.5191,3.5191,3.5191,3.5191,3.5191,3.5191,3.5191,3.5191,3.5191,3.5191,3.5191,3.5097,3.4923,3.4629,3.4336,3.4028,3.3734,3.3534,3.3414,3.3414,3.3414,3.3414,3.3414,3.3187,3.2959,3.2772,3.2519,3.2278,3.2091,3.2064,3.2011,3.1877,3.1086,3.0255,2.9666,0.0,0.0,2.8108,2.8108,2.9319,3.1851,2.9006,2.809,2.9538,2.4352,2.1251,2.032,2.032,2.032,2.032,2.032,2.032,2.032,2.032,2.032,2.032,2.032,2.032,2.032,2.032,2.032,2.032,2.032,2.032,2.032,3.4776,3.483,3.491,3.5151,3.5191,3.5191,3.5191,3.5191,3.5191,3.5191,3.5191,3.5191,3.5191,3.5191,3.5191,3.5191,3.5191,3.5191,3.5191,3.5191,3.5191,3.5191,3.5191,3.5191,3.5191,3.5191,3.5191,3.5191,3.495,3.483,3.483,3.483,3.483,3.4843,3.5084,3.5191,3.5191,3.5191,3.5191,3.5191,3.5191,3.5191,3.5191,3.5191,3.5191,3.5191,3.5191,3.5191,3.5191,3.5191,3.5191,3.5191,3.5191,3.5191,3.5191,3.5191,3.5191,3.5191,3.5191,3.5191,3.5191,3.5137,3.495,3.467,3.4336,3.4068,3.3801,3.348,3.3414,3.3414,3.3414,3.3414,3.3387,3.3293,3.2946,3.2719,3.2826,0.0,3.2318,3.2519,3.2545,3.2452,3.2198,3.0198,2.8922,2.8705,2.6737,2.5572,0.0,2.5572,2.7238,3.1037,2.926,2.831,2.8198,2.4744,2.2175,2.032,2.032,2.032,2.032,2.032,2.032,2.032,2.032,2.032,2.032,2.032,2.032,2.032,2.032,2.032,2.032,2.032,2.0304,2.0279,3.5124,3.5124,3.5137,3.5191,3.5191,3.5191,3.5191,3.5191,3.5191,3.5191,3.5191,3.5191,3.5191,3.5191,3.5191,3.5191,3.5191,3.5191,3.5191,3.5191,3.5191,3.5191,3.5191,3.5191,3.5191,3.5191,3.5191,3.5191,3.5151,3.5124,3.5124,3.5124,3.5124,3.5137,3.5177,3.5191,3.5191,3.5191,3.5191,3.5191,3.5191,3.5191,3.5191,3.5191,3.5191,3.5191,3.5191,3.5191,3.5191,3.5191,3.5191,3.5191,3.5191,3.5191,3.5191,3.5191,3.5191,3.5191,3.5191,3.5191,3.5137,3.4897,3.479,3.4616,3.4082,3.3921,3.3801,3.348,3.3414,3.3414,3.3414,3.3414,3.3253,3.2759,3.3013,3.304,3.2332,0.0,3.2772,3.2572,3.2545,3.2532,3.2478,3.0486,2.9284,2.9248,2.7255,2.5858,2.5858,2.5858,2.6363,2.7203,2.505,2.3172,2.1708,2.1128,2.0729,2.032,2.032,2.032,2.032,2.032,2.032,2.032,2.032,2.032,2.032,2.032,2.032,2.032,2.032,2.032,2.032,2.032,2.0231,2.0101,3.5191,3.5191,3.5191,3.5191,3.5191,3.5191,3.5191,3.5191,3.5191,3.5191,3.5191,3.5191,3.5191,3.5191,3.5191,3.5191,3.5191,3.5191,3.5191,3.5191,3.5191,3.5191,3.5191,3.5191,3.5191,3.5191,3.5191,3.5191,3.5191,3.5191,3.5191,3.5191,3.5191,3.5191,3.5191,3.5191,3.5191,3.5191,3.5191,3.5191,3.5191,3.5191,3.5191,3.5191,3.5191,3.5191,3.5191,3.5191,3.5191,3.5191,3.5191,3.5191,3.5191,3.5191,3.5191,3.5191,3.5191,3.5191,3.5191,3.5084,3.4923,3.479,3.4523,3.4215,3.3948,3.3761,3.3587,3.344,3.3414,3.3414,3.3414,3.3414,3.332,3.3053,3.2973,0.0,3.2826,3.2772,3.2812,3.2986,3.3013,3.2485,3.098,2.895,2.7057,2.5623,2.3632,2.25,2.2404,2.2413,2.2562,2.3081,2.3109,2.24,2.032,2.032,2.032,2.032,2.032,2.032,2.032,2.032,2.032,2.032,2.032,2.032,2.032,2.032,2.0263,2.0182,2.0182,2.0125,2.0036,2.0036,1.9987,1.9914,3.5191,3.5191,3.5191,3.5191,3.5191,3.5191,3.5191,3.5191,3.5191,3.5191,3.5191,3.5191,3.5191,3.5191,3.5191,3.5191,3.5191,3.5191,3.5191,3.5191,3.5191,3.5191,3.5191,3.5191,3.5191,3.5191,3.5191,3.5191,3.5191,3.5191,3.5191,3.5191,3.5191,3.5191,3.5191,3.5191,3.5191,3.5191,3.5191,3.5191,3.5191,3.5191,3.5191,3.5191,3.5191,3.5191,3.5191,3.5191,3.5191,3.5191,3.5191,3.5191,3.5191,3.5191,3.5191,3.5191,3.5151,3.5097,3.5097,3.4937,3.4736,3.4603,3.4215,3.3868,3.3788,3.3587,3.3414,3.3414,3.3414,3.3414,3.3414,3.3414,3.3374,3.3227,0.0,3.2853,3.316,3.2879,3.2839,3.3347,3.3293,3.2246,2.9675,2.7588,2.5231,2.2736,2.0561,1.9443,1.9573,1.9573,1.9727,2.006,2.1871,2.1968,2.032,2.032,2.032,2.032,2.032,2.032,2.032,2.032,2.032,2.032,2.0279,2.0263,2.0255,2.0214,2.0117,2.0003,2.0003,1.9914,1.9792,1.9792,1.976,1.9727,3.5191,3.5191,3.5191,3.5191,3.5191,3.5191,3.5191,3.5191,3.5191,3.5191,3.5191,3.5191,3.5191,3.5191,3.5191,3.5191,3.5191,3.5191,3.5191,3.5191,3.5191,3.5191,3.5191,3.5191,3.5191,3.5191,3.5191,3.5191,3.5191,3.5191,3.5191,3.5191,3.5191,3.5191,3.5191,3.5191,3.5191,3.5191,3.5191,3.5191,3.5191,3.5191,3.5191,3.5191,3.5191,3.5191,3.5191,3.5191,3.5191,3.5191,3.5191,3.5191,3.5191,3.5191,3.5191,3.5191,3.5004,3.479,3.479,3.4776,3.4629,3.4095,3.3921,3.3814,3.3507,3.3427,3.3414,3.3414,3.3414,3.3414,3.3414,3.3414,3.324,3.2692,0.0,0.0,3.2679,3.2799,3.3066,3.3374,3.2933,3.1894,3.0093,2.7702,2.5367,2.3145,2.0949,1.9752,1.9768,1.9768,1.9857,2.006,2.0438,2.0529,2.032,2.032,2.032,2.032,2.032,2.032,2.032,2.032,2.032,2.0312,2.015,2.0085,2.0076,1.9898,1.9825,1.9808,1.9808,1.98,1.9792,1.9792,1.9678,1.9532,3.5191,3.5191,3.5191,3.5191,3.5191,3.5191,3.5191,3.5191,3.5191,3.5191,3.5191,3.5191,3.5191,3.5191,3.5191,3.5191,3.5191,3.5191,3.5191,3.5191,3.5191,3.5191,3.5191,3.5191,3.5191,3.5191,3.5191,3.5191,3.5191,3.5191,3.5191,3.5191,3.5191,3.5191,3.5191,3.5191,3.5191,3.5191,3.5191,3.5191,3.5191,3.5191,3.5191,3.5191,3.5191,3.5191,3.5191,3.5191,3.5191,3.5191,3.5084,3.4923,3.4923,3.4803,3.4656,3.4656,3.4576,3.4456,3.4269,3.4215,3.4162,3.3948,3.3734,3.3561,3.344,3.3414,3.3414,3.3414,3.3414,3.3414,3.3414,3.3414,3.3334,3.312,0.0,3.3267,3.2866,3.2906,3.2959,3.2879,3.2679,3.1712,2.9456,2.8575,2.6485,2.301,2.1822,2.0881,1.9613,1.9727,1.9825,1.989,1.9955,2.0101,2.032,2.032,2.0263,2.0166,2.0166,2.0101,1.9987,1.9987,1.9987,1.9987,1.9922,1.9898,1.989,1.9817,1.9719,1.9613,1.9613,1.9557,1.9459,1.9459,1.9419,1.9354,3.5191,3.5191,3.5191,3.5191,3.5191,3.5191,3.5191,3.5191,3.5191,3.5191,3.5191,3.5191,3.5191,3.5191,3.5191,3.5191,3.5191,3.5191,3.5191,3.5191,3.5191,3.5191,3.5191,3.5191,3.5191,3.5191,3.5191,3.5191,3.5191,3.5191,3.5191,3.5191,3.5191,3.5191,3.5191,3.5191,3.5191,3.5191,3.5191,3.5191,3.5191,3.5191,3.5191,3.5097,3.5057,3.5044,3.495,3.4923,3.4923,3.4923,3.479,3.4629,3.4629,3.4482,3.4322,3.4322,3.4255,3.4135,3.3935,3.3814,3.3734,3.3734,3.3574,3.3414,3.3414,3.3414,3.3414,3.3414,3.3414,3.3414,3.3414,3.3414,3.3414,3.3414,3.3414,3.3347,3.3146,3.2959,3.2799,3.2692,3.2438,3.1438,2.9165,2.8291,2.6416,2.2769,2.179,2.0869,1.9427,1.9557,1.9646,1.9703,1.9703,1.9849,2.015,2.015,2.0093,1.9979,1.9979,1.9914,1.9792,1.9792,1.9792,1.9784,1.9727,1.9703,1.9695,1.9646,1.9549,1.9435,1.9435,1.9362,1.9256,1.9256,1.9256,1.9256,3.5191,3.5191,3.5191,3.5191,3.5191,3.5191,3.5191,3.5191,3.5191,3.5191,3.5191,3.5191,3.5191,3.5191,3.5191,3.5191,3.5191,3.5191,3.5191,3.5191,3.5191,3.5191,3.5191,3.5191,3.5191,3.5191,3.5191,3.5191,3.5191,3.5191,3.5191,3.5191,3.5191,3.5191,3.5191,3.5191,3.5191,3.5191,3.5191,3.5191,3.5191,3.5191,3.5151,3.487,3.4763,3.4723,3.4429,3.4322,3.4322,3.4322,3.4322,3.4322,3.4309,3.4309,3.4309,3.4309,3.4108,3.3881,3.3881,3.3654,3.3414,3.3414,3.3414,3.3414,3.3414,3.3414,3.3414,3.3414,3.3414,3.3414,3.3414,3.3414,3.3414,3.3414,3.3414,3.3414,3.34,3.2906,3.2652,3.2933,3.2198,3.1007,2.9116,2.6965,2.4688,2.2564,2.0423,1.9256,1.9256,1.9256,1.9337,1.9508,1.9508,1.9597,1.9784,1.9784,1.9792,1.9784,1.9784,1.9784,1.9784,1.9784,1.9784,1.9776,1.9589,1.9508,1.95,1.9329,1.9256,1.9256,1.9256,1.9256,1.9256,1.9256,1.9256,1.9256,3.5191,3.5191,3.5191,3.5191,3.5191,3.5191,3.5191,3.5191,3.5191,3.5191,3.5191,3.5191,3.5191,3.5191,3.5191,3.5191,3.5191,3.5191,3.5191,3.5191,3.5191,3.5191,3.5191,3.5191,3.5191,3.5191,3.5191,3.5191,3.5191,3.5191,3.5191,3.5191,3.5191,3.5191,3.5191,3.5191,3.5191,3.5191,3.5084,3.4897,3.4897,3.4763,3.4576,3.4482,3.4456,3.4442,3.4349,3.4322,3.4322,3.4322,3.4189,3.3975,3.3748,3.3681,3.3681,3.3681,3.3627,3.3547,3.3547,3.348,3.3414,3.3414,3.3414,3.3414,3.3414,3.3414,3.3414,3.3414,3.3414,3.3414,3.3414,3.3414,3.3414,3.3414,3.324,3.304,3.2839,3.2478,3.2198,3.2078,3.1824,3.0929,2.8873,2.8031,2.6238,2.276,2.0423,1.9256,1.9256,1.9256,1.9281,1.9329,1.9337,1.9362,1.9419,1.9662,1.9727,1.9597,1.9597,1.9532,1.9419,1.9419,1.9419,1.941,1.9362,1.9337,1.9329,1.9281,1.9256,1.9256,1.9256,1.9256,1.9256,1.9256,1.9256,1.9256,3.5191,3.5191,3.5191,3.5191,3.5191,3.5191,3.5191,3.5191,3.5191,3.5191,3.5191,3.5191,3.5191,3.5191,3.5191,3.5191,3.5191,3.5191,3.5191,3.5191,3.5191,3.5191,3.5191,3.5191,3.5191,3.5191,3.5191,3.5191,3.5191,3.5191,3.5191,3.5191,3.5191,3.5191,3.5191,3.5137,3.503,3.503,3.4857,3.4589,3.4589,3.4482,3.4309,3.4189,3.4148,3.4135,3.4002,3.3961,3.3961,3.3961,3.3841,3.3668,3.3467,3.3414,3.3414,3.3414,3.3414,3.3414,3.3414,3.3414,3.3414,3.3414,3.3414,3.3414,3.3414,3.3414,3.3414,3.3414,3.3414,3.3414,3.3414,3.3414,3.3374,3.3253,3.3093,3.2879,3.2585,3.2291,3.2038,3.1864,3.0955,2.9924,2.8752,2.701,2.4688,2.1397,2.0038,1.9256,1.9256,1.9256,1.9256,1.9256,1.9256,1.9256,1.9256,1.9475,1.9524,1.941,1.941,1.9362,1.9256,1.9256,1.9256,1.9256,1.9256,1.9256,1.9256,1.9256,1.9256,1.9256,1.9256,1.9256,1.9256,1.9256,1.9256,1.9256,3.5191,3.5191,3.5191,3.5191,3.5191,3.5191,3.5191,3.5191,3.5191,3.5191,3.5191,3.5191,3.5191,3.5191,3.5191,3.5191,3.5191,3.5191,3.5191,3.5191,3.5191,3.5191,3.5191,3.5191,3.5151,3.5177,3.5191,3.5191,3.5191,3.5177,3.5151,3.5151,3.5137,3.5124,3.5124,3.4977,3.4723,3.4723,3.4549,3.4282,3.4282,3.4269,3.4215,3.3948,3.3841,3.3801,3.3507,3.3414,3.3414,3.3414,3.3414,3.3414,3.3414,3.3414,3.3414,3.3414,3.3414,3.3414,3.3414,3.3414,3.3414,3.3414,3.3414,3.3414,3.3414,3.3414,3.3414,3.3414,3.3414,3.34,3.3374,3.3374,3.328,3.2986,3.2919,3.2812,3.2545,3.2251,3.2064,3.1872,2.9884,2.8368,2.8176,2.4494,2.1397,1.9454,1.9256,1.9256,1.9256,1.9256,1.9256,1.9256,1.9256,1.9256,1.9256,1.9256,1.9256,1.9256,1.9256,1.9256,1.9256,1.9256,1.9256,1.9256,1.9256,1.9256,1.9256,1.9256,1.9256,1.9256,1.9256,1.9256,1.9256,1.9256,1.9256,1.9256,3.5191,3.5191,3.5191,3.5191,3.5191,3.5191,3.5191,3.5191,3.5191,3.5191,3.5191,3.5191,3.5191,3.5191,3.5191,3.5191,3.5191,3.5191,3.5191,3.5191,3.5191,3.5191,3.5191,3.5097,3.4857,3.5084,3.5191,3.5191,3.5191,3.5084,3.4857,3.4857,3.4736,3.4509,3.4509,3.4469,3.4416,3.4416,3.4255,3.3975,3.3975,3.3828,3.3601,3.3534,3.3507,3.3507,3.344,3.3414,3.3414,3.3414,3.3414,3.3414,3.3414,3.3414,3.3414,3.3414,3.3414,3.3414,3.3414,3.3414,3.3414,3.3414,3.3414,3.3414,3.3414,3.3414,3.3414,3.3414,3.3414,3.3347,3.312,3.3066,3.2973,3.2692,3.2438,3.2265,3.2211,3.1944,3.1185,2.9617,2.8992,2.7395,2.4115,2.1397,1.9849,1.9256,1.9256,1.9256,1.9256,1.9256,1.9256,1.9256,1.9256,1.9256,1.9256,1.9256,1.9256,1.9256,1.9256,1.9256,1.9256,1.9256,1.9256,1.9256,1.9256,1.9256,1.9256,1.9256,1.9256,1.9256,1.9256,1.9256,1.9256,1.9256,1.9256,1.9256,3.5191,3.5191,3.5191,3.5191,3.5191,3.5191,3.5191,3.5191,3.5191,3.5191,3.5191,3.5191,3.5191,3.5191,3.5137,3.5004,3.499,3.4923,3.479,3.4776,3.4776,3.4776,3.4776,3.471,3.4549,3.4696,3.4776,3.4776,3.4776,3.4696,3.4549,3.4549,3.4469,3.4322,3.4322,3.4242,3.4108,3.4108,3.3935,3.3654,3.3654,3.3561,3.3414,3.3414,3.3414,3.3414,3.3414,3.3414,3.3414,3.3414,3.3414,3.3414,3.3414,3.3414,3.3414,3.3414,3.3414,3.3414,3.3414,3.3414,3.3414,3.3414,3.3414,3.3414,3.3414,3.3414,3.3414,3.3414,3.3293,3.316,3.3013,3.2866,3.2679,3.2385,3.2198,3.1666,3.0549,3.0395,2.9529,2.7407,2.6238,2.43,2.1201,2.0038,1.9256,1.9256,1.9256,1.9256,1.9256,1.9256,1.9256,1.9256,1.9256,1.9256,1.9256,1.9256,1.9256,1.9256,1.9256,1.9256,1.9256,1.9256,1.9256,1.9256,1.9256,1.9256,1.9256,1.9256,1.9256,1.9256,1.9256,1.9256,1.9256,1.9256,1.9256,1.9256,3.5191,3.5191,3.5191,3.5191,3.5191,3.5191,3.5191,3.5151,3.5124,3.5124,3.5084,3.5044,3.5044,3.5044,3.495,3.471,3.4683,3.4589,3.4336,3.4322,3.4322,3.4322,3.4322,3.4295,3.4242,3.4242,3.4269,3.4322,3.4322,3.4295,3.4242,3.4242,3.4215,3.4162,3.4162,3.4028,3.3801,3.3801,3.3654,3.3414,3.3414,3.3414,3.3414,3.3414,3.3414,3.3414,3.3414,3.3414,3.3414,3.3414,3.3414,3.3414,3.3414,3.3414,3.3414,3.3414,3.3414,3.3414,3.3414,3.3414,3.3414,3.3414,3.3374,3.3334,3.3334,3.3334,3.3334,3.3334,3.3106,3.2893,3.2839,3.2625,3.2372,3.2078,3.2024,3.1164,2.898,2.856,2.7792,2.527,2.3141,2.1201,1.9454,1.9256,1.9256,1.9256,1.9256,1.9256,1.9256,1.9256,1.9256,1.9256,1.9256,1.9256,1.9256,1.9256,1.9256,1.9256,1.9256,1.9256,1.9256,1.9256,1.9256,1.9256,1.9256,1.9256,1.9256,1.9256,1.9256,1.9256,1.9256,1.9256,1.9256,1.9256,1.9256,1.9256,3.5191,3.5191,3.5191,3.5191,3.5191,3.5191,3.5191,3.4977,3.4817,3.4817,3.4603,3.4442,3.4442,3.4442,3.4429,3.4389,3.4376,3.4362,3.4322,3.4322,3.4322,3.4322,3.4322,3.4202,3.3948,3.3948,3.4068,3.4322,3.4322,3.4189,3.3948,3.3948,3.3801,3.3534,3.3534,3.3507,3.348,3.348,3.3454,3.3414,3.3414,3.3414,3.3414,3.3414,3.3414,3.3414,3.3414,3.3414,3.3414,3.3414,3.3414,3.3414,3.3414,3.3414,3.3414,3.3414,3.3414,3.3414,3.3414,3.3414,3.3414,3.3414,3.3227,3.304,3.304,3.304,3.304,3.304,3.2799,3.2532,3.2265,3.2185,3.2064,3.177,3.173,3.0942,2.8955,2.856,2.7203,2.3336,2.1013,1.9651,1.9256,1.9256,1.9256,1.9256,1.9256,1.9256,1.9256,1.9256,1.9256,1.9256,1.9256,1.9256,1.9256,1.9256,1.9256,1.9256,1.9256,1.9256,1.9256,1.9256,1.9256,1.9256,1.9256,1.9256,1.9256,1.9256,1.9256,1.9256,1.9256,1.9256,1.9256,1.9256,1.9256,1.9256,3.471,3.471,3.471,3.471,3.471,3.471,3.471,3.4603,3.4509,3.4509,3.4402,3.4322,3.4322,3.4322,3.4255,3.4095,3.4082,3.4002,3.3828,3.3814,3.3814,3.3814,3.3814,3.3748,3.3627,3.3614,3.3681,3.3814,3.3814,3.3748,3.3614,3.3614,3.3547,3.3414,3.3414,3.3414,3.3414,3.3414,3.3414,3.3414,3.3414,3.3414,3.3414,3.3414,3.3414,3.3414,3.3414,3.3414,3.3414,3.3414,3.3414,3.3414,3.3414,3.3414,3.3414,3.3414,3.3414,3.3414,3.3414,3.3293,3.3173,3.3173,3.2946,3.2732,3.2732,3.2612,3.2532,3.2706,3.2505,3.2251,3.2131,3.1971,3.1824,3.169,3.1664,3.089,2.8955,2.7599,2.527,2.1201,1.984,1.9256,1.9256,1.9256,1.9256,1.9256,1.9256,1.9256,1.9256,1.9256,1.9256,1.9256,1.9256,1.9256,1.9256,1.9256,1.9256,1.9256,1.9256,1.9256,1.9256,1.9256,1.9256,1.9256,1.9256,1.9256,1.9256,1.9256,1.9256,1.9256,1.9256,1.9256,1.9256,1.9256,1.9256,1.9256]}]]